Date StartTime U_cm/s V_cm/s W_cm/s Ustd_cm/s Vstd_cm/s Wstd_cm/s Uvar_(cm/s)^2 Vvar_(cm/s)^2 Wvar_(cm/s)^2 KE_(m/s)^2 TurbulentKE_(m/s)^2 HorizWindSpeed_cm/s FrictionSpeec_cm/s DragCoef SpeedOfSound_m/s SonicTemperature_C Pressure_mb 
09/18/2014  00:00:00      -12.835        9.460       -0.346       22.418       10.019        6.495      502.568      100.388       42.180        0.045        0.032       15.945       10.466        0.431      344.815       21.903      855.644
09/18/2014  00:01:00        3.435       -0.546        4.911       12.266        5.178        5.939      150.443       26.810       35.268        0.012        0.011        3.478        6.564        3.562      344.779       21.839      855.645
09/18/2014  00:02:00       37.403       28.386       14.825        9.742       11.621        7.480       94.900      135.056       55.944        0.136        0.014       46.955        0.344        0.000      344.617       21.563      855.634
09/18/2014  00:03:00       19.081      -32.690      -10.450       19.057       27.158       17.889      363.163      737.533      320.028        0.148        0.071       37.851       16.480        0.190      344.606       21.544      855.638
09/18/2014  00:04:00       40.530       37.475       40.857       16.430       16.397       14.726      269.937      268.875      216.869        0.274        0.038       55.200        4.465        0.007      344.452       21.282      855.627
09/18/2014  00:05:00       18.738       49.998       56.788       25.289       26.394       19.602      639.521      696.639      384.227        0.390        0.086       53.394       18.116        0.115      344.445       21.269      855.629
09/18/2014  00:06:00       38.483       47.208       38.550       43.329       22.961       26.622     1877.434      527.225      708.718        0.415        0.156       60.906       27.110        0.198      344.502       21.366      855.627
09/18/2014  00:07:00       60.967       20.740       38.906       58.706       51.224       36.282     3446.347     2623.905     1316.407        0.652        0.369       64.398       16.967        0.069      344.741       21.776      855.638
09/18/2014  00:08:00       29.024      -82.206        3.972       52.861       88.171       43.212     2794.269     7774.203     1867.297        1.002        0.622       87.179       46.558        0.285      344.984       22.191      855.667
09/18/2014  00:09:00      -74.861     -129.505       -8.748       78.610       69.563       29.984     6179.587     4839.054      899.026        1.718        0.596      149.585       22.359        0.022      344.381       21.160      855.709
09/18/2014  00:10:00     -127.790     -134.712       -3.737       42.729       65.987       31.977     1825.771     4354.235     1022.510        2.085        0.360      185.681       26.308        0.020      344.275       20.977      855.712
09/18/2014  00:11:00     -153.545      -67.359        1.554       38.126       48.535       30.943     1453.600     2355.614      957.468        1.644        0.238      167.670       19.770        0.014      344.197       20.844      855.699
09/18/2014  00:12:00     -117.561      -66.754       -4.671       61.824       42.385       31.004     3822.257     1796.447      961.245        1.244        0.329      135.192       32.536        0.058      344.142       20.752      855.709
09/18/2014  00:13:00     -124.325      -22.514       -0.173       43.739       42.945       24.183     1913.064     1844.259      584.804        1.015        0.217      126.347       21.093        0.028      343.969       20.457      855.721
09/18/2014  00:14:00      -55.777      -22.162        0.131       27.477       32.794       17.825      754.960     1075.456      317.729        0.287        0.107       60.018        9.987        0.028      343.843       20.239      855.722
09/18/2014  00:15:00       15.635        8.537       19.388       21.537       37.502       29.090      463.838     1406.376      846.201        0.170        0.136       17.814       28.815        2.616      343.990       20.492      855.725
09/18/2014  00:16:00        4.572       28.965       51.375       28.688       54.319       23.759      823.005     2950.573      564.497        0.392        0.217       29.324       26.704        0.829      344.041       20.580      855.717
09/18/2014  00:17:00       10.086      -52.998        6.232       20.108       40.694       29.984      404.346     1655.970      899.014        0.295        0.148       53.949       19.873        0.136      344.203       20.856      855.736
09/18/2014  00:18:00      -47.644      -48.590       -0.255       61.535       35.877       29.228     3786.599     1287.177      854.260        0.528        0.296       68.051       26.631        0.153      344.207       20.863      855.766
09/18/2014  00:19:00      -86.762      -76.749        8.127       51.932       38.550       29.175     2696.932     1486.141      851.184        0.926        0.252      115.837       27.943        0.058      344.035       20.569      855.790
09/18/2014  00:20:00      -92.201      -60.197       -9.296       20.795       16.584       13.295      432.423      275.045      176.766        0.655        0.044      110.112        3.958        0.001      344.019       20.540      855.787
09/18/2014  00:21:00      -58.950      -29.832        0.870       54.495       25.054       18.360     2969.695      627.679      337.080        0.415        0.197       66.069       25.870        0.153      344.000       20.509      855.803
09/18/2014  00:22:00      -58.482       35.511       -1.147       41.795       28.477       20.003     1746.801      810.964      400.117        0.382        0.148       68.419       22.254        0.106      344.058       20.607      855.773
09/18/2014  00:23:00      -45.922      -24.306       -2.700       41.758       33.800       28.437     1743.710     1142.466      808.653        0.320        0.185       51.958       17.440        0.113      344.362       21.129      855.777
09/18/2014  00:24:00      -94.534      -50.640      -17.386       74.018       43.484       23.289     5478.640     1890.830      542.355        0.986        0.396      107.244       32.367        0.091      344.031       20.562      855.798
09/18/2014  00:25:00      -75.831      -32.747       -1.127       58.626       26.310       12.941     3436.957      692.227      167.460        0.556        0.215       82.599        9.297        0.013      343.870       20.287      855.806
09/18/2014  00:26:00      -97.933      -19.951       -8.130       22.375       17.065       12.760      500.646      291.230      162.813        0.550        0.048       99.944        9.974        0.010      343.845       20.243      855.822
09/18/2014  00:27:00      -90.376      -40.982        9.339       38.167       31.344       20.140     1456.718      982.420      405.626        0.639        0.142       99.234       19.945        0.040      344.026       20.552      855.842
09/18/2014  00:28:00      -24.700      -23.058        6.533       32.443       20.771       13.088     1052.520      431.436      171.307        0.142        0.083       33.790       14.935        0.195      344.038       20.573      855.867
09/18/2014  00:29:00      -40.457       -5.473       -3.020       24.466       13.528       13.234      598.563      183.019      175.148        0.132        0.048       40.826       12.856        0.099      343.993       20.496      855.863
09/18/2014  00:30:00      -29.068        8.927       -2.564        9.465        7.816        5.431       89.592       61.085       29.495        0.056        0.009       30.408        5.613        0.034      343.991       20.493      855.865
09/18/2014  00:31:00      -43.942      -18.012       -6.072       23.412       23.552        9.472      548.143      554.703       89.715        0.174        0.060       47.491       12.018        0.064      344.092       20.664      855.890
09/18/2014  00:32:00      -44.410      -25.804      -10.122       22.845       23.709        7.885      521.901      562.133       62.174        0.194        0.057       51.362        6.562        0.016      343.952       20.428      855.915
09/18/2014  00:33:00      -29.171      -20.370       -6.052       30.382       14.040        8.659      923.052      197.119       74.982        0.125        0.060       35.580        9.714        0.075      344.109       20.695      855.906
09/18/2014  00:34:00     -107.835       13.612      -12.676       16.573       12.220        8.461      274.675      149.319       71.582        0.623        0.025      108.691        5.185        0.002      343.830       20.218      855.907
09/18/2014  00:35:00      -14.298       44.682       -2.211       29.423       18.889       13.570      865.704      356.783      184.154        0.181        0.070       46.914       16.000        0.116      343.820       20.202      855.918
09/18/2014  00:36:00       42.523       22.457        6.968       20.521       45.796       14.573      421.098     2097.235      212.369        0.255        0.137       48.089        5.538        0.013      344.191       20.835      855.894
09/18/2014  00:37:00       71.689       47.819       13.651       32.711       49.747       27.655     1070.012     2474.789      764.786        0.596        0.215       86.174       12.251        0.020      344.391       21.177      855.862
09/18/2014  00:38:00      -60.275      -25.915       -0.309       67.644       55.673       32.493     4575.768     3099.511     1055.803        0.652        0.437       65.610       40.605        0.383      343.893       20.325      855.881
09/18/2014  00:39:00     -171.318      -67.287       -8.158       37.629       42.387       16.217     1415.979     1796.663      262.981        1.871        0.174      184.058       10.769        0.003      343.717       20.025      855.927
09/18/2014  00:40:00     -230.105     -115.532      -16.682       62.287       66.746       41.262     3879.728     4454.999     1702.566        3.830        0.502      257.480       24.758        0.009      343.444       19.555      855.962
09/18/2014  00:41:00     -108.993      -21.624       -2.252       60.896       59.531       38.237     3708.311     3543.928     1462.048        1.053        0.436      111.118       37.151        0.112      343.357       19.410      855.995
09/18/2014  00:42:00     -150.135      -35.567      -11.012      105.736       63.912       47.866    11180.019     4084.688     2291.146        2.074        0.878      154.290       62.764        0.165      343.603       19.831      855.977
09/18/2014  00:43:00     -132.847        2.247       -7.315       45.233       36.119       27.742     2046.048     1304.555      769.637        1.091        0.206      132.866       27.704        0.043      343.745       20.073      855.988
09/18/2014  00:44:00      -60.223      -18.201        2.175       57.227       49.956       25.101     3274.946     2495.575      630.040        0.518        0.320       62.913       24.808        0.155      343.536       19.716      855.994
09/18/2014  00:45:00     -175.537      -58.175       -4.960       68.592       47.987       32.657     4704.860     2302.783     1066.456        2.115        0.404      184.926       33.681        0.033      343.498       19.650      855.994
09/18/2014  00:46:00     -136.773      -30.245       -4.621       54.228       32.886       25.247     2940.688     1081.505      637.434        1.215        0.233      140.078       25.929        0.034      343.517       19.684      856.009
09/18/2014  00:47:00     -133.796       25.950       -9.706       55.105       31.931       22.686     3036.593     1019.575      514.675        1.162        0.229      136.289       24.806        0.033      343.525       19.698      856.010
09/18/2014  00:48:00      -94.105       21.042       -2.019       57.283       24.713       15.463     3281.316      610.753      239.118        0.672        0.207       96.429       15.885        0.027      343.590       19.810      856.022
09/18/2014  00:49:00      -49.898      -22.618       -6.227       46.240       25.093       19.980     2138.109      629.669      399.195        0.310        0.158       54.785       23.557        0.185      343.520       19.689      856.031
09/18/2014  00:50:00      -39.219      -30.909       -9.396       58.982       33.072       20.927     3478.842     1093.788      437.930        0.380        0.251       49.935       22.560        0.204      343.506       19.666      856.055
09/18/2014  00:51:00     -127.810      -40.150       -5.580       45.601       42.546       20.919     2079.453     1810.158      437.621        1.115        0.216      133.968       16.548        0.015      343.277       19.276      856.061
09/18/2014  00:52:00     -126.485      -59.905      -13.035       41.120       36.389       22.678     1690.844     1324.157      514.272        1.164        0.176      139.954       16.269        0.014      343.386       19.459      856.051
09/18/2014  00:53:00      -70.554      -41.050        0.509       39.036       37.395       20.274     1523.774     1398.367      411.054        0.500        0.167       81.627       10.709        0.017      343.358       19.413      856.045
09/18/2014  00:54:00     -100.966      -69.118       -3.836       45.173       39.010       20.721     2040.596     1521.749      429.362        0.949        0.200      122.358       18.255        0.022      343.338       19.379      856.045
09/18/2014  00:55:00      -64.952      -59.530        1.315       46.997       31.149       22.173     2208.760      970.229      491.654        0.572        0.184       88.106       22.034        0.063      343.425       19.528      856.056
09/18/2014  00:56:00     -129.919      -96.410       -1.604       52.636       38.024       32.428     2770.553     1445.791     1051.549        1.572        0.263      161.783       28.631        0.031      343.405       19.492      856.058
09/18/2014  00:57:00     -185.869      -76.233       -6.437       37.993       35.262       21.042     1443.442     1243.406      442.764        2.176        0.156      200.895       23.840        0.014      343.464       19.593      856.062
09/18/2014  00:58:00     -159.841      -34.675      -11.964       34.538       34.177       24.305     1192.867     1168.085      590.734        1.492        0.148      163.558       20.413        0.016      343.376       19.444      856.064
09/18/2014  00:59:00     -157.201      -21.488       -9.696       43.169       30.200       20.862     1863.533      912.054      435.203        1.424        0.161      158.663       19.919        0.016      343.322       19.351      856.052
09/18/2014  01:00:00     -185.705      -27.837      -15.389       39.134       30.760       28.093     1531.481      946.196      789.231        1.938        0.163      187.780       18.471        0.010      343.286       19.289      856.038
09/18/2014  01:01:00     -214.981       23.910      -25.040       29.683       43.745       18.890      881.108     1913.608      356.831        2.528        0.158      216.306       17.973        0.007      343.207       19.155      856.020
09/18/2014  01:02:00     -125.795       72.189      -16.007       28.579       36.680       28.247      816.745     1345.403      797.887        1.213        0.148      145.037       23.776        0.027      343.179       19.108      855.994
09/18/2014  01:03:00     -126.838      102.535      -28.911       23.729       27.296       16.032      563.069      745.094      257.033        1.450        0.078      163.099       14.388        0.008      343.459       19.586      855.969
09/18/2014  01:04:00     -132.387      129.340      -27.578       23.714       15.978       16.241      562.363      255.292      263.773        1.805        0.054      185.082       12.912        0.005      344.033       20.565      855.959
09/18/2014  01:05:00      -94.510      118.884      -15.472       30.201       22.562       13.562      912.119      509.033      183.916        1.245        0.080      151.874       17.007        0.013      344.315       21.046      855.956
09/18/2014  01:06:00      -16.771       39.152        2.200       17.395       24.285        8.827      302.572      589.758       77.918        0.139        0.049       42.593        4.453        0.011      343.996       20.502      855.957
09/18/2014  01:07:00       11.797      -53.034       -5.816       23.678       20.563       14.631      560.659      422.826      214.067        0.209        0.060       54.330       10.759        0.039      343.629       19.874      855.979
09/18/2014  01:08:00      -82.375      -41.777      -12.049       37.391       21.629       19.507     1398.078      467.808      380.533        0.546        0.112       92.363       18.825        0.042      343.517       19.683      856.010
09/18/2014  01:09:00     -115.641      -10.517      -15.501       15.228       26.247       17.675      231.882      688.879      312.422        0.748        0.062      116.118        8.563        0.005      343.439       19.551      856.013
09/18/2014  01:10:00      -95.079       61.573      -21.969       18.365       38.393       14.099      337.259     1473.998      198.792        0.766        0.101      113.275       13.519        0.014      343.843       20.241      856.017
09/18/2014  01:11:00      -61.871       41.983        3.586       30.617       28.298       27.601      937.431      800.770      761.789        0.405        0.125       74.770       20.733        0.077      343.859       20.266      856.017
09/18/2014  01:12:00     -137.493       50.511      -17.172       87.061       61.394       28.433     7579.568     3769.208      808.447        1.695        0.608      146.478       33.413        0.052      344.060       20.609      856.023
09/18/2014  01:13:00     -144.812       90.846      -13.925       43.653       41.336       31.839     1905.606     1708.685     1013.734        1.702        0.231      170.949       26.943        0.025      344.193       20.838      856.024
09/18/2014  01:14:00     -128.917       59.885       -9.930       41.230       30.008       25.103     1699.888      900.461      630.146        1.177        0.162      142.147       16.302        0.013      344.133       20.735      856.016
09/18/2014  01:15:00     -112.895       91.529      -21.226       37.406       37.570       25.695     1399.204     1411.516      660.237        1.252        0.174      145.337       17.980        0.015      343.984       20.481      856.020
09/18/2014  01:16:00     -101.796       74.778      -21.115       27.803       32.863       18.303      772.979     1080.009      335.008        0.929        0.109      126.310       13.098        0.011      343.944       20.413      856.022
09/18/2014  01:17:00     -155.284       50.284      -15.227       43.948       29.829       19.319     1931.465      889.796      373.236        1.503        0.160      163.222       17.127        0.011      343.766       20.108      856.008
09/18/2014  01:18:00     -184.584       27.663      -16.783       47.715       29.250       19.941     2276.731      855.544      397.653        1.932        0.176      186.645       21.275        0.013      343.574       19.780      855.992
09/18/2014  01:19:00     -199.016       54.825      -17.299       28.949       31.138       16.724      838.016      969.557      279.686        2.250        0.104      206.430       11.202        0.003      343.559       19.753      856.001
09/18/2014  01:20:00     -140.030        4.893      -14.674       38.753       27.335       21.431     1501.824      747.208      459.287        1.128        0.135      140.116       22.397        0.026      343.233       19.201      856.005
09/18/2014  01:21:00     -104.895       11.942       -9.006       40.555       25.987       17.106     1644.747      675.318      292.632        0.692        0.131      105.572       13.407        0.016      343.330       19.366      855.978
09/18/2014  01:22:00     -109.653      -47.011       -4.908       31.830       31.887       21.116     1013.127     1016.765      445.876        0.837        0.124      119.306        9.549        0.006      343.176       19.104      855.950
09/18/2014  01:23:00     -120.017      -12.927      -22.221       35.575       24.820       20.234     1265.568      616.023      409.427        0.868        0.115      120.711       18.319        0.023      343.303       19.321      855.960
09/18/2014  01:24:00     -182.776       -4.440      -18.677       42.377       38.771       21.395     1795.769     1503.193      457.764        1.877        0.188      182.830       19.716        0.012      342.910       18.650      855.966
09/18/2014  01:25:00     -166.713      -33.573      -20.711       61.110       43.711       30.426     3734.461     1910.610      925.768        1.796        0.329      170.060       34.979        0.042      342.856       18.557      855.960
09/18/2014  01:26:00     -190.846       18.589      -18.385       48.659       40.711       27.759     2367.677     1657.399      770.539        2.095        0.240      191.749       21.803        0.013      342.949       18.715      855.941
09/18/2014  01:27:00     -153.630       -9.395      -24.000       49.659       47.557       24.253     2466.005     2261.621      588.207        1.479        0.266      153.917       16.063        0.011      343.172       19.095      855.973
09/18/2014  01:28:00     -163.767      -12.154      -13.036       55.464       89.478       38.819     3076.200     8006.329     1506.941        1.986        0.629      164.218       35.714        0.047      343.140       19.040      855.968
09/18/2014  01:29:00     -200.976       86.349      -23.325       67.317       56.365       37.526     4531.614     3177.013     1408.187        2.875        0.456      218.741       31.235        0.020      343.248       19.222      855.943
09/18/2014  01:30:00     -115.047       13.729       -1.152       80.010       47.160       35.578     6401.658     2224.084     1265.825        1.166        0.495      115.863       31.067        0.072      343.121       19.009      855.962
09/18/2014  01:31:00     -121.345       18.884      -21.490       38.269       35.595       26.404     1464.484     1267.023      697.177        0.949        0.171      122.806       21.998        0.032      343.111       18.993      855.988
09/18/2014  01:32:00      -92.809       43.608      -14.449       34.435       39.517       22.074     1185.764     1561.574      487.261        0.698        0.162      102.543       23.913        0.054      343.270       19.263      855.988
09/18/2014  01:33:00      -30.030       62.967       -9.222       47.637       29.690       16.564     2269.251      881.470      274.370        0.419        0.171       69.761       17.175        0.061      343.302       19.318      855.975
09/18/2014  01:34:00      -51.900       40.894       -9.294       26.721       22.812       15.496      714.000      520.373      240.139        0.296        0.074       66.075       13.996        0.045      343.317       19.342      855.969
09/18/2014  01:35:00      -44.970        5.285       -3.340       15.003       22.753        9.487      225.081      517.705       90.010        0.145        0.042       45.279        8.245        0.033      343.316       19.342      855.969
09/18/2014  01:36:00      -30.728        0.127       -6.002       13.978       25.156        9.774      195.390      632.821       95.524        0.095        0.046       30.729        7.745        0.064      343.200       19.143      855.943
09/18/2014  01:37:00      -69.287      -28.501       -7.467       34.221       24.581       11.376     1171.073      604.247      129.421        0.379        0.095       74.920        6.939        0.009      343.052       18.893      855.936
09/18/2014  01:38:00     -127.663      -44.425      -12.028       24.342       23.869       13.768      592.513      569.716      189.548        0.988        0.068      135.172        8.376        0.004      343.005       18.812      855.956
09/18/2014  01:39:00     -105.081      -57.871        2.779       48.729       28.533       21.727     2374.538      814.148      472.066        0.903        0.183      119.963       18.323        0.023      343.050       18.890      855.985
09/18/2014  01:40:00     -124.389      -51.630        0.982       63.757       41.991       27.449     4064.895     1763.262      753.423        1.236        0.329      134.678       21.939        0.027      343.125       19.015      855.976
09/18/2014  01:41:00     -127.223      -40.693       -2.833       35.714       28.407       21.822     1275.497      806.955      476.216        1.020        0.128      133.572       19.387        0.021      343.141       19.044      855.963
09/18/2014  01:42:00     -103.330      -86.010        2.363       73.627       54.007       32.751     5420.963     2916.789     1072.652        1.374        0.471      134.443       36.415        0.073      343.100       18.973      855.999
09/18/2014  01:43:00     -108.914     -139.723       -6.556       56.931       48.640       32.778     3241.151     2365.843     1074.365        1.905        0.334      177.158       25.551        0.021      343.189       19.124      856.033
09/18/2014  01:44:00     -105.805      -72.626       -3.879       65.561       44.176       34.252     4298.251     1951.479     1173.190        1.195        0.371      128.332       33.400        0.068      343.193       19.133      856.029
09/18/2014  01:45:00     -162.304      -87.460       -2.906       47.176       52.166       29.573     2225.577     2721.279      874.559        1.991        0.291      184.368       24.579        0.018      343.215       19.169      856.012
09/18/2014  01:46:00     -155.095      -32.318       -8.588       42.224       34.387       26.118     1782.836     1182.471      682.148        1.441        0.182      158.426       24.513        0.024      343.151       19.061      855.998
09/18/2014  01:47:00     -149.608       22.605      -10.275       32.677       28.589       13.409     1067.756      817.330      179.788        1.253        0.103      151.306       10.330        0.005      343.083       18.944      855.967
09/18/2014  01:48:00     -144.551      -61.569       -8.303       35.353       58.026       29.764     1249.857     3366.969      885.885        1.513        0.275      157.117       19.037        0.015      343.089       18.955      855.994
09/18/2014  01:49:00     -102.856      -83.833        4.773       58.905       42.847       32.943     3469.831     1835.861     1085.259        1.201        0.320      132.693       26.521        0.040      343.082       18.944      856.042
09/18/2014  01:50:00      -54.678      -68.802       -8.883       35.626       22.458       20.279     1269.211      504.342      411.245        0.499        0.109       87.883        9.401        0.011      343.285       19.289      856.022
09/18/2014  01:51:00       10.865      -76.331      -20.769       35.868       24.230       13.094     1286.500      587.094      171.456        0.421        0.102       77.101        8.865        0.013      343.325       19.357      856.007
09/18/2014  01:52:00      -85.934     -113.602      -17.402       46.777       48.047       24.693     2188.061     2308.532      609.764        1.285        0.255      142.443       25.632        0.032      343.285       19.290      856.027
09/18/2014  01:53:00     -100.114      -47.157       -6.158       52.520       46.616       32.658     2758.369     2173.042     1066.547        0.914        0.300      110.665       30.120        0.074      343.188       19.124      856.021
09/18/2014  01:54:00      -91.474      -27.087       -9.524       27.047       25.142       10.953      731.534      632.109      119.972        0.534        0.074       95.401        6.952        0.005      343.350       19.401      856.006
09/18/2014  01:55:00     -110.692      -35.861       -9.523       23.683       23.041       13.615      560.880      530.879      185.359        0.745        0.064      116.356        9.865        0.007      343.202       19.148      856.011
09/18/2014  01:56:00     -143.379      -51.786       -4.969       40.240       23.228       17.060     1619.245      539.532      291.043        1.286        0.122      152.444       15.817        0.011      343.112       18.994      856.038
09/18/2014  01:57:00      -88.757       -7.734        2.200       67.389       37.269       22.066     4541.317     1388.946      486.899        0.718        0.321       89.093       32.297        0.131      343.017       18.832      856.040
09/18/2014  01:58:00      -66.133       -8.860       -4.154       35.343       18.710       15.869     1249.115      350.079      251.821        0.316        0.093       66.724       13.777        0.043      343.031       18.858      855.976
09/18/2014  01:59:00     -128.294      -16.497      -12.020       24.229       30.165       16.267      587.056      909.944      264.620        0.932        0.088      129.350       13.278        0.011      343.187       19.121      855.967
09/18/2014  02:00:00     -124.138      -35.114       -5.125       43.504       37.399       22.256     1892.595     1398.665      495.322        1.023        0.189      129.009       21.738        0.028      343.173       19.099      856.024
09/18/2014  02:01:00      -99.105      -41.363        3.101       61.591       43.155       21.994     3793.446     1862.397      483.738        0.884        0.307      107.391       23.139        0.046      343.172       19.096      856.040
09/18/2014  02:02:00      -97.371      -71.982       -3.921       60.554       34.411       23.318     3666.832     1184.130      543.720        1.004        0.270      121.089       24.654        0.041      343.195       19.136      856.031
09/18/2014  02:03:00      -79.586     -124.284        0.941       61.893       62.719       30.581     3830.701     3933.706      935.219        1.524        0.435      147.582       34.115        0.053      343.208       19.157      856.043
09/18/2014  02:04:00     -149.819     -108.286       -2.694       79.640       42.490       29.629     6342.568     1805.441      877.881        2.160        0.451      184.856       19.741        0.011      343.255       19.236      856.049
09/18/2014  02:05:00     -156.730      -34.308       -5.068       67.177       52.715       35.562     4512.740     2778.922     1264.688        1.716        0.428      160.441       37.403        0.054      343.084       18.946      856.011
09/18/2014  02:06:00     -214.507      -34.130      -14.351       54.579       55.261       29.364     2978.889     3053.826      862.273        2.714        0.345      217.205       25.605        0.014      343.108       18.985      855.990
09/18/2014  02:07:00     -126.946      -42.054      -11.268       51.320       41.146       28.165     2633.694     1692.982      793.265        1.156        0.256      133.731       23.630        0.031      343.108       18.986      855.987
09/18/2014  02:08:00     -138.192      -89.868       -6.861       50.737       34.706       31.398     2574.236     1204.472      985.831        1.599        0.238      164.843       27.364        0.028      343.025       18.847      855.992
09/18/2014  02:09:00     -155.543     -110.971       -0.532       57.680       52.449       36.460     3326.929     2750.850     1329.301        2.196        0.370      191.072       32.044        0.028      343.016       18.828      855.979
09/18/2014  02:10:00     -201.941      -36.186      -15.783       73.136       53.332       35.360     5348.894     2844.316     1250.304        2.589        0.472      205.157       31.251        0.023      342.993       18.788      855.985
09/18/2014  02:11:00     -210.761      -72.971      -11.746       61.170       54.565       30.736     3741.792     2977.353      944.721        2.877        0.383      223.036       28.410        0.016      342.943       18.703      855.995
09/18/2014  02:12:00     -177.668      -79.632        0.172       59.069       54.830       30.067     3489.104     3006.287      903.997        2.265        0.370      194.698       33.030        0.029      342.852       18.550      856.004
09/18/2014  02:13:00     -204.304       -0.706      -13.891       75.725       56.632       40.988     5734.235     3207.216     1680.047        2.628        0.531      204.306       43.398        0.045      342.833       18.516      856.000
09/18/2014  02:14:00     -128.337      -15.360       -3.120       70.567       48.861       30.089     4979.659     2387.446      905.351        1.249        0.414      129.253       31.186        0.058      342.730       18.342      855.968
09/18/2014  02:15:00     -110.738       19.838       -5.580       44.274       47.852       29.293     1960.179     2289.861      858.063        0.890        0.255      112.500       23.386        0.043      342.745       18.369      855.958
09/18/2014  02:16:00      -75.504        8.400       -0.293       41.180       35.372       22.459     1695.829     1251.146      504.413        0.461        0.173       75.970       25.744        0.115      342.752       18.380      855.957
09/18/2014  02:17:00      -50.303      -32.169       -7.733       32.283       21.145       11.006     1042.184      447.113      121.124        0.262        0.081       59.709       14.238        0.057      342.842       18.535      855.968
09/18/2014  02:18:00     -115.392      -82.240        1.166       74.529       71.565       33.498     5554.614     5121.571     1122.131        1.594        0.590      141.699       34.007        0.058      342.784       18.435      855.968
09/18/2014  02:19:00      -80.199      -35.093        5.445       55.736       34.246       22.897     3106.447     1172.817      524.253        0.625        0.240       87.541       22.982        0.069      342.805       18.472      855.954
09/18/2014  02:20:00      -63.259       -4.230      -11.078       30.919       27.216       12.834      955.961      740.693      164.722        0.300        0.093       63.401        9.863        0.024      342.988       18.782      855.948
09/18/2014  02:21:00     -215.750      -74.350      -17.056       77.581       91.163       26.060     6018.831     8310.761      679.103        3.368        0.750      228.202       24.911        0.012      343.228       19.190      855.951
09/18/2014  02:22:00     -183.755      -67.711        7.140       85.463       57.295       37.890     7303.921     3282.699     1435.653        2.521        0.601      195.834       37.826        0.037      342.848       18.543      855.983
09/18/2014  02:23:00     -160.471      -37.328       -3.477       74.139       64.640       38.063     5496.622     4178.299     1448.760        1.914        0.556      164.756       33.021        0.040      342.832       18.516      855.987
09/18/2014  02:24:00     -217.120      -19.683      -11.473       72.704       57.516       42.928     5285.826     3308.047     1842.826        2.905        0.522      218.010       44.465        0.042      342.841       18.529      855.999
09/18/2014  02:25:00     -177.383      -58.027       -4.697       67.294       48.957       32.407     4528.436     2396.825     1050.219        2.141        0.399      186.633       35.432        0.036      342.808       18.475      856.012
09/18/2014  02:26:00     -124.711      -19.350      -10.507       47.781       45.471       25.730     2283.067     2067.628      662.023        1.052        0.251      126.203       21.792        0.030      342.789       18.445      856.029
09/18/2014  02:27:00     -136.369      -54.595      -11.567       41.642       37.887       25.024     1734.060     1435.456      626.219        1.275        0.190      146.891       17.994        0.015      342.765       18.403      856.059
09/18/2014  02:28:00     -139.531      -16.713      -10.662       42.564       45.845       21.260     1811.710     2101.754      451.984        1.211        0.218      140.528       21.031        0.022      342.721       18.327      856.071
09/18/2014  02:29:00     -187.463       28.567      -20.607       52.617       50.384       29.326     2768.514     2538.552      860.017        2.127        0.308      189.627       26.809        0.020      342.586       18.097      856.073
09/18/2014  02:30:00     -143.967      -24.438      -20.334       49.862       68.938       31.118     2486.171     4752.395      968.354        1.497        0.410      146.026        7.998        0.003      342.499       17.950      856.075
09/18/2014  02:31:00     -169.992      -46.716       -7.032       57.020       60.838       30.358     3251.242     3701.311      921.599        1.950        0.394      176.294       27.499        0.024      342.403       17.787      856.058
09/18/2014  02:32:00     -224.632      -82.160       -1.806       72.053       56.380       35.696     5191.698     3178.729     1274.173        3.343        0.482      239.185       30.682        0.016      342.397       17.773      856.042
09/18/2014  02:33:00     -306.853     -108.234       -5.013       78.099       75.882       46.371     6099.442     5758.031     2150.246        5.995        0.700      325.382       35.673        0.012      342.735       18.349      856.048
09/18/2014  02:34:00     -256.983       -1.091       -7.540      135.859       97.111       64.106    18457.676     9430.558     4109.563        4.904        1.600      256.985       76.577        0.089      343.608       19.838      856.043
09/18/2014  02:35:00     -272.152      -80.521      -36.887       99.501      111.255       51.204     9900.442    12377.582     2621.813        5.340        1.245      283.814       49.529        0.030      344.269       20.965      856.047
09/18/2014  02:36:00     -294.502      -28.433      -16.834      118.274       90.331       50.694    13988.781     8159.703     2569.909        5.627        1.236      295.871       52.918        0.032      344.344       21.093      856.011
09/18/2014  02:37:00     -176.736      -58.752      -12.870       92.750       45.341       41.849     8602.535     2055.795     1751.310        2.363        0.620      186.246       46.727        0.063      344.246       20.928      856.023
09/18/2014  02:38:00      -88.742      -43.060       -8.438       72.515       60.740       41.825     5258.374     3689.373     1749.318        1.025        0.535       98.637       36.667        0.138      344.035       20.567      856.029
09/18/2014  02:39:00     -135.499      -38.337       -5.888       73.260       74.140       33.204     5367.031     5496.716     1102.481        1.591        0.598      140.818       11.770        0.007      343.928       20.384      856.067
09/18/2014  02:40:00     -150.620     -114.789        8.112      121.993       86.351       47.158    14882.256     7456.535     2223.843        3.024        1.228      189.374       57.428        0.092      344.014       20.530      856.086
09/18/2014  02:41:00     -121.474      -56.316        4.731       65.564       74.075       32.386     4298.670     5487.048     1048.843        1.439        0.542      133.893       29.332        0.048      343.941       20.407      856.105
09/18/2014  02:42:00     -119.586      -25.206      -10.428       32.450       48.805       24.795     1053.025     2381.930      614.780        0.955        0.202      122.213       20.888        0.029      343.940       20.406      856.112
09/18/2014  02:43:00      -97.418     -136.946       -0.712       63.329       71.916       27.619     4010.548     5171.973      762.836        1.909        0.497      168.061       25.825        0.024      343.929       20.385      856.138
09/18/2014  02:44:00     -136.539     -112.848        2.125       80.237       56.158       37.062     6438.028     3153.701     1373.569        2.117        0.548      177.137       45.978        0.067      343.889       20.315      856.178
09/18/2014  02:45:00     -126.099     -152.710        8.738       65.054      100.084       46.731     4232.050    10016.768     2183.804        2.786        0.822      198.044       40.793        0.042      344.044       20.580      856.202
09/18/2014  02:46:00      -68.091      -86.715      -13.898       84.126       60.804       40.509     7077.165     3697.134     1640.995        1.238        0.621      110.254       27.315        0.061      344.007       20.521      856.142
09/18/2014  02:47:00     -104.570     -152.166      -10.793       63.696       50.546       26.354     4057.166     2554.904      694.524        2.075        0.365      184.634       23.452        0.016      344.082       20.647      856.121
09/18/2014  02:48:00     -220.446     -131.159      -15.571       59.944       47.393       32.314     3593.259     2246.141     1044.202        3.646        0.344      256.513       21.843        0.007      344.002       20.508      856.130
09/18/2014  02:49:00     -228.381     -100.425       -7.323      103.947       86.908       43.156    10804.970     7552.981     1862.433        4.125        1.011      249.486       20.968        0.007      344.029       20.556      856.087
09/18/2014  02:50:00     -368.774      -68.295       -2.967      154.675      121.817       49.554    23924.448    14839.355     2455.605        9.094        2.061      375.045       61.095        0.027      344.039       20.571      856.098
09/18/2014  02:51:00     -399.427     -182.943      -22.083      110.410       87.880       54.121    12190.264     7722.860     2929.118       10.817        1.142      439.329       51.824        0.014      344.003       20.510      856.096
09/18/2014  02:52:00     -329.549      -79.856      -18.548      133.419       95.723       70.480    17800.612     9162.987     4967.441        7.362        1.597      339.086       60.676        0.032      343.953       20.423      856.113
09/18/2014  02:53:00     -313.054      -86.025      -19.249       98.705      102.699       55.603     9742.742    10547.172     3091.703        6.457        1.169      324.659       53.174        0.027      343.888       20.313      856.053
09/18/2014  02:54:00     -417.043     -109.922      -26.593      162.801      157.777       83.057    26504.259    24893.620     6898.516       12.249        2.915      431.286       42.506        0.010      343.923       20.374      855.997
09/18/2014  02:55:00     -437.210      -94.998      -23.283      187.941      157.277       77.177    35321.834    24736.130     5956.310       13.335        3.301      447.412       79.896        0.032      343.930       20.384      855.961
09/18/2014  02:56:00     -375.419     -122.933        7.916      211.255      156.445       75.970    44628.663    24475.023     5771.368       11.548        3.744      395.034       75.274        0.036      344.140       20.745      855.963
09/18/2014  02:57:00     -369.160       29.170       -2.437      170.943      147.543       76.617    29221.509    21768.895     5870.241        9.699        2.843      370.311       88.090        0.057      344.079       20.639      855.997
09/18/2014  02:58:00     -242.477       -0.744      -16.687      130.448       96.383       60.152    17016.732     9289.612     3618.321        4.449        1.496      242.479       67.411        0.077      344.014       20.530      856.024
09/18/2014  02:59:00     -344.948      -35.921       -7.838      163.823      133.340       67.739    26838.063    17779.614     4588.605        8.476        2.460      346.813       72.519        0.044      344.046       20.585      855.990
09/18/2014  03:00:00     -449.762      -31.794      -16.933      176.887      123.428       73.404    31289.006    15234.361     5388.108       12.774        2.596      450.884       79.120        0.031      344.218       20.877      856.010
09/18/2014  03:01:00     -460.172      -68.043       -6.833      189.971      172.493       86.963    36088.909    29753.934     7562.603       14.491        3.670      465.175       96.759        0.043      344.007       20.517      856.028
09/18/2014  03:02:00     -373.827      -29.870      -10.317      166.061      115.529       71.550    27576.230    13346.861     5119.453        9.338        2.302      375.019       78.631        0.044      343.917       20.364      856.053
09/18/2014  03:03:00     -511.135      -63.771      -39.907      204.990      174.022       96.112    42021.039    30283.610     9237.443       17.421        4.077      515.098      110.024        0.046      343.916       20.360      855.983
09/18/2014  03:04:00     -415.847      -56.163      -19.740      216.370      184.301       90.998    46815.902    33966.811     8280.705       13.275        4.453      419.623       92.541        0.049      343.915       20.362      856.006
09/18/2014  03:05:00     -398.561     -142.784      -19.060      159.599      156.792       78.911    25471.993    24583.845     6226.926       11.793        2.814      423.365       82.304        0.038      343.952       20.423      856.025
09/18/2014  03:06:00     -374.825     -162.785      -10.324      227.970      179.484       94.508    51970.282    32214.411     8931.797       13.009        4.656      408.647      106.509        0.068      343.882       20.305      856.039
09/18/2014  03:07:00     -460.509      -81.635      -40.850      103.190       90.225       57.149    10648.185     8140.621     3266.040       12.122        1.103      467.689       56.847        0.015      343.907       20.347      856.021
09/18/2014  03:08:00     -292.459      -64.946      -14.214      138.100       86.243       55.102    19071.589     7437.905     3036.210        5.974        1.477      299.584       50.846        0.029      343.865       20.275      855.978
09/18/2014  03:09:00     -444.756     -110.903      -25.815      159.274      137.374       72.492    25368.111    18871.610     5255.136       13.012        2.475      458.375       76.923        0.028      343.852       20.253      855.951
09/18/2014  03:10:00     -343.900     -144.575      -19.796      132.314      107.318       72.715    17507.117    11517.161     5287.470        8.693        1.716      373.054       71.458        0.037      343.839       20.230      855.971
09/18/2014  03:11:00     -392.179      -29.847      -17.004      154.910      149.728       71.979    23997.235    22418.546     5180.909       10.328        2.580      393.313       71.969        0.033      343.786       20.141      855.977
09/18/2014  03:12:00     -450.937       20.374      -39.795      208.802      142.058       67.848    43598.473    20180.569     4603.403       13.685        3.419      451.397       58.629        0.017      343.778       20.125      855.947
09/18/2014  03:13:00     -333.839      -48.912      -12.113      152.058      166.015       64.208    23121.744    27560.883     4122.620        8.439        2.740      337.404       67.972        0.041      343.761       20.098      855.963
09/18/2014  03:14:00     -309.315      -78.490      -14.504      150.489      132.254       80.507    22646.998    17491.071     6481.454        7.432        2.331      319.119       74.284        0.054      343.769       20.110      855.948
09/18/2014  03:15:00     -421.215      -46.461      -32.681      175.399      119.599       72.723    30764.766    14303.917     5288.679       11.549        2.518      423.769       74.794        0.031      343.780       20.129      855.936
09/18/2014  03:16:00     -576.472      -95.019      -16.349      209.379      182.440       89.939    43839.716    33284.329     8089.000       21.340        4.261      584.251      100.270        0.029      343.866       20.275      855.893
09/18/2014  03:17:00     -395.957     -119.447       11.281      228.514      170.248       87.988    52218.431    28984.446     7741.936       13.004        4.447      413.582      100.238        0.059      343.873       20.289      855.987
09/18/2014  03:18:00     -267.651     -126.819       10.768      190.773      133.293       78.224    36394.185    17767.119     6119.005        7.405        3.014      296.176       66.293        0.050      343.841       20.234      856.039
09/18/2014  03:19:00     -324.719     -174.026       12.532      184.571      128.835       92.537    34066.428    16598.562     8563.128        9.754        2.961      368.412       98.890        0.072      343.808       20.178      856.028
09/18/2014  03:20:00     -320.524     -145.261      -14.089      147.170      115.939       65.251    21659.127    13441.779     4257.662        8.169        1.968      351.904       58.228        0.027      343.790       20.146      856.013
09/18/2014  03:21:00     -403.252      -67.573      -17.544      155.655      136.475       73.375    24228.463    18625.409     5383.944       10.785        2.412      408.874       67.589        0.027      343.775       20.121      855.970
09/18/2014  03:22:00     -316.077     -109.095      -10.202      126.012      133.373       63.697    15878.965    17788.244     4057.298        7.481        1.886      334.375       52.572        0.025      343.751       20.079      855.951
09/18/2014  03:23:00     -314.151      -41.923      -13.132      157.640       95.530       57.328    24850.275     9125.992     3286.470        6.893        1.863      316.936       61.636        0.038      343.731       20.046      855.938
09/18/2014  03:24:00     -358.796      -99.225      -23.382      149.249      125.784       69.805    22275.139    15821.634     4872.801        9.104        2.148      372.263       69.565        0.035      343.706       20.003      855.887
09/18/2014  03:25:00     -388.915      -84.845      -27.155      157.089      122.837       68.999    24676.878    15089.039     4760.918       10.185        2.226      398.062       61.329        0.024      343.802       20.168      855.855
09/18/2014  03:26:00     -303.010     -137.808      -16.250      247.723      171.114      105.719    61366.871    29279.872    11176.489       10.643        5.091      332.876      125.955        0.143      343.782       20.133      855.862
09/18/2014  03:27:00     -340.059     -163.617       -1.853      168.350      127.852       84.938    28341.641    16346.044     7214.443        9.715        2.595      377.373       84.067        0.050      343.850       20.248      855.869
09/18/2014  03:28:00     -295.678      -59.367      -16.642      164.961      100.305       62.913    27212.173    10061.028     3958.003        6.622        2.062      301.579       75.814        0.063      343.755       20.086      855.883
09/18/2014  03:29:00     -201.531     -109.104        6.260      113.042      108.090       58.247    12778.548    11683.416     3392.752        4.020        1.393      229.169       63.688        0.077      343.754       20.085      855.885
09/18/2014  03:30:00     -359.872     -113.868        1.939      183.816      101.682       62.775    33788.472    10339.312     3940.743        9.526        2.403      377.457       75.198        0.040      343.743       20.066      855.855
09/18/2014  03:31:00     -273.312     -153.664        0.593      190.847      117.740       76.785    36422.546    13862.597     5896.008        7.724        2.809      313.548       84.308        0.072      343.775       20.122      855.867
09/18/2014  03:32:00      -84.788      -15.147       31.915      108.105       88.061       68.185    11686.731     7754.682     4649.208        1.626        1.205       86.131       64.832        0.567      343.716       20.021      855.888
09/18/2014  03:33:00     -153.975       -2.952        9.440      103.608       74.784       52.525    10734.602     5592.617     2758.880        2.144        0.954      154.004       51.335        0.111      343.686       19.972      855.888
09/18/2014  03:34:00     -212.184      -62.297       -1.001      117.570       92.075       53.382    13822.744     8477.870     2849.662        3.702        1.258      221.140       47.129        0.045      343.686       19.969      855.864
09/18/2014  03:35:00     -323.777      -30.894      -22.593      100.515       79.501       50.214    10103.322     6320.394     2521.425        6.262        0.947      325.247       45.077        0.019      343.717       20.019      855.839
09/18/2014  03:36:00     -305.023      -65.275      -12.385      141.471      118.347       67.019    20013.949    14006.106     4491.483        6.797        1.926      311.929       73.801        0.056      343.733       20.049      855.845
09/18/2014  03:37:00     -197.957      -95.203        7.141      170.831      123.918       77.477    29183.173    15355.764     6002.710        4.941        2.527      219.660       74.107        0.114      343.733       20.051      855.857
09/18/2014  03:38:00     -365.660     -157.450       -7.141      175.077      117.650       73.757    30652.092    13841.595     5440.098       10.423        2.497      398.118       81.917        0.042      343.788       20.143      855.872
09/18/2014  03:39:00     -339.268      -98.801      -18.951      199.144      129.764       75.931    39658.312    16838.598     5765.530        9.373        3.113      353.362       84.864        0.058      343.772       20.117      855.873
09/18/2014  03:40:00     -315.615     -207.493      -14.436      128.650      113.458       69.892    16550.827    12872.739     4884.960        8.858        1.715      377.712       62.062        0.027      343.797       20.158      855.900
09/18/2014  03:41:00     -392.044     -101.238       -8.678      215.436      175.663       75.262    46412.810    30857.562     5664.343       12.346        4.147      404.904       81.407        0.040      343.773       20.118      855.907
09/18/2014  03:42:00     -342.191     -152.951       -2.439      196.148      131.102       83.297    38473.959    17187.761     6938.406       10.153        3.130      374.818       97.410        0.068      343.746       20.071      855.904
09/18/2014  03:43:00     -279.823     -133.734       -8.054      160.595       97.297       66.024    25790.800     9466.788     4359.172        6.793        1.981      310.138       74.645        0.058      343.735       20.053      855.929
09/18/2014  03:44:00     -254.014     -166.843       -2.154      146.586      103.909       68.158    21487.338    10797.109     4645.488        6.464        1.846      303.907       81.967        0.073      343.704       19.998      855.944
09/18/2014  03:45:00     -208.036     -109.532        1.802      140.106      123.885       57.972    19629.644    15347.463     3360.710        4.680        1.917      235.109       60.051        0.065      343.650       19.908      855.927
09/18/2014  03:46:00     -297.553     -149.512       -8.390      182.568      132.311       79.444    33330.946    17506.206     6311.390        8.404        2.857      333.004       94.329        0.080      343.688       19.972      855.918
09/18/2014  03:47:00     -389.715     -195.375      -10.597      175.951      127.353       65.946    30958.637    16218.856     4348.846       12.083        2.576      435.946       72.300        0.028      343.686       19.969      855.913
09/18/2014  03:48:00     -324.645      -95.199      -16.237      197.329      141.564       79.632    38938.785    20040.344     6341.189        9.001        3.266      338.316       76.768        0.051      343.736       20.054      855.892
09/18/2014  03:49:00     -355.988     -112.920      -16.171      142.445      170.528       61.406    20290.618    29079.861     3770.682        9.643        2.657      373.468       58.115        0.024      343.680       19.958      855.890
09/18/2014  03:50:00     -271.191      -24.165      -23.102      124.911       92.707       52.530    15602.851     8594.633     2759.400        5.080        1.348      272.266       41.247        0.023      343.650       19.907      855.893
09/18/2014  03:51:00     -321.674     -126.316       -8.832      157.193      137.385       58.252    24709.672    18874.764     3393.347        8.323        2.349      345.586       52.652        0.023      343.660       19.922      855.906
09/18/2014  03:52:00     -142.077      -77.017        5.209       93.725       96.947       55.098     8784.436     9398.758     3035.839        2.368        1.061      161.610       52.294        0.105      343.626       19.868      855.923
09/18/2014  03:53:00     -306.053     -166.955      -11.721      124.528      117.513       63.719    15507.202    13809.383     4060.119        7.752        1.669      348.629       61.518        0.031      343.699       19.990      855.913
09/18/2014  03:54:00     -318.035      -56.600      -24.840      140.554      139.829       67.228    19755.454    19552.050     4519.626        7.439        2.191      323.033       65.515        0.041      343.678       19.954      855.882
09/18/2014  03:55:00     -324.473      -14.163        6.550      134.297      111.036       65.390    18035.752    12329.055     4275.793        7.008        1.732      324.782       62.699        0.037      343.634       19.879      855.883
09/18/2014  03:56:00     -286.640      -56.057       -4.446      130.071      140.701       69.617    16918.415    19796.683     4846.593        6.343        2.078      292.069       53.224        0.033      343.657       19.918      855.885
09/18/2014  03:57:00     -213.744      -89.816       11.164      133.003      116.590       69.645    17689.699    13593.326     4850.411        4.500        1.807      231.848       82.347        0.126      343.612       19.844      855.881
09/18/2014  03:58:00     -212.923      -49.163       -8.227      132.789       94.947       58.605    17632.982     9014.891     3434.602        3.895        1.504      218.525       59.312        0.074      343.637       19.884      855.899
09/18/2014  03:59:00     -162.723      -79.154       -6.107      155.661      111.986       53.732    24230.230    12540.973     2887.147        3.621        1.983      180.953       32.599        0.032      343.609       19.839      855.880
09/18/2014  04:00:00     -228.573      -31.220       -1.500      128.176      100.192       64.140    16429.046    10038.469     4113.963        4.190        1.529      230.695       60.616        0.069      343.585       19.797      855.890
09/18/2014  04:01:00     -270.768      -43.246      -18.333      127.310      123.921       56.981    16207.762    15356.407     3246.857        5.516        1.741      274.200       58.227        0.045      343.598       19.818      855.888
09/18/2014  04:02:00     -198.542     -108.084       -1.146      132.746      127.504       73.560    17621.546    16257.344     5411.134        4.519        1.965      226.056       78.702        0.121      343.598       19.820      855.862
09/18/2014  04:03:00     -269.652      -25.998      -12.969      130.502       96.857       56.291    17030.648     9381.247     3168.709        5.156        1.479      270.902       58.553        0.047      343.618       19.853      855.845
09/18/2014  04:04:00     -182.390      -93.988      -10.312      124.906       90.397       52.434    15601.569     8171.559     2749.375        3.436        1.326      205.183       48.133        0.055      343.688       19.973      855.833
09/18/2014  04:05:00     -209.761      -85.251      -19.611      122.397      101.105       57.377    14981.089    10222.175     3292.123        4.007        1.425      226.423       61.292        0.073      343.728       20.041      855.859
09/18/2014  04:06:00     -310.818     -180.540      -18.012      124.392       87.417       56.537    15473.418     7641.696     3196.441        7.791        1.316      359.447       61.584        0.029      343.770       20.111      855.856
09/18/2014  04:07:00     -311.500     -115.200       -2.920      156.257      104.410       61.057    24416.312    10901.422     3727.915        7.467        1.952      332.119       72.888        0.048      343.753       20.083      855.852
09/18/2014  04:08:00     -294.262     -155.367        3.615      148.400      101.051       69.110    22022.417    10211.238     4776.200        7.387        1.850      332.759       73.269        0.048      343.719       20.024      855.831
09/18/2014  04:09:00     -218.549     -183.225       -4.978       92.977       93.742       62.392     8644.695     8787.634     3892.813        5.134        1.066      285.193       50.010        0.031      343.729       20.041      855.846
09/18/2014  04:10:00     -142.531      -69.545        3.806       84.076       81.569       40.437     7068.797     6653.426     1635.128        2.026        0.768      158.593       41.400        0.068      343.675       19.952      855.857
09/18/2014  04:11:00     -117.548      -72.237        0.171      103.866       70.911       45.211    10788.126     5028.326     2043.996        1.844        0.893      137.970       52.036        0.142      343.663       19.931      855.895
09/18/2014  04:12:00     -232.673     -129.119      -14.306       76.093       62.668       41.222     5790.214     3927.280     1699.287        4.121        0.571      266.099       36.719        0.019      343.742       20.063      855.918
09/18/2014  04:13:00     -142.052      -74.085       -0.605      119.836       94.428       56.519    14360.684     8916.731     3194.378        2.606        1.324      160.211       67.896        0.180      343.717       20.023      855.924
09/18/2014  04:14:00     -222.285     -126.254       -5.160      146.957      122.920       63.189    21596.347    15109.254     3992.888        5.303        2.035      255.637       71.353        0.078      343.712       20.014      855.923
09/18/2014  04:15:00     -302.095      -40.540       -7.848      157.204      111.722       58.734    24713.173    12481.814     3449.720        6.680        2.032      304.803       64.514        0.045      343.643       19.895      855.920
09/18/2014  04:16:00     -142.707      -90.612        7.784      133.964      103.519       72.321    17946.313    10716.252     5230.267        3.126        1.695      169.044       71.212        0.177      343.672       19.945      855.933
09/18/2014  04:17:00     -216.984     -133.937      -11.139      100.597      103.426       50.232    10119.709    10697.005     2523.235        4.424        1.167      254.992       50.546        0.039      343.672       19.944      855.963
09/18/2014  04:18:00     -193.550      -83.462        6.058      108.518       80.353       55.103    11776.246     6456.560     3036.349        3.286        1.063      210.779       52.941        0.063      343.641       19.892      855.985
09/18/2014  04:19:00     -164.169      -76.289       -3.192       82.157       66.642       48.042     6749.706     4441.210     2308.012        2.314        0.675      181.029       35.786        0.039      343.614       19.848      856.002
09/18/2014  04:20:00     -210.269      -77.525       -8.392       94.910       66.938       41.617     9007.828     4480.714     1731.961        3.275        0.761      224.106       40.300        0.032      343.630       19.874      855.970
09/18/2014  04:21:00     -299.032      -92.856        3.097      138.050      126.213       71.457    19057.803    15929.620     5106.145        6.906        2.005      313.117       77.503        0.061      343.631       19.876      855.939
09/18/2014  04:22:00      -94.685      -83.390        5.503       98.899       88.266       55.007     9780.935     7790.902     3025.803        1.827        1.030      126.171       52.984        0.176      343.583       19.796      855.948
09/18/2014  04:23:00     -244.058     -140.007       -8.710      130.286       96.965       51.994    16974.517     9402.289     2703.428        5.416        1.454      281.365       51.750        0.034      343.619       19.854      855.981
09/18/2014  04:24:00     -280.067     -101.166      -17.380       89.274      105.975       47.597     7969.862    11230.722     2265.438        5.522        1.073      297.779       43.935        0.022      343.666       19.933      856.011
09/18/2014  04:25:00     -198.734      -59.866       -0.529       98.397       95.463       55.307     9681.898     9113.133     3058.913        3.246        1.093      207.555       46.966        0.051      343.659       19.923      856.002
09/18/2014  04:26:00     -147.865      -92.624        1.250       75.260       90.538       43.545     5664.010     8197.045     1896.144        2.310        0.788      174.480       36.602        0.044      343.639       19.890      855.983
09/18/2014  04:27:00     -153.949      -21.878        3.331       74.938       58.369       33.098     5615.709     3406.940     1095.448        1.715        0.506      155.495       33.582        0.047      343.602       19.826      855.951
09/18/2014  04:28:00     -179.055      -41.809        1.021       91.962       67.075       45.414     8457.085     4498.994     2062.423        2.441        0.751      183.872       49.547        0.073      343.598       19.820      855.933
09/18/2014  04:29:00     -225.976     -102.327       -3.744      149.189       96.500       59.804    22257.329     9312.307     3576.489        4.834        1.757      248.065       71.278        0.083      343.669       19.939      855.928
09/18/2014  04:30:00     -206.593      -94.557       -2.121      106.769      107.986       61.089    11399.627    11660.897     3731.851        3.920        1.340      227.204       56.619        0.062      343.672       19.945      855.898
09/18/2014  04:31:00     -274.438     -139.067       -0.948      134.501      102.439       62.604    18090.489    10493.717     3919.280        6.357        1.625      307.662       53.689        0.030      343.691       19.978      855.895
09/18/2014  04:32:00     -301.507      -91.624      -12.373       87.035       83.425       48.993     7575.136     6959.693     2400.362        5.819        0.847      315.121       46.497        0.022      343.667       19.936      855.860
09/18/2014  04:33:00     -263.588      -59.443       -6.608      100.428       68.870       47.413    10085.805     4743.025     2248.020        4.506        0.854      270.208       46.723        0.030      343.608       19.836      855.862
09/18/2014  04:34:00     -221.075      -50.640       -4.777       73.635       54.800       38.715     5422.091     3003.049     1498.819        3.069        0.496      226.800       39.763        0.031      343.541       19.721      855.902
09/18/2014  04:35:00     -173.576      -90.913       -0.245       67.633       62.080       34.696     4574.229     3853.987     1203.799        2.401        0.482      195.944       37.304        0.036      343.549       19.736      855.930
09/18/2014  04:36:00     -107.220      -94.428        2.672       64.697       37.438       33.845     4185.761     1401.626     1145.480        1.358        0.337      142.873       33.221        0.054      343.575       19.783      855.943
09/18/2014  04:37:00     -165.352      -86.034       -0.157       90.107       50.862       25.581     8119.220     2586.942      654.372        2.305        0.568      186.395       29.823        0.026      343.576       19.784      855.944
09/18/2014  04:38:00     -207.079     -148.352        9.851      129.288       75.943       52.794    16715.260     5767.289     2787.173        4.512        1.263      254.735       65.356        0.066      343.525       19.695      855.947
09/18/2014  04:39:00     -113.038      -83.857        0.385       73.499       50.168       38.029     5402.037     2516.807     1446.215        1.459        0.468      140.747       38.319        0.074      343.528       19.701      855.947
09/18/2014  04:40:00      -56.993      -47.558       -1.901       58.588       36.895       22.324     3432.582     1361.230      498.350        0.540        0.265       74.230       22.838        0.095      343.499       19.654      855.946
09/18/2014  04:41:00      -83.801      -33.821        0.446       72.443       55.754       27.371     5247.966     3108.501      749.154        0.863        0.455       90.369       33.523        0.138      343.525       19.699      855.953
09/18/2014  04:42:00     -110.846      -48.434        3.878       69.548       50.555       28.589     4836.976     2555.840      817.309        1.143        0.411      120.966       32.418        0.072      343.505       19.662      855.953
09/18/2014  04:43:00     -218.557      -44.725       -4.787       64.991       66.993       39.192     4223.817     4488.004     1536.047        3.002        0.512      223.087       40.041        0.032      343.515       19.676      855.967
09/18/2014  04:44:00     -159.029      -55.092        7.529       80.005       77.885       48.232     6400.830     6066.054     2326.300        2.158        0.740      168.302       40.804        0.059      343.561       19.758      855.976
09/18/2014  04:45:00     -171.811      -45.994        2.984      109.962      105.457       44.279    12091.593    11121.269     1960.626        2.840        1.259      177.861       47.964        0.073      343.643       19.898      855.950
09/18/2014  04:46:00     -156.170      -48.021       -1.182       64.648       57.278       32.751     4179.309     3280.786     1072.612        1.761        0.427      163.386       31.900        0.038      343.472       19.606      855.963
09/18/2014  04:47:00     -237.655     -103.126      -11.362      102.601       92.139       55.672    10526.866     8489.536     3099.317        4.468        1.106      259.065       50.864        0.039      343.601       19.824      855.994
09/18/2014  04:48:00     -220.200     -111.062       -7.386      113.092       78.776       51.364    12789.785     6205.686     2638.306        4.125        1.082      246.622       54.714        0.049      343.631       19.877      856.050
09/18/2014  04:49:00     -170.799      -81.124        2.498      124.381       92.956       52.349    15470.674     8640.793     2740.456        3.130        1.343      189.086       56.092        0.088      343.660       19.926      856.066
09/18/2014  04:50:00     -263.540      -68.573       -0.072       99.485       86.549       49.579     9897.311     7490.725     2458.041        4.700        0.992      272.315       46.656        0.029      343.699       19.990      856.056
09/18/2014  04:51:00     -254.604      -60.399       -6.318      151.917      108.222       59.522    23078.640    11711.933     3542.884        5.341        1.917      261.670       72.731        0.077      343.691       19.977      856.028
09/18/2014  04:52:00     -139.735       -2.179       -6.530       95.827      102.079       52.081     9182.738    10420.121     2712.459        2.094        1.116      139.752       43.151        0.095      343.631       19.877      856.027
09/18/2014  04:53:00      -95.185      -14.319        1.582       56.537       42.795       29.974     3196.437     1831.395      898.451        0.760        0.296       96.256       26.344        0.075      343.568       19.771      856.043
09/18/2014  04:54:00      -41.896      -34.390       22.093       58.848       56.852       37.892     3463.128     3232.133     1435.774        0.578        0.407       54.203       39.231        0.524      343.577       19.786      856.075
09/18/2014  04:55:00     -148.656     -134.527        8.221      108.591       89.613       52.077    11791.946     8030.468     2712.017        3.139        1.127      200.489       47.323        0.056      343.680       19.958      856.141
09/18/2014  04:56:00     -199.054     -120.988       -2.173       70.738       55.044       36.817     5003.928     3029.798     1355.486        3.183        0.469      232.939       32.060        0.019      343.697       19.987      856.202
09/18/2014  04:57:00      -98.442     -102.973       -9.558       78.383       57.182       32.024     6143.972     3269.783     1025.561        1.541        0.522      142.458       20.470        0.021      343.721       20.032      856.235
09/18/2014  04:58:00     -107.731     -116.941       -3.658       47.638       70.934       36.433     2269.383     5031.563     1327.341        1.696        0.431      159.000       20.822        0.017      343.803       20.171      856.234
09/18/2014  04:59:00      -73.435      -75.900       -3.203       49.781       41.556       26.394     2478.159     1726.916      696.640        0.803        0.245      105.610       24.135        0.052      343.760       20.100      856.220
09/18/2014  05:00:00      -92.789      -51.955       -2.537       61.904       39.730       28.633     3832.144     1578.489      819.829        0.877        0.312      106.344       30.798        0.084      343.754       20.088      856.197
09/18/2014  05:01:00      -91.640      -50.019        0.147       49.305       40.151       20.661     2430.948     1612.086      426.861        0.768        0.223      104.402       17.983        0.030      343.698       19.993      856.183
09/18/2014  05:02:00     -103.509      -70.719       -3.231       55.377       40.163       33.396     3066.666     1613.053     1115.281        1.076        0.290      125.361       19.268        0.024      343.690       19.979      856.188
09/18/2014  05:03:00     -128.638     -125.312       -2.104       47.854       59.640       28.603     2290.049     3556.946      818.139        1.946        0.333      179.585       28.685        0.026      343.785       20.140      856.169
09/18/2014  05:04:00     -100.867      -34.045       -5.893       41.729       26.936       19.788     1741.321      725.534      391.553        0.711        0.143      106.458       21.782        0.042      343.747       20.076      856.142
09/18/2014  05:05:00      -90.252      -16.826       -4.284       42.272       25.354       21.557     1786.887      642.802      464.690        0.567        0.145       91.807       20.083        0.048      343.661       19.930      856.127
09/18/2014  05:06:00      -75.729      -25.878       16.076       58.889       37.694       25.763     3467.873     1420.869      663.709        0.611        0.278       80.029       31.243        0.152      343.593       19.813      856.131
09/18/2014  05:07:00     -107.406      -55.758       -1.551       65.800       42.196       32.561     4329.647     1780.478     1060.241        1.091        0.359      121.017       27.460        0.051      343.759       20.095      856.181
09/18/2014  05:08:00     -188.728     -140.037        0.235      101.732       72.014       43.846    10349.442     5185.972     1922.505        3.634        0.873      235.007       37.539        0.026      343.760       20.095      856.207
09/18/2014  05:09:00     -212.965     -155.028       -1.240      140.668       97.890       55.180    19787.354     9582.375     3044.848        5.090        1.621      263.416       63.152        0.057      343.743       20.067      856.205
09/18/2014  05:10:00     -175.757      -84.479        0.520       85.606       56.471       35.834     7328.383     3188.989     1284.070        2.491        0.590      195.005       38.952        0.040      343.769       20.112      856.181
09/18/2014  05:11:00     -117.701     -132.438        4.107       61.003       68.147       33.230     3721.348     4643.979     1104.249        2.044        0.473      177.182       31.582        0.032      343.777       20.127      856.162
09/18/2014  05:12:00     -120.537      -49.714       10.346       61.193       50.300       28.279     3744.607     2530.090      799.676        1.209        0.354      130.386       30.681        0.055      343.670       19.943      856.174
09/18/2014  05:13:00     -111.786      -85.184        0.107       68.027       47.422       37.261     4627.677     2248.834     1388.398        1.401        0.413      140.543       40.476        0.083      343.789       20.148      856.178
09/18/2014  05:14:00      -44.317      -87.948        2.618       32.767       39.313       23.278     1073.703     1545.530      541.848        0.643        0.158       98.483       18.582        0.036      343.817       20.195      856.173
09/18/2014  05:15:00      -76.941      -42.783       -2.666       48.954       31.993       21.241     2396.451     1023.574      451.193        0.581        0.194       88.036       25.466        0.084      343.784       20.140      856.163
09/18/2014  05:16:00     -118.411      -94.962       -1.242       63.209       59.855       24.177     3995.427     3582.564      584.520        1.560        0.408      151.786       22.717        0.022      343.766       20.108      856.138
09/18/2014  05:17:00     -147.101     -120.418       -5.414       86.087       67.826       33.223     7411.026     4600.385     1103.787        2.464        0.656      190.103       40.218        0.045      343.783       20.136      856.142
09/18/2014  05:18:00      -22.329      -85.819       -4.388       72.192       48.840       34.897     5211.691     2385.317     1217.812        0.835        0.441       88.676       26.268        0.088      343.599       19.824      856.164
09/18/2014  05:19:00      -24.575      -62.854       -9.944       38.765       35.804       22.221     1502.761     1281.952      493.767        0.397        0.164       67.488       17.563        0.068      343.570       19.775      856.192
09/18/2014  05:20:00        5.129      -37.300       13.624       32.144       40.091       36.955     1033.268     1607.275     1365.651        0.280        0.200       37.651       23.682        0.396      343.518       19.686      856.175
09/18/2014  05:21:00       -2.135       -4.356       12.664       20.055       18.081       18.066      402.207      326.930      326.392        0.062        0.053        4.851       14.343        8.742      343.445       19.560      856.141
09/18/2014  05:22:00       48.229      -63.149        7.789       35.908       26.567       27.752     1289.420      705.830      770.169        0.457        0.138       79.459       27.703        0.122      343.566       19.768      856.170
09/18/2014  05:23:00       15.602       -1.456       28.077       28.116       37.164       24.823      790.511     1381.149      616.187        0.191        0.139       15.670       27.090        2.989      343.441       19.553      856.233
09/18/2014  05:24:00      -11.619       18.555       25.765       13.336       33.373       22.785      177.862     1113.750      519.177        0.148        0.091       21.893       20.692        0.893      343.393       19.473      856.259
09/18/2014  05:25:00       -8.670       11.473        8.822       22.279       21.294       14.674      496.340      453.442      215.312        0.072        0.058       14.380       16.367        1.295      343.386       19.461      856.228
09/18/2014  05:26:00       18.494       52.171       11.859       16.656       21.338       18.203      277.414      455.320      331.363        0.213        0.053       55.352       15.668        0.080      343.300       19.315      856.160
09/18/2014  05:27:00        6.332       49.522        2.541       21.085       20.799       16.957      444.584      432.605      287.526        0.183        0.058       49.925       13.276        0.071      343.263       19.251      856.129
09/18/2014  05:28:00      -18.413       50.715      -10.429       17.490       15.805       11.445      305.902      249.783      130.999        0.185        0.034       53.955        8.453        0.025      343.333       19.371      856.139
09/18/2014  05:29:00      -88.223       12.354      -10.329       40.027       26.331       16.183     1602.144      693.316      261.901        0.530        0.128       89.083       18.576        0.043      343.158       19.072      856.170
09/18/2014  05:30:00      -80.702      -50.484        0.129       39.121       26.835       21.912     1530.430      720.141      480.138        0.590        0.137       95.192       20.630        0.047      343.008       18.818      856.191
09/18/2014  05:31:00     -123.334      -70.718       -0.360       78.022       35.061       22.807     6087.408     1229.250      520.177        1.402        0.392      142.171       30.462        0.046      343.272       19.267      856.223
09/18/2014  05:32:00      -98.633      -24.838        3.399       57.160       41.818       27.513     3267.252     1748.706      756.962        0.806        0.289      101.712       32.452        0.102      343.300       19.315      856.233
09/18/2014  05:33:00        7.991       15.313       11.403       19.418       15.869       16.487      377.075      251.837      271.834        0.066        0.045       17.273        9.676        0.314      343.042       18.876      856.190
09/18/2014  05:34:00       49.476       26.240       -7.332       47.234       34.772       28.630     2231.043     1209.111      819.657        0.372        0.213       56.003       25.363        0.205      343.002       18.807      856.186
09/18/2014  05:35:00      104.843       45.671       19.780       35.464       24.697       26.663     1257.708      609.928      710.919        0.802        0.129      114.359       13.476        0.014      342.801       18.463      856.231
09/18/2014  05:36:00      101.499       49.142       22.843       51.117       34.417       33.521     2612.950     1184.522     1123.688        0.908        0.246      112.770       25.178        0.050      342.804       18.470      856.274
09/18/2014  05:37:00       85.027       55.761       32.985       45.131       24.090       26.150     2036.773      580.306      683.841        0.736        0.165      101.680       20.810        0.042      342.797       18.459      856.288
09/18/2014  05:38:00       79.825       58.104       29.307       32.618       26.916       27.905     1063.952      724.473      778.701        0.659        0.128       98.733       15.278        0.024      342.696       18.286      856.256
09/18/2014  05:39:00       40.833       68.160       -1.449       36.653       39.847       29.425     1343.447     1587.758      865.828        0.506        0.190       79.455       28.759        0.131      342.609       18.140      856.207
09/18/2014  05:40:00       61.957       40.522        3.881       48.129       29.532       22.390     2316.425      872.140      501.306        0.459        0.184       74.032       17.736        0.057      342.571       18.074      856.196
09/18/2014  05:41:00       49.308       25.431        3.416       27.472       23.471       19.762      754.696      550.865      390.537        0.239        0.085       55.480       11.690        0.044      342.577       18.084      856.215
09/18/2014  05:42:00       61.214       16.568        0.269       35.148       15.196       12.266     1235.365      230.910      150.453        0.282        0.081       63.417       10.057        0.025      342.603       18.128      856.238
09/18/2014  05:43:00       28.959       23.726        7.204       14.993       14.499       12.409      224.785      210.221      153.971        0.102        0.029       37.438        6.235        0.028      342.559       18.051      856.252
09/18/2014  05:44:00       -3.508       24.783        1.088       10.663        8.750        6.302      113.709       76.566       39.715        0.043        0.011       25.030        4.199        0.028      342.582       18.092      856.271
09/18/2014  05:45:00      -25.290       16.285       -2.492        9.349        9.648        6.220       87.409       93.082       38.694        0.057        0.011       30.080        4.159        0.019      342.570       18.070      856.281
09/18/2014  05:46:00      -29.574       44.754       -9.371        7.807       14.060        9.237       60.954      197.679       85.325        0.165        0.017       53.643        8.274        0.024      342.659       18.225      856.270
09/18/2014  05:47:00        6.508       32.067       -5.172       13.579       18.683        8.316      184.395      349.054       69.150        0.085        0.030       32.721       11.871        0.132      342.954       18.726      856.249
09/18/2014  05:48:00       -3.990       27.916       -0.647        7.457       11.724        6.280       55.611      137.442       39.435        0.051        0.012       28.199        5.759        0.042      342.938       18.699      856.254
09/18/2014  05:49:00        9.931        1.226       -1.787       16.730        6.361        7.415      279.891       40.459       54.987        0.024        0.019       10.006        4.823        0.232      342.825       18.508      856.253
09/18/2014  05:50:00       13.753       15.615       13.362       14.327       15.223       11.033      205.252      231.751      121.717        0.059        0.028       20.808        7.072        0.115      342.656       18.218      856.249
09/18/2014  05:51:00       61.079       44.183       28.837       38.880       25.266       26.678     1511.642      638.354      711.732        0.469        0.143       75.384       15.131        0.040      342.430       17.832      856.266
09/18/2014  05:52:00      123.488       62.129        6.057       26.021       14.603       17.430      677.071      213.240      303.803        1.017        0.060      138.236       11.889        0.007      342.426       17.826      856.265
09/18/2014  05:53:00       54.781       40.380        3.950       32.857       27.392       20.139     1079.585      750.322      405.573        0.344        0.112       68.055       16.448        0.058      342.382       17.752      856.264
09/18/2014  05:54:00       45.446       38.415        4.004       41.275       30.701       28.753     1703.615      942.530      826.758        0.351        0.174       59.507       14.908        0.063      342.337       17.677      856.282
09/18/2014  05:55:00       64.570       56.025       11.514       40.918       18.685       28.140     1674.297      349.126      791.887        0.513        0.141       85.488       24.147        0.080      342.435       17.842      856.301
09/18/2014  05:56:00       34.314       57.931       -9.014       22.165       28.402       20.016      491.289      806.685      400.658        0.316        0.085       67.330       17.935        0.071      342.425       17.827      856.308
09/18/2014  05:57:00       23.897       77.837      -16.104       16.304       30.512       16.377      265.835      930.979      268.191        0.418        0.073       81.423       13.932        0.029      342.432       17.836      856.309
09/18/2014  05:58:00       32.162       67.905      -10.449       18.479       31.000       16.593      341.470      960.981      275.330        0.367        0.079       75.136       17.172        0.052      342.394       17.773      856.320
09/18/2014  05:59:00       35.421       20.399       -4.344       16.827       21.049       15.488      283.141      443.049      239.872        0.133        0.048       40.875       13.807        0.114      342.348       17.695      856.354
09/18/2014  06:00:00       -1.228        2.987        3.020       19.381       21.309       11.711      375.634      454.061      137.158        0.049        0.048        3.229        6.456        3.996      342.436       17.843      856.380
09/18/2014  06:01:00       11.298       50.282        6.433       16.739       17.278       18.720      280.203      298.518      350.451        0.181        0.046       51.536       10.702        0.043      342.511       17.972      856.343
09/18/2014  06:02:00       -4.016       61.324      -19.393       11.184       18.327       12.542      125.074      335.869      157.290        0.239        0.031       61.455        7.560        0.015      342.674       18.249      856.307
09/18/2014  06:03:00        0.723       79.735        0.103       16.432       29.453       19.018      270.014      867.505      361.700        0.393        0.075       79.738       15.586        0.038      342.523       17.993      856.287
09/18/2014  06:04:00       19.315      124.972      -20.165       26.236       35.214       17.384      688.330     1240.029      302.209        0.931        0.112      126.456       17.137        0.018      342.453       17.873      856.295
09/18/2014  06:05:00       40.922       15.706        5.420       31.170       35.325       24.440      971.577     1247.840      597.301        0.238        0.141       43.833       14.980        0.117      342.282       17.582      856.315
09/18/2014  06:06:00       22.017       50.403       39.539       23.588       31.879       27.605      556.379     1016.277      762.043        0.346        0.117       55.002       19.436        0.125      342.224       17.484      856.348
09/18/2014  06:07:00        1.334      -51.115       23.710       38.868       62.101       31.052     1510.688     3856.525      964.217        0.475        0.317       51.133       41.691        0.665      342.391       17.766      856.397
09/18/2014  06:08:00       29.417      -58.337       -1.326       34.369       37.280       17.579     1181.215     1389.820      309.028        0.357        0.144       65.334       21.628        0.110      342.594       18.112      856.434
09/18/2014  06:09:00      -82.309      -16.444       -5.489       45.140       14.246       16.321     2037.629      202.960      266.361        0.479        0.125       83.936       21.621        0.066      342.499       17.952      856.430
09/18/2014  06:10:00      -75.352       -8.179       -5.121       38.020       28.322       19.641     1445.520      802.150      385.754        0.420        0.132       75.795       20.770        0.075      342.586       18.098      856.404
09/18/2014  06:11:00      -68.923       57.996       -2.470       39.087       39.634       22.354     1527.797     1570.860      499.683        0.586        0.180       90.077       21.493        0.057      342.577       18.083      856.382
09/18/2014  06:12:00      -90.622       90.402      -17.080       21.731       20.956       15.793      472.228      439.169      249.419        0.892        0.058      128.003       11.413        0.008      342.604       18.129      856.367
09/18/2014  06:13:00      -49.763       37.834      -14.191       29.282       38.621       14.656      857.412     1491.567      214.804        0.334        0.128       62.512        5.601        0.008      342.695       18.285      856.388
09/18/2014  06:14:00       22.312        3.468        2.269       18.065       19.567       16.350      326.341      382.874      267.327        0.075        0.049       22.580       15.267        0.457      342.608       18.137      856.426
09/18/2014  06:15:00       20.221       21.465       11.112       23.931       25.794       19.568      572.698      665.311      382.925        0.131        0.081       29.489       13.884        0.222      342.544       18.028      856.458
09/18/2014  06:16:00        5.554        8.584       16.232       14.260       18.923       11.898      203.347      358.078      141.560        0.054        0.035       10.224       12.214        1.427      342.369       17.731      856.464
09/18/2014  06:17:00        7.146        5.753        4.887        7.534        8.699        6.695       56.754       75.681       44.828        0.014        0.009        9.174        3.689        0.162      342.356       17.706      856.477
09/18/2014  06:18:00       -1.524       -7.710        4.660       21.000       11.481       11.829      440.999      131.814      139.929        0.040        0.036        7.859       10.919        1.930      342.344       17.688      856.486
09/18/2014  06:19:00      -62.033       10.844      -12.158       21.603       33.417       13.644      466.681     1116.672      186.157        0.294        0.088       62.974       16.445        0.068      342.301       17.616      856.476
09/18/2014  06:20:00     -111.661       58.353      -21.137       28.434       21.769       18.399      808.474      473.897      338.515        0.897        0.081      125.989       17.090        0.018      342.576       18.082      856.431
09/18/2014  06:21:00      -90.469       22.011      -11.943       40.519       40.244       22.502     1641.751     1619.607      506.321        0.629        0.188       93.108       20.387        0.048      342.642       18.194      856.421
09/18/2014  06:22:00     -148.906      -61.233      -11.424       61.553       60.456       27.860     3788.812     3654.937      776.207        1.713        0.411      161.004       21.801        0.018      342.212       17.462      856.443
09/18/2014  06:23:00     -117.072      -43.475       -6.114       75.731       51.161       33.325     5735.160     2617.448     1110.534        1.255        0.473      124.884       36.115        0.084      341.979       17.067      856.496
09/18/2014  06:24:00     -141.360      -37.338       -4.053       72.870       36.202       21.170     5310.039     1310.615      448.165        1.423        0.353      146.208       27.983        0.037      341.924       16.973      856.547
09/18/2014  06:25:00      -43.429       -8.222        0.082       31.656       25.226       17.119     1002.091      636.338      293.044        0.194        0.097       44.201       18.538        0.176      342.128       17.321      856.569
09/18/2014  06:26:00      -51.485       59.377       -6.919       25.359       25.742       18.524      643.072      662.641      343.132        0.394        0.082       78.590       16.865        0.046      342.072       17.226      856.547
09/18/2014  06:27:00     -129.393       97.426      -28.661       32.774       23.411       16.216     1074.147      548.098      262.957        1.447        0.094      161.970       15.762        0.009      342.407       17.794      856.495
09/18/2014  06:28:00     -100.728       84.362      -24.642       30.882       22.938       16.724      953.682      526.147      279.689        0.981        0.088      131.389       12.337        0.009      342.476       17.912      856.500
09/18/2014  06:29:00      -33.001       64.763      -16.125       37.438       26.141       22.471     1401.568      683.329      504.960        0.407        0.129       72.687       16.388        0.051      342.284       17.585      856.566
09/18/2014  06:30:00        7.701       37.022       -7.790       10.984       21.122       12.105      120.659      446.119      146.520        0.110        0.036       37.814        4.034        0.011      342.159       17.374      856.620
09/18/2014  06:31:00      -17.100       70.988      -22.073       27.243       23.897       15.773      742.161      571.054      248.779        0.369        0.078       73.019        9.052        0.015      342.142       17.344      856.618
09/18/2014  06:32:00      -58.509       82.285      -20.371       39.622       14.840       11.245     1569.922      220.214      126.459        0.626        0.096      100.966       10.528        0.011      342.084       17.248      856.566
09/18/2014  06:33:00      -26.788       73.977      -12.258       24.291       28.078       15.582      590.034      788.353      242.805        0.398        0.081       78.678        8.447        0.012      342.073       17.229      856.530
09/18/2014  06:34:00      -58.135       61.026      -21.033       23.085       23.695       15.683      532.916      561.447      245.948        0.444        0.067       84.284        9.423        0.012      342.087       17.251      856.563
09/18/2014  06:35:00      -57.121      -27.813      -10.347       37.925       36.135       24.722     1438.286     1305.750      611.167        0.375        0.168       63.532       17.960        0.080      342.005       17.111      856.634
09/18/2014  06:36:00      -75.824      -46.299       -6.917       23.616       17.350       13.980      557.705      301.014      195.432        0.450        0.053       88.842        8.028        0.008      341.901       16.935      856.659
09/18/2014  06:37:00      -83.993      -14.694      -14.923       24.894       16.847       17.008      619.704      283.811      289.271        0.434        0.060       85.269       14.955        0.031      341.956       17.029      856.646
09/18/2014  06:38:00     -189.703       11.647      -23.809       85.100       36.556       25.823     7242.073     1336.364      666.827        2.297        0.462      190.060       32.626        0.029      342.272       17.562      856.598
09/18/2014  06:39:00     -250.482       26.245      -31.967       79.512       56.327       36.661     6322.111     3172.681     1344.057        3.764        0.542      251.853       22.863        0.008      341.906       16.939      856.548
09/18/2014  06:40:00     -208.474        7.581      -32.365       52.156       85.694       41.505     2720.207     7343.423     1722.668        2.817        0.589      208.612       29.341        0.020      341.890       16.914      856.540
09/18/2014  06:41:00      -64.974       -2.695       -5.437       62.249       52.984       36.514     3874.922     2807.278     1333.237        0.614        0.401       65.029       37.258        0.328      341.872       16.887      856.586
09/18/2014  06:42:00       11.526      -55.093        1.283       31.898       21.124       18.072     1017.492      446.230      326.613        0.248        0.090       56.286       10.086        0.032      341.879       16.898      856.635
09/18/2014  06:43:00       15.478      -56.382       20.561       36.522       57.724       38.354     1333.843     3332.062     1471.010        0.499        0.307       58.467       27.507        0.221      341.879       16.898      856.673
09/18/2014  06:44:00       45.384     -104.709        4.019       39.968       42.215       41.675     1597.406     1782.080     1736.832        0.908        0.256      114.122       30.318        0.071      341.981       17.071      856.719
09/18/2014  06:45:00      -23.344      -77.468       -6.676       57.248       27.521       19.325     3277.325      757.402      373.473        0.550        0.220       80.909        8.399        0.011      342.072       17.226      856.770
09/18/2014  06:46:00       14.654      -53.240        6.175       33.371       37.308       20.466     1113.654     1391.901      418.846        0.301        0.146       55.220       15.640        0.080      342.096       17.268      856.807
09/18/2014  06:47:00      -11.984      -37.089        1.373       19.000       22.737       19.984      360.984      516.960      399.370        0.140        0.064       38.977       16.322        0.175      342.106       17.284      856.833
09/18/2014  06:48:00      -70.315      -22.832       -3.482       22.334       14.637       13.466      498.817      214.234      181.327        0.319        0.045       73.929       10.448        0.020      342.114       17.296      856.843
09/18/2014  06:49:00      -71.801      -32.833       -2.020       25.626       18.924       12.530      656.666      358.121      156.991        0.370        0.059       78.951        8.659        0.012      342.110       17.290      856.828
09/18/2014  06:50:00      -45.198      -21.996       -3.127       21.899       39.810       14.605      479.553     1584.843      213.307        0.241        0.114       50.267       15.415        0.094      342.296       17.607      856.812
09/18/2014  06:51:00      -87.673       39.249       -4.704       19.365       38.161       16.855      375.009     1456.260      284.083        0.568        0.106       96.058       12.948        0.018      342.537       18.017      856.815
09/18/2014  06:52:00     -111.728      -14.649      -12.148       20.517       17.889       15.144      420.958      320.011      229.337        0.691        0.049      112.684       12.709        0.013      342.383       17.754      856.842
09/18/2014  06:53:00     -119.900      -32.685      -17.183       18.864       13.855        9.648      355.862      191.957       93.075        0.819        0.032      124.275        6.747        0.003      342.299       17.610      856.868
09/18/2014  06:54:00     -153.685      -22.580      -20.784       26.167       19.223       12.261      684.702      369.506      150.343        1.288        0.060      155.335        6.156        0.002      342.179       17.409      856.891
09/18/2014  06:55:00     -160.787      -54.108       -9.652       19.491       28.228       12.598      379.890      796.793      158.716        1.510        0.067      169.647        5.337        0.001      342.086       17.249      856.906
09/18/2014  06:56:00     -167.467      -65.887      -12.092       23.660       31.519       15.071      559.819      993.478      227.136        1.716        0.089      179.962       11.546        0.004      342.071       17.224      856.906
09/18/2014  06:57:00     -154.593      -15.522      -16.684       46.275       39.404       23.927     2141.385     1552.705      572.518        1.434        0.213      155.370       22.990        0.022      342.064       17.211      856.895
09/18/2014  06:58:00     -152.521      -16.814       -8.902       46.617       34.479       25.005     2173.147     1188.786      625.269        1.381        0.199      153.445       27.456        0.032      342.015       17.128      856.891
09/18/2014  06:59:00     -122.414       -8.214       -8.558       62.888       28.283       22.761     3954.933      799.921      518.053        1.020        0.264      122.689       31.816        0.067      342.067       17.217      856.909
09/18/2014  07:00:00      -34.297       -4.027        8.091       57.297       29.096       26.909     3282.983      846.554      724.091        0.305        0.243       34.532       32.173        0.868      341.981       17.071      856.936
09/18/2014  07:01:00      -87.619      -48.863      -11.629       53.825       25.409       20.016     2897.153      645.616      400.645        0.707        0.197      100.323       26.273        0.069      342.078       17.236      856.997
09/18/2014  07:02:00      -19.438      -52.479       12.403       44.189       19.410       24.218     1952.649      376.730      586.491        0.310        0.146       55.964       25.699        0.211      342.085       17.248      857.042
09/18/2014  07:03:00       10.004      -69.308        7.190       23.708       21.914       16.160      562.061      480.219      261.149        0.313        0.065       70.026        8.786        0.016      342.349       17.696      857.057
09/18/2014  07:04:00       39.500      -51.491       -6.489       29.442       52.559       29.320      866.850     2762.444      859.641        0.437        0.224       64.897       37.536        0.335      342.178       17.407      857.061
09/18/2014  07:05:00        2.233       15.605       38.264       13.850       17.865       13.007      191.817      319.171      169.186        0.120        0.034       15.764       10.364        0.432      342.182       17.413      857.047
09/18/2014  07:06:00      -14.252      -18.517        1.727       17.186       10.807       14.757      295.367      116.801      217.780        0.059        0.031       23.366       13.703        0.344      342.253       17.533      857.034
09/18/2014  07:07:00      -15.735      -26.640       -8.295       25.259       11.042       11.046      638.012      121.928      122.008        0.095        0.044       30.940       10.839        0.123      342.385       17.756      857.049
09/18/2014  07:08:00        9.342       12.541       -5.373       14.473       13.941        9.785      209.455      194.362       95.742        0.039        0.025       15.639        6.112        0.153      342.362       17.717      857.063
09/18/2014  07:09:00      -59.706        9.730       -5.368       32.346       34.344       15.028     1046.286     1179.490      225.853        0.307        0.123       60.494        7.939        0.017      342.446       17.862      857.087
09/18/2014  07:10:00      -65.841      -14.015       -1.508       33.782       23.842       16.162     1141.215      568.449      261.216        0.325        0.099       67.317       16.976        0.064      342.312       17.633      857.072
09/18/2014  07:11:00      -59.053       76.380      -12.133       25.818       23.616       20.191      666.548      557.730      407.683        0.555        0.082       96.546       16.019        0.028      342.347       17.692      857.016
09/18/2014  07:12:00     -106.264       34.536      -18.481       29.757       58.276       16.616      885.486     3396.062      276.077        0.869        0.228      111.735       19.883        0.032      342.279       17.577      857.002
09/18/2014  07:13:00      -75.388      -51.471       -1.336       50.031       26.653       20.572     2503.104      710.367      423.208        0.598        0.182       91.283       27.033        0.088      342.048       17.186      857.073
09/18/2014  07:14:00      -25.822      -52.003       -8.777       33.089       29.953       20.338     1094.869      897.182      413.639        0.293        0.120       58.061       10.404        0.032      342.196       17.438      857.153
09/18/2014  07:15:00      -45.178     -103.088       -1.176       22.736       48.251       11.061      516.906     2328.131      122.339        0.782        0.148      112.553       11.140        0.010      342.376       17.741      857.178
09/18/2014  07:16:00      -32.297      -31.642        0.643       13.736       21.999       12.290      188.689      483.974      151.049        0.143        0.041       45.214       10.860        0.058      342.531       18.005      857.141
09/18/2014  07:17:00      -24.021        9.277        7.270       24.458       15.791       20.497      598.198      249.356      420.127        0.099        0.063       25.750       13.393        0.271      342.458       17.881      857.122
09/18/2014  07:18:00      -26.664      -19.897        5.775        9.248        7.098       10.585       85.529       50.388      112.032        0.069        0.012       33.269        6.906        0.043      342.455       17.875      857.111
09/18/2014  07:19:00      -22.304        4.668       10.291       32.019       18.921       14.740     1025.214      358.003      217.260        0.111        0.080       22.787       11.965        0.276      342.562       18.058      857.094
09/18/2014  07:20:00       41.694       27.105        2.452       15.087       19.729       12.641      227.631      389.230      159.798        0.163        0.039       49.730       10.501        0.045      342.415       17.809      857.069
09/18/2014  07:21:00       22.289       26.826       -7.610       21.976       14.216        9.950      482.960      202.089       99.012        0.103        0.039       34.877        6.945        0.040      342.301       17.614      857.047
09/18/2014  07:22:00      -10.122        3.321       -3.474       13.207       18.029        7.133      174.415      325.049       50.879        0.034        0.028       10.653        7.094        0.444      342.306       17.625      857.093
09/18/2014  07:23:00       -3.088      -13.374       17.544       19.682       33.999       20.947      387.396     1155.914      438.764        0.124        0.099       13.725       10.668        0.604      342.502       17.957      857.124
09/18/2014  07:24:00       -9.376      -71.953      -13.010       36.328       30.563       23.872     1319.701      934.104      569.877        0.413        0.141       72.562        9.947        0.019      342.487       17.931      857.142
09/18/2014  07:25:00      -36.231      -21.743       -4.027       22.362       23.474       17.620      500.069      551.051      310.455        0.158        0.068       42.254       13.500        0.102      342.590       18.105      857.125
09/18/2014  07:26:00        8.219      -11.614       -1.100       14.043        9.850       13.400      197.193       97.016      179.548        0.034        0.024       14.228        8.252        0.336      342.553       18.044      857.138
09/18/2014  07:27:00       -4.044       -1.568       -6.874        7.823       11.168        8.357       61.198      124.735       69.835        0.016        0.013        4.337        6.627        2.334      342.601       18.125      857.151
09/18/2014  07:28:00       19.676       41.684       -3.628       11.129       17.521       13.365      123.846      306.981      178.612        0.137        0.030       46.095        8.429        0.033      342.489       17.934      857.132
09/18/2014  07:29:00       43.519       36.255        2.097       22.268       22.159       17.851      495.885      491.023      318.646        0.226        0.065       56.642       11.065        0.038      342.446       17.862      857.113
09/18/2014  07:30:00       53.452       35.938        4.826       34.151       25.778       21.268     1166.280      664.528      452.331        0.323        0.114       64.410       16.988        0.070      342.393       17.771      857.086
09/18/2014  07:31:00        7.459       -9.170        7.096       26.450       20.016       16.751      699.624      400.631      280.587        0.079        0.069       11.821        6.700        0.321      342.483       17.923      857.052
09/18/2014  07:32:00        6.912       -0.203        2.599       12.910       10.121        9.597      166.666      102.430       92.100        0.021        0.018        6.915        4.790        0.480      342.612       18.142      857.052
09/18/2014  07:33:00      -21.955      -12.716       -6.292       11.813       25.921       10.619      139.559      671.873      112.768        0.080        0.046       25.372       11.772        0.215      342.491       17.936      857.076
09/18/2014  07:34:00       -9.216        1.375       -0.885       26.481       15.630       10.403      701.238      244.286      108.232        0.057        0.053        9.318       13.041        1.958      342.513       17.974      857.086
09/18/2014  07:35:00       12.421       28.402        5.091       15.200       10.743       12.710      231.054      115.411      161.556        0.075        0.025       30.999       10.507        0.115      342.746       18.373      857.057
09/18/2014  07:36:00      -22.275       35.659       -3.052       25.914       14.244        8.611      671.518      202.896       74.147        0.136        0.047       42.044        9.431        0.050      342.811       18.482      857.042
09/18/2014  07:37:00      -41.343       57.838      -12.176       27.555       19.665       11.898      759.291      386.707      141.561        0.324        0.064       71.095       13.645        0.037      342.899       18.631      857.037
09/18/2014  07:38:00      -67.158      -24.610       -9.192       34.798       25.092       12.365     1210.923      629.584      152.901        0.360        0.100       71.525       11.853        0.027      342.723       18.333      857.053
09/18/2014  07:39:00      -17.418       45.187       14.486       31.746       26.298       22.876     1007.838      691.574      523.328        0.239        0.111       48.427       24.876        0.264      342.889       18.615      857.005
09/18/2014  07:40:00      -46.830       82.908      -13.250       23.355       22.735       15.601      545.444      516.882      243.376        0.527        0.065       95.220       13.578        0.020      342.988       18.783      856.949
09/18/2014  07:41:00      -28.635       21.249       -7.433       16.691       29.978       14.864      278.579      898.663      220.940        0.136        0.070       35.658        8.691        0.059      343.069       18.922      856.960
09/18/2014  07:42:00        6.878      -53.478        2.564       24.601       36.016       30.949      605.210     1297.156      957.813        0.289        0.143       53.919       24.101        0.200      343.059       18.904      857.044
09/18/2014  07:43:00        7.502        3.362       45.591       26.692       47.760       26.450      712.451     2280.999      699.580        0.292        0.185        8.221       28.979       12.426      343.242       19.216      857.088
09/18/2014  07:44:00       26.565       14.349       46.597       45.995       32.952       30.918     2115.552     1085.860      955.917        0.362        0.208       30.193       24.521        0.660      343.210       19.160      857.098
09/18/2014  07:45:00        4.264       44.359       66.307       24.510       36.959       29.274      600.746     1365.962      856.952        0.460        0.141       44.564       28.491        0.409      343.316       19.341      857.087
09/18/2014  07:46:00       13.836       50.983       72.001       28.968       32.430       23.341      839.166     1051.691      544.794        0.520        0.122       52.827       20.329        0.148      343.063       18.912      857.077
09/18/2014  07:47:00       53.532       45.998       39.651       32.134       53.186       31.870     1032.609     2828.737     1015.698        0.571        0.244       70.579       31.833        0.203      342.877       18.594      857.075
09/18/2014  07:48:00       31.988       30.252       25.074       33.117       38.494       34.435     1096.751     1481.822     1185.790        0.316        0.188       44.028       15.801        0.129      342.846       18.541      857.078
09/18/2014  07:49:00       51.111       54.000        3.576       22.542       21.279       24.180      508.151      452.811      584.662        0.354        0.077       74.352       14.931        0.040      342.977       18.764      857.081
09/18/2014  07:50:00        8.663       42.656       11.016       34.179       30.131       26.336     1168.235      907.861      693.569        0.239        0.138       43.527       15.689        0.130      343.208       19.158      857.072
09/18/2014  07:51:00       10.720       13.858       -0.528       23.185       27.901       27.159      537.558      778.463      737.611        0.118        0.103       17.520        6.242        0.127      343.277       19.275      857.102
09/18/2014  07:52:00      -38.989       18.368        3.087       26.236       19.980       21.122      688.313      399.212      446.154        0.170        0.077       43.099       15.909        0.136      343.203       19.149      857.116
09/18/2014  07:53:00       -8.812       -5.833        5.475       20.807       14.337       11.913      432.928      205.553      141.915        0.046        0.039       10.568       12.559        1.412      343.380       19.450      857.111
09/18/2014  07:54:00      -38.886      -42.808      -14.622       21.386       16.548       17.119      457.364      273.839      293.057        0.229        0.051       57.833       12.793        0.049      343.177       19.105      857.122
09/18/2014  07:55:00      -76.796       42.999      -12.508       40.153       45.816       19.828     1612.300     2099.075      393.159        0.600        0.205       88.015       25.804        0.086      343.223       19.184      857.116
09/18/2014  07:56:00      -75.762       26.163       -3.466       53.847       51.547       24.152     2899.482     2657.123      583.336        0.629        0.307       80.153       28.193        0.124      343.378       19.447      857.129
09/18/2014  07:57:00      -57.456       -4.071        2.806       39.573       44.234       25.461     1566.014     1956.662      648.245        0.375        0.209       57.600       23.036        0.160      343.320       19.350      857.139
09/18/2014  07:58:00      -51.727      -10.970        3.892       37.884       39.900       23.972     1435.162     1591.978      574.652        0.321        0.180       52.878       19.090        0.130      343.364       19.423      857.147
09/18/2014  07:59:00      -63.420     -184.166       -3.054       52.541      103.861       28.771     2760.512    10787.091      827.766        2.616        0.719      194.780       22.146        0.013      343.483       19.625      857.149
09/18/2014  08:00:00     -129.654      -95.123        2.932      120.962       66.589       42.425    14631.917     4434.031     1799.860        2.336        1.043      160.806       54.928        0.117      343.624       19.865      857.150
09/18/2014  08:01:00      -47.252     -163.011       -3.411       57.275       49.954       32.179     3280.386     2495.415     1035.496        1.781        0.341      169.721       18.956        0.012      343.707       20.006      857.157
09/18/2014  08:02:00      -31.193      -81.844       11.998       38.416       80.839       37.716     1475.809     6534.999     1422.478        0.862        0.472       87.587       36.978        0.178      343.822       20.203      857.148
09/18/2014  08:03:00      -78.359      -35.075       16.319       86.088       89.881       47.947     7411.163     8078.557     2298.910        1.271        0.889       85.851       43.526        0.257      343.832       20.220      857.171
09/18/2014  08:04:00        4.462      -46.882       27.347       79.623       95.825       51.188     6339.785     9182.476     2620.164        1.055        0.907       47.094       57.064        1.468      343.946       20.415      857.149
09/18/2014  08:05:00       80.811      -88.074        4.737       70.421       83.489       57.144     4959.098     6970.478     3265.388        1.475        0.760      119.530       62.340        0.272      343.889       20.317      857.180
09/18/2014  08:06:00       49.162      -96.917       35.019       55.961       77.757       58.333     3131.626     6046.184     3402.765        1.281        0.629      108.673       50.117        0.213      343.819       20.200      857.191
09/18/2014  08:07:00       35.808       -8.277       42.309       55.958       61.878       59.527     3131.349     3828.838     3543.445        0.682        0.525       36.752       39.205        1.138      344.006       20.519      857.226
09/18/2014  08:08:00       43.525        4.118       80.984       65.671       84.706       46.506     4312.724     7175.153     2162.840        1.106        0.683       43.720       54.799        1.571      343.962       20.444      857.220
09/18/2014  08:09:00       43.787       36.581       81.612       57.876       71.014       63.630     3349.671     5042.967     4048.746        1.118        0.622       57.056       56.647        0.986      343.691       19.979      857.213
09/18/2014  08:10:00       84.040      -45.489       40.093       75.808      102.433       70.381     5746.859    10492.596     4953.500        1.596        1.060       95.562       76.118        0.634      343.552       19.743      857.239
09/18/2014  08:11:00      -22.172      -22.197       43.209       44.052       54.469       36.237     1940.541     2966.827     1313.119        0.453        0.311       31.374       28.535        0.827      343.729       20.046      857.284
09/18/2014  08:12:00       24.226       41.144       38.088       49.201       33.461       36.983     2420.691     1119.626     1367.719        0.432        0.245       47.747       23.771        0.248      343.748       20.078      857.293
09/18/2014  08:13:00       69.254       32.486       24.746       46.290       55.451       45.455     2142.735     3074.851     2066.155        0.687        0.364       76.494       37.911        0.246      343.518       19.685      857.280
09/18/2014  08:14:00       51.505       57.885       34.125       67.076       41.355       29.751     4499.238     1710.267      885.100        0.713        0.355       77.482       35.180        0.206      343.705       20.005      857.256
09/18/2014  08:15:00       71.595       66.362       51.790       51.689       41.436       39.984     2671.754     1716.909     1598.715        0.910        0.299       97.620       36.120        0.137      343.619       19.857      857.221
09/18/2014  08:16:00       53.772       28.818       88.911       55.864       98.093       52.471     3120.806     9622.143     2753.232        1.356        0.775       61.008       61.006        1.000      343.798       20.164      857.236
09/18/2014  08:17:00       26.174       68.215      125.431       57.275       71.206       46.082     3280.426     5070.328     2123.531        1.577        0.524       73.064       38.038        0.271      343.771       20.117      857.249
09/18/2014  08:18:00       29.938       91.979      126.089       61.151       60.289       39.998     3739.395     3634.755     1599.838        1.711        0.449       96.729       24.762        0.066      343.760       20.098      857.259
09/18/2014  08:19:00      126.074      116.047       94.815       83.695       57.104       53.318     7004.850     3260.814     2842.799        2.573        0.655      171.352       37.342        0.047      343.653       19.914      857.276
09/18/2014  08:20:00       99.715       65.343       27.933       57.931       46.325       44.132     3355.963     2146.049     1947.649        1.122        0.372      119.218       37.116        0.097      343.705       20.004      857.280
09/18/2014  08:21:00       -0.644       12.268       18.263       40.844       40.706       23.922     1668.249     1657.012      572.250        0.219        0.195       12.285        7.109        0.335      343.915       20.362      857.292
09/18/2014  08:22:00      -23.333       17.219       37.158       29.890       25.006       21.662      893.383      625.277      469.250        0.210        0.099       28.999       20.815        0.515      344.247       20.932      857.302
09/18/2014  08:23:00      -11.216        4.886       31.936       15.552       18.613       20.479      241.868      346.443      419.405        0.109        0.050       12.234       18.212        2.216      344.273       20.974      857.307
09/18/2014  08:24:00      -10.587      -13.627       25.167       19.456       26.990       29.750      378.528      728.482      885.074        0.146        0.100       17.256       15.532        0.810      344.269       20.967      857.316
09/18/2014  08:25:00       11.152       11.143       31.419       60.042       63.146       57.127     3605.076     3987.389     3263.477        0.604        0.543       15.765       50.537       10.276      344.172       20.802      857.311
09/18/2014  08:26:00       33.911       19.987       79.020       44.382       80.356       56.572     1969.777     6457.131     3200.417        0.971        0.581       39.363       64.816        2.711      344.045       20.586      857.317
09/18/2014  08:27:00       70.152       14.586       11.520       45.011       40.458       36.664     2026.008     1636.834     1344.254        0.514        0.250       71.652       32.090        0.201      343.929       20.387      857.312
09/18/2014  08:28:00       -7.063       40.333       80.483       19.522       37.544       24.834      381.102     1409.553      616.710        0.528        0.120       40.947       21.769        0.283      344.318       21.053      857.307
09/18/2014  08:29:00       25.457       39.991       22.861       26.284       34.159       35.267      690.851     1166.808     1243.771        0.294        0.155       47.406       19.080        0.162      344.152       20.768      857.311
09/18/2014  08:30:00      -12.765       49.400        0.202       22.424       50.805       18.517      502.823     2581.165      342.861        0.301        0.171       51.022       18.803        0.136      344.017       20.538      857.343
09/18/2014  08:31:00       -8.319      -35.821       -8.942       35.899       32.962       14.661     1288.720     1086.503      214.957        0.201        0.130       36.775       15.992        0.189      344.019       20.541      857.367
09/18/2014  08:32:00       12.670      -63.874        9.670       43.086       40.683       27.163     1856.425     1655.129      737.819        0.429        0.212       65.118       25.426        0.152      344.265       20.962      857.370
09/18/2014  08:33:00       19.397      -22.108       39.992       61.865       76.420       49.157     3827.293     5840.083     2416.423        0.727        0.604       29.410       44.487        2.288      344.635       21.594      857.375
09/18/2014  08:34:00        6.495       46.427       82.320       42.606       50.322       33.743     1815.268     2532.310     1138.606        0.723        0.274       46.879       30.598        0.426      344.754       21.797      857.361
09/18/2014  08:35:00      -38.411      -52.190       22.195       57.910       85.451       47.215     3353.617     7301.919     2229.272        0.879        0.644       64.801       58.755        0.822      344.251       20.938      857.387
09/18/2014  08:36:00      -95.343      -84.044        4.611       58.336       70.868       36.927     3403.071     5022.219     1363.602        1.298        0.489      127.098       32.238        0.064      344.047       20.588      857.417
09/18/2014  08:37:00       -3.831      -67.213       -4.468       21.837       34.585       19.605      476.860     1196.135      384.373        0.330        0.103       67.322       14.422        0.046      344.281       20.989      857.418
09/18/2014  08:38:00      -64.552      -18.513      -12.489       66.721       43.403       24.564     4451.712     1883.828      603.370        0.580        0.347       67.154       16.922        0.063      344.308       21.034      857.401
09/18/2014  08:39:00      -37.764      -56.787       11.199       62.811       63.365       26.943     3945.245     4015.178      725.939        0.673        0.434       68.198       33.023        0.234      344.424       21.232      857.415
09/18/2014  08:40:00     -118.370     -203.556      -11.125       80.755       84.878       34.498     6521.336     7204.344     1190.093        3.524        0.746      235.471       42.281        0.032      344.028       20.553      857.432
09/18/2014  08:41:00       -9.383      -86.880       -1.472       36.740       52.230       28.101     1349.831     2727.936      789.662        0.625        0.243       87.386       15.193        0.030      344.079       20.643      857.423
09/18/2014  08:42:00     -102.239      -66.360        4.575      128.164       64.155       35.914    16425.990     4115.926     1289.816        1.835        1.092      121.887       24.130        0.039      344.238       20.913      857.448
09/18/2014  08:43:00     -128.627        5.701      -11.586      155.707       87.784       59.411    24244.688     7706.021     3529.613        2.609        1.774      128.753       36.672        0.081      344.235       20.908      857.431
09/18/2014  08:44:00     -280.890      -97.335      -26.643      145.007       96.131       56.017    21027.110     9241.264     3137.886        6.124        1.670      297.277       42.627        0.021      344.076       20.635      857.416
09/18/2014  08:45:00     -203.279      -81.104        0.211      146.156       86.079       53.804    21361.592     7409.619     2894.827        3.978        1.583      218.861       68.582        0.098      344.190       20.831      857.406
09/18/2014  08:46:00     -222.195      -46.093       10.408      142.165      111.026       61.910    20210.970    12326.692     3832.791        4.398        1.819      226.926       61.175        0.073      344.271       20.971      857.407
09/18/2014  08:47:00     -336.865       39.087      -15.812      157.660       83.914       50.979    24856.770     7041.535     2598.881        7.487        1.725      339.125       56.633        0.028      344.135       20.735      857.405
09/18/2014  08:48:00     -200.436     -108.584      -11.601      229.863      126.972       56.276    52836.992    16121.908     3166.979        6.210        3.606      227.959       88.517        0.151      344.305       21.029      857.399
09/18/2014  08:49:00     -333.908     -212.736      -24.004      169.893      135.056       75.989    28863.640    18240.196     5774.343       10.509        2.644      395.918       75.765        0.037      344.182       20.816      857.394
09/18/2014  08:50:00     -272.330      -43.843      -26.103       92.504       57.940       39.120     8557.071     3356.989     1530.393        4.510        0.672      275.837       35.976        0.017      344.258       20.944      857.426
09/18/2014  08:51:00      -86.255       -1.409       -2.852       84.394       61.517       49.880     7122.359     3784.350     2488.037        1.042        0.670       86.267       45.089        0.273      344.499       21.361      857.456
09/18/2014  08:52:00     -161.980       -7.774      -14.380       75.763       85.354       37.385     5740.108     7285.376     1397.616        2.046        0.721      162.167       33.961        0.044      344.195       20.838      857.459
09/18/2014  08:53:00      -74.121      -26.299       11.614       96.447       62.579       42.661     9302.029     3916.105     1819.987        1.068        0.752       78.649       42.977        0.299      344.295       21.012      857.454
09/18/2014  08:54:00     -216.008      -39.254        0.961       81.345      100.056       46.667     6617.046    10011.164     2177.766        3.350        0.940      219.545       33.170        0.023      344.296       21.012      857.459
09/18/2014  08:55:00     -196.712     -115.804        7.122      151.771      150.157       69.829    23034.396    22547.060     4876.109        5.130        2.523      228.267       77.131        0.114      344.408       21.204      857.466
09/18/2014  08:56:00     -149.754     -139.842      -19.563      126.995      174.049       51.852    16127.705    30293.225     2688.603        4.573        2.455      204.895       79.888        0.152      344.390       21.171      857.472
09/18/2014  08:57:00     -177.749       52.295      -14.249      109.667       64.874       50.326    12026.837     4208.686     2532.684        2.665        0.938      185.282       48.895        0.070      344.406       21.199      857.455
09/18/2014  08:58:00     -195.682      -50.010       -2.136       94.708       78.427       42.472     8969.601     6150.834     1803.884        2.886        0.846      201.971       44.564        0.049      344.439       21.256      857.477
09/18/2014  08:59:00     -112.150       36.313        0.506       99.434       70.021       45.587     9887.208     4902.889     2078.192        1.538        0.843      117.882       42.682        0.131      344.609       21.548      857.476
09/18/2014  09:00:00     -226.910      -68.001      -21.360      179.386       88.474       63.558    32179.329     7827.655     4039.651        5.030        2.202      236.880       80.020        0.114      344.482       21.330      857.471
09/18/2014  09:01:00     -230.071     -105.255       -1.524      114.330      108.612       73.610    13071.405    11796.569     5418.429        4.714        1.514      253.004       69.853        0.076      344.484       21.333      857.463
09/18/2014  09:02:00     -128.142     -112.350       15.258      139.126       87.660       60.253    19355.991     7684.317     3630.393        2.997        1.534      170.420       60.387        0.126      344.515       21.386      857.484
09/18/2014  09:03:00     -207.308     -173.097        7.880      135.663      111.259       70.798    18404.316    12378.493     5012.320        5.439        1.790      270.072       64.396        0.057      344.366       21.132      857.479
09/18/2014  09:04:00     -195.035      -74.630       -6.920      118.646       64.242       47.079    14076.820     4126.989     2216.453        3.203        1.021      208.826       52.067        0.062      344.552       21.451      857.484
09/18/2014  09:05:00     -156.381      -25.621       -3.102      132.849       85.012       47.015    17648.984     7226.998     2210.395        2.610        1.354      158.465       51.311        0.105      344.545       21.438      857.486
09/18/2014  09:06:00     -249.819       45.492      -15.598      120.629       84.044       49.463    14551.355     7063.364     2446.546        4.439        1.203      253.927       42.700        0.028      344.472       21.312      857.476
09/18/2014  09:07:00     -341.331      -45.587      -17.646       70.025       72.901       41.612     4903.463     5314.628     1731.590        6.542        0.597      344.362       40.759        0.014      344.404       21.196      857.473
09/18/2014  09:08:00     -286.582      -14.724      -20.769       79.637      103.111       37.837     6342.038    10631.904     1431.620        5.059        0.920      286.960       22.641        0.006      344.439       21.254      857.462
09/18/2014  09:09:00     -256.393      -47.957      -19.978      155.115      113.835       55.434    24060.745    12958.514     3072.917        5.426        2.005      260.840       58.475        0.050      344.496       21.352      857.432
09/18/2014  09:10:00     -126.864     -117.378       13.528      157.144       99.907       67.882    24694.362     9981.453     4607.915        3.466        1.964      172.835       77.220        0.200      344.662       21.638      857.456
09/18/2014  09:11:00     -188.215     -105.278       -3.531      141.077       95.703       57.667    19902.705     9159.084     3325.493        3.945        1.619      215.658       70.819        0.108      344.607       21.544      857.459
09/18/2014  09:12:00     -215.802     -148.408       -4.285      141.541      133.428       59.995    20033.900    17802.942     3599.346        5.502        2.072      261.907       69.602        0.071      344.510       21.377      857.475
09/18/2014  09:13:00     -199.156     -134.877       12.431      106.676       89.526       61.181    11379.722     8014.980     3743.127        4.057        1.157      240.530       63.846        0.070      344.561       21.464      857.503
09/18/2014  09:14:00      -90.841     -115.173       -0.201       84.455       72.199       32.011     7132.576     5212.744     1024.713        1.744        0.669      146.686       29.835        0.041      344.451       21.276      857.530
09/18/2014  09:15:00      -14.380     -120.887       -8.441       21.720       31.414       19.852      471.770      986.816      394.105        0.837        0.093      121.740       12.916        0.011      344.358       21.121      857.514
09/18/2014  09:16:00      -30.486      -20.167        9.601       20.685       22.600       16.682      427.865      510.766      278.277        0.132        0.061       36.553       12.657        0.120      344.706       21.715      857.506
09/18/2014  09:17:00       -6.500       -9.425       -8.390       42.071       26.350       14.356     1769.994      694.325      206.105        0.144        0.134       11.449        5.365        0.220      344.708       21.719      857.506
09/18/2014  09:18:00      -60.084      -10.306       12.074       28.442       23.490       23.628      808.961      551.766      558.305        0.289        0.096       60.962       12.423        0.042      344.685       21.679      857.496
09/18/2014  09:19:00      -98.011     -102.931        4.874       64.683       60.741       34.386     4183.864     3689.522     1182.375        1.464        0.453      142.130       28.841        0.041      344.643       21.605      857.530
09/18/2014  09:20:00     -103.774      -84.613      -10.999      104.121       73.085       42.780    10841.161     5341.455     1830.139        1.803        0.901      133.897       49.086        0.134      344.666       21.644      857.513
09/18/2014  09:21:00     -140.721     -139.068        1.014      110.378      113.000       54.860    12183.317    12768.898     3009.667        3.355        1.398      197.844       63.680        0.104      344.706       21.713      857.524
09/18/2014  09:22:00     -113.874     -111.340       23.899      135.005      101.189       69.066    18226.351    10239.175     4770.071        2.958        1.662      159.260       83.813        0.277      344.773       21.828      857.528
09/18/2014  09:23:00     -183.500       30.563      -11.773       69.964       83.226       36.900     4895.021     6926.643     1361.593        2.396        0.659      186.027       35.175        0.036      344.631       21.585      857.538
09/18/2014  09:24:00     -126.083       40.529      -18.513       90.123       52.097       26.291     8122.195     2714.070      691.229        1.470        0.576      132.436       27.121        0.042      344.768       21.821      857.533
09/18/2014  09:25:00     -158.255       55.309      -21.993       59.667       39.467       18.546     3560.118     1557.683      343.954        1.702        0.273      167.641       18.072        0.012      344.475       21.320      857.524
09/18/2014  09:26:00      -19.774       12.731       14.792       37.825       31.189       27.302     1430.724      972.760      745.416        0.196        0.157       23.518       21.975        0.873      344.940       22.117      857.520
09/18/2014  09:27:00      -76.722        1.411       -1.206       48.983       21.329       22.073     2399.312      454.921      487.229        0.461        0.167       76.735       24.975        0.106      344.895       22.039      857.515
09/18/2014  09:28:00     -103.850       40.633       -4.182       58.267       43.066       29.054     3395.012     1854.685      844.124        0.927        0.305      111.516       31.047        0.078      344.898       22.044      857.534
09/18/2014  09:29:00      -92.832       46.239       -6.349       44.641       40.992       28.381     1992.857     1680.332      805.484        0.764        0.224      103.710       27.543        0.071      344.952       22.137      857.541
09/18/2014  09:30:00      -63.708       95.484       -4.474       48.710       43.496       28.822     2372.660     1891.934      830.701        0.914        0.255      114.786       30.473        0.070      344.970       22.167      857.554
09/18/2014  09:31:00      -13.894        3.315        4.148       24.738       31.384       28.074      611.985      984.968      788.131        0.130        0.119       14.284       22.402        2.460      345.172       22.514      857.551
09/18/2014  09:32:00      -37.934      -24.387        4.079       43.303       42.005       29.374     1875.150     1764.431      862.826        0.328        0.225       45.097       18.186        0.163      344.861       21.979      857.559
09/18/2014  09:33:00      -38.856      -74.826        3.214       46.895       97.383       29.476     2199.159     9483.506      868.861        0.983        0.628       84.313       28.171        0.112      344.777       21.837      857.547
09/18/2014  09:34:00       -6.270      -44.297       14.650       29.767       47.548       22.147      886.063     2260.859      490.489        0.293        0.182       44.738       19.584        0.192      345.150       22.475      857.555
09/18/2014  09:35:00      -74.177      -37.626       -8.992       37.332       43.990       25.580     1393.651     1935.111      654.359        0.549        0.199       83.174       15.943        0.037      344.774       21.831      857.538
09/18/2014  09:36:00       31.438       22.359       49.508       45.161       78.864       42.888     2039.529     6219.506     1839.415        0.702        0.505       38.578       45.062        1.364      345.343       22.805      857.533
09/18/2014  09:37:00       77.326      102.893       86.591       43.952       26.831       29.156     1931.768      719.902      850.065        1.378        0.175      128.710       18.616        0.021      344.876       22.006      857.511
09/18/2014  09:38:00       45.434      133.075      112.202       66.801       57.111       60.285     4462.377     3261.654     3634.330        2.186        0.568      140.617       54.472        0.150      344.911       22.064      857.506
09/18/2014  09:39:00       12.054       23.965       73.310       35.672       57.249       40.195     1272.501     3277.417     1615.669        0.613        0.308       26.826       43.529        2.633      345.469       23.022      857.504
09/18/2014  09:40:00       11.982       23.436       76.313       40.357       72.583       39.839     1628.650     5268.287     1587.110        0.750        0.424       26.322       32.297        1.506      345.659       23.347      857.499
09/18/2014  09:41:00       14.721       65.706       76.190       30.174       42.107       36.430      910.483     1773.006     1327.147        0.717        0.201       67.335       25.353        0.142      345.403       22.909      857.523
09/18/2014  09:42:00        2.197       34.569       -0.269       37.731       27.105       31.492     1423.658      734.675      991.774        0.217        0.158       34.638       30.080        0.754      344.850       21.963      857.527
09/18/2014  09:43:00      -52.505       38.732      -15.542       30.562       26.667       25.173      934.024      711.127      633.663        0.339        0.114       65.245       13.142        0.041      344.941       22.116      857.532
09/18/2014  09:44:00     -106.669       12.646       -8.179       52.515       54.075       28.386     2757.774     2924.120      805.757        0.905        0.324      107.416       13.424        0.016      345.079       22.353      857.525
09/18/2014  09:45:00      -92.296       37.203       -4.302       49.582       45.537       29.338     2458.327     2073.600      860.690        0.766        0.270       99.512       20.482        0.042      345.004       22.227      857.522
09/18/2014  09:46:00       -9.847       25.916       17.876       34.150       27.924       29.155     1166.226      779.769      850.030        0.194        0.140       27.724       27.317        0.971      345.754       23.513      857.510
09/18/2014  09:47:00      -44.947       -2.882        2.662       24.155       24.023       20.260      583.456      577.087      410.486        0.180        0.079       45.040       16.619        0.136      345.185       22.537      857.515
09/18/2014  09:48:00      -52.193      -32.962      -14.103       40.154       28.950       19.545     1612.312      838.115      381.995        0.342        0.142       61.730        6.342        0.011      344.839       21.944      857.536
09/18/2014  09:49:00       -7.326     -109.906       12.153       47.498      123.488       38.146     2256.100    15249.313     1455.124        1.562        0.948      110.150       28.747        0.068      345.091       22.373      857.538
09/18/2014  09:50:00      -37.061      -35.131        5.795       35.051       33.136       20.990     1228.599     1097.977      440.578        0.270        0.138       51.066       21.561        0.178      345.113       22.412      857.545
09/18/2014  09:51:00     -120.472      -85.120        1.081       84.884       52.209       35.656     7205.294     2725.804     1271.374        1.648        0.560      147.509       21.562        0.021      345.008       22.232      857.545
09/18/2014  09:52:00      -76.005      -41.810      -21.291       42.027       41.065       24.566     1766.265     1686.360      603.488        0.602        0.203       86.746       13.873        0.026      344.750       21.790      857.533
09/18/2014  09:53:00       31.796        7.814        2.501       21.978       34.624       19.187      483.040     1198.822      368.122        0.156        0.102       32.742       17.811        0.296      344.845       21.954      857.512
09/18/2014  09:54:00       34.286       36.957        7.940       34.999       54.228       31.780     1224.923     2940.692     1009.954        0.389        0.259       50.412       23.074        0.210      345.124       22.431      857.487
09/18/2014  09:55:00       15.563      107.394      -11.888       35.151       43.073       36.563     1235.621     1855.272     1336.870        0.817        0.221      108.516       33.119        0.093      345.230       22.612      857.477
09/18/2014  09:56:00       59.503      112.728        5.436       39.837       43.404       39.488     1587.000     1883.895     1559.323        1.065        0.252      127.469       29.952        0.055      345.130       22.440      857.472
09/18/2014  09:57:00       46.256       37.575       10.349       24.282       25.727       28.053      589.594      661.893      786.978        0.285        0.102       59.595       17.477        0.086      345.078       22.352      857.482
09/18/2014  09:58:00      -32.455       -9.928      -12.224       16.442       16.765       18.494      270.335      281.064      342.040        0.110        0.045       33.939       12.781        0.142      345.122       22.427      857.482
09/18/2014  09:59:00      -14.481      -44.825        2.312       19.926       38.581       24.245      397.037     1488.501      587.796        0.235        0.124       47.106        8.995        0.036      345.291       22.717      857.483
09/18/2014  10:00:00      -11.231      -43.077       34.701       24.856       33.100       24.406      617.841     1095.599      595.629        0.275        0.115       44.517       18.169        0.167      345.738       23.483      857.493
09/18/2014  10:01:00      -30.539       -4.580       20.637       29.586       48.374       33.592      875.320     2340.010     1128.428        0.286        0.217       30.881       33.993        1.212      345.823       23.630      857.490
09/18/2014  10:02:00      -62.800      -82.934       -7.830       51.440       42.964       32.299     2646.045     1845.904     1043.229        0.821        0.277      104.028       24.424        0.055      345.250       22.647      857.500
09/18/2014  10:03:00      -29.706       12.699        4.489       27.673       37.756       26.048      765.803     1425.552      678.479        0.197        0.143       32.306       14.271        0.195      345.402       22.908      857.492
09/18/2014  10:04:00      -69.584      -43.557       -5.600       36.443       54.006       21.014     1328.077     2916.640      441.586        0.573        0.234       82.092       19.843        0.058      345.146       22.468      857.493
09/18/2014  10:05:00      -98.284     -103.525       -7.576       57.712       59.143       27.367     3330.619     3497.941      748.947        1.400        0.379      142.749       22.238        0.024      345.072       22.342      857.492
09/18/2014  10:06:00      -48.273      -94.645        4.886       37.657       34.111       30.283     1418.082     1163.578      917.053        0.740        0.175      106.245       27.209        0.066      345.108       22.403      857.480
09/18/2014  10:07:00      -57.001      -55.627      -12.717       26.584       44.677       22.448      706.692     1996.069      503.892        0.486        0.160       79.646       25.600        0.103      345.041       22.288      857.475
09/18/2014  10:08:00       20.796       24.095      -10.435       38.835       48.659       35.147     1508.151     2367.721     1235.343        0.312        0.256       31.829       22.309        0.491      345.236       22.623      857.468
09/18/2014  10:09:00       61.222       67.394       14.632       57.372       31.270       35.649     3291.602      977.797     1270.831        0.702        0.277       91.050       22.350        0.060      345.592       23.232      857.429
09/18/2014  10:10:00      -15.276       55.361       -7.539       32.663       39.179       23.714     1066.868     1535.021      562.335        0.326        0.158       57.430       20.846        0.132      345.570       23.194      857.440
09/18/2014  10:11:00        0.671        9.225       -4.288       78.034       50.314       30.877     6089.241     2531.525      953.364        0.484        0.479        9.249       35.193       14.478      345.582       23.215      857.419
09/18/2014  10:12:00     -162.924       24.170      -11.565       80.535       65.737       43.486     6485.870     4321.321     1891.043        1.998        0.635      164.707       32.607        0.039      345.325       22.772      857.424
09/18/2014  10:13:00     -275.362      -15.657      -11.746      136.197      142.199       57.998    18549.507    20220.532     3363.821        5.916        2.107      275.807       62.668        0.052      345.372       22.851      857.393
09/18/2014  10:14:00     -164.840      -90.703        5.666      100.747       74.337       47.060    10149.878     5525.923     2214.622        2.666        0.895      188.147       47.613        0.064      345.399       22.899      857.393
09/18/2014  10:15:00      -82.628       48.736       13.175       90.543       70.337       54.089     8197.983     4947.256     2925.655        1.272        0.804       95.931       57.632        0.361      345.701       23.421      857.398
09/18/2014  10:16:00     -137.387       58.186      -13.148       47.337       49.915       28.713     2240.819     2491.476      824.432        1.399        0.278      149.200       21.888        0.022      345.165       22.501      857.387
09/18/2014  10:17:00     -129.358       25.685      -13.263       46.150       32.422       30.177     2129.845     1051.218      910.668        1.083        0.205      131.884       28.804        0.048      345.229       22.611      857.384
09/18/2014  10:18:00      -34.372       -3.630       -7.623       91.128       39.376       29.245     8304.231     1550.473      855.279        0.598        0.535       34.564       35.941        1.081      345.286       22.707      857.377
09/18/2014  10:19:00        9.114       73.047       -7.803       40.165       48.113       33.902     1613.196     2314.832     1149.328        0.528        0.254       73.613       13.624        0.034      345.566       23.188      857.372
09/18/2014  10:20:00       -4.681       49.699      -16.743       26.645       49.758       18.128      709.956     2475.811      328.611        0.314        0.176       49.919       21.512        0.186      345.646       23.326      857.360
09/18/2014  10:21:00       34.176       38.190        7.962       30.253       29.075       28.712      915.240      845.331      824.388        0.264        0.129       51.249       22.065        0.185      345.851       23.677      857.364
09/18/2014  10:22:00       28.215       13.682       17.336       24.207       25.201       18.872      585.969      635.113      356.160        0.143        0.079       31.357       18.012        0.330      345.780       23.555      857.346
09/18/2014  10:23:00        1.317       27.099       42.791       19.001       25.827       18.715      361.052      667.026      350.260        0.197        0.069       27.131       10.032        0.137      346.490       24.775      857.335
09/18/2014  10:24:00      -35.560       -0.256       -0.453       28.194       19.731       22.300      794.889      389.293      497.304        0.147        0.084       35.561       18.820        0.280      346.175       24.235      857.345
09/18/2014  10:25:00     -114.302      -60.805       -0.425       46.280       62.940       30.579     2141.839     3961.461      935.079        1.190        0.352      129.469       20.395        0.025      345.510       23.091      857.367
09/18/2014  10:26:00     -197.104       45.321       -7.903      103.346       64.650       48.768    10680.397     4179.565     2378.279        2.910        0.862      202.247       41.102        0.041      345.656       23.340      857.361
09/18/2014  10:27:00     -204.353       33.655      -20.288       90.315       62.995       43.016     8156.728     3968.348     1850.368        2.864        0.699      207.105       42.967        0.043      345.382       22.869      857.365
09/18/2014  10:28:00     -265.081       61.277      -23.152       91.387       55.406       34.424     8351.644     3069.861     1185.027        4.358        0.630      272.071       34.502        0.016      345.314       22.752      857.339
09/18/2014  10:29:00     -175.035      -15.674       -6.239       91.602       95.196       47.287     8390.885     9062.193     2236.102        2.530        0.984      175.735       40.339        0.053      345.663       23.352      857.307
09/18/2014  10:30:00     -147.354      -49.466       12.814      119.847       74.405       53.920    14363.335     5536.163     2907.410        2.356        1.140      155.435       62.341        0.161      346.009       23.946      857.316
09/18/2014  10:31:00     -133.064      -96.520        9.581       85.196      110.734       55.652     7258.342    12262.118     3097.129        2.486        1.131      164.385       53.044        0.104      345.797       23.583      857.334
09/18/2014  10:32:00     -171.175      -86.503       -1.721      107.287       81.584       47.603    11510.512     6655.919     2266.044        2.861        1.022      191.790       56.787        0.088      345.647       23.325      857.332
09/18/2014  10:33:00     -236.723      -78.622      -21.976       49.461       52.194       34.824     2446.415     2724.238     1212.704        3.454        0.319      249.437       24.975        0.010      345.376       22.856      857.322
09/18/2014  10:34:00      -65.754      -16.516       12.878       86.867       27.015       33.775     7545.884      729.835     1140.718        0.709        0.471       67.797       45.935        0.459      345.956       23.859      857.316
09/18/2014  10:35:00      -40.807      -47.623        2.144       50.031       29.815       23.852     2503.071      888.906      568.927        0.395        0.198       62.715       22.230        0.126      345.771       23.540      857.277
09/18/2014  10:36:00        3.414       -9.633       22.992       45.808       30.020       30.438     2098.358      901.224      926.490        0.228        0.196       10.220       32.514       10.121      346.232       24.331      857.274
09/18/2014  10:37:00      -45.258      -74.853       -4.332       24.741       24.572       14.855      612.141      603.770      220.658        0.455        0.072       87.472       10.080        0.013      345.523       23.113      857.253
09/18/2014  10:38:00      -56.771      -25.878       -2.367       34.125       38.974       22.303     1164.513     1518.943      497.412        0.354        0.159       62.390       13.629        0.048      345.700       23.418      857.260
09/18/2014  10:39:00     -155.955      -87.723      -13.548       73.338       67.599       40.206     5378.492     4569.686     1616.492        2.188        0.578      178.933       36.722        0.042      345.674       23.371      857.254
09/18/2014  10:40:00      -71.208      -73.430       10.193       99.978       68.299       42.606     9995.674     4664.701     1815.269        1.352        0.824      102.287       31.746        0.096      345.782       23.557      857.256
09/18/2014  10:41:00      -21.028      -31.672        2.641       84.968       56.952       30.256     7219.518     3243.563      915.423        0.641        0.569       38.017       27.445        0.521      345.870       23.711      857.251
09/18/2014  10:42:00       42.311      -22.115       42.453       72.805       70.584       64.605     5300.520     4982.096     4173.860        0.927        0.723       47.742       52.170        1.194      346.476       24.750      857.245
09/18/2014  10:43:00      159.829      -84.585       13.369      116.486      144.657       81.667    13569.068    20925.539     6669.435        3.701        2.058      180.831       99.603        0.303      346.067       24.045      857.218
09/18/2014  10:44:00       84.589      -54.479       58.971      140.231      194.616      128.310    19664.798    37875.390    16463.488        4.379        3.700      100.615      148.882        2.190      346.404       24.625      857.190
09/18/2014  10:45:00       46.403     -115.882      -10.568       74.143      100.953       70.868     5497.147    10191.551     5022.292        1.820        1.036      124.827       49.394        0.157      346.377       24.580      857.234
09/18/2014  10:46:00       39.176      112.666      129.108       60.630       77.487       45.629     3675.970     6004.213     2082.012        2.133        0.588      119.283       43.049        0.130      346.423       24.659      857.244
09/18/2014  10:47:00       24.880      -49.269       25.272       40.292       78.334       43.516     1623.466     6136.281     1893.678        0.667        0.483       55.195       41.482        0.565      346.510       24.809      857.259
09/18/2014  10:48:00       12.810     -195.564       -9.662      120.376       68.011       46.305    14490.335     4625.502     2144.184        2.988        1.063      195.983       37.874        0.037      345.954       23.851      857.263
09/18/2014  10:49:00      -78.116      -38.486       -2.712       72.745       44.055       34.957     5291.900     1940.864     1222.018        0.802        0.423       87.082       32.435        0.139      346.479       24.756      857.293
09/18/2014  10:50:00      -35.215      -31.929       30.011       74.412       85.576       62.220     5537.124     7323.170     3871.388        0.994        0.837       47.535       47.890        1.015      346.750       25.223      857.298
09/18/2014  10:51:00      -16.154       28.483        5.752       45.464       45.190       36.113     2067.000     2042.117     1304.165        0.326        0.271       32.745       15.178        0.215      346.633       25.020      857.331
09/18/2014  10:52:00       35.423     -152.571        1.222       54.910       76.761       49.234     3015.072     5892.185     2423.991        1.793        0.567      156.629       46.272        0.087      346.259       24.377      857.332
09/18/2014  10:53:00      -15.970      -17.693       51.505       40.921       64.797       41.661     1674.537     4198.687     1735.609        0.541        0.380       23.834       32.610        1.872      346.941       25.552      857.328
09/18/2014  10:54:00      -57.781      -43.235       10.247       47.064       43.639       31.743     2215.028     1904.323     1007.594        0.522        0.256       72.166       27.824        0.149      346.493       24.780      857.349
09/18/2014  10:55:00     -100.019     -112.612        7.567      105.570       81.383       50.428    11145.112     6623.218     2542.968        2.152        1.016      150.616       38.999        0.067      346.251       24.362      857.344
09/18/2014  10:56:00     -171.870     -104.525       -7.107       83.172       62.964       43.073     6917.636     3964.514     1855.293        2.662        0.637      201.158       38.174        0.036      345.810       23.602      857.362
09/18/2014  10:57:00     -125.028      -25.443       -1.650       54.209       47.763       26.827     2938.616     2281.284      719.689        1.111        0.297      127.591       23.216        0.033      346.023       23.973      857.337
09/18/2014  10:58:00      -91.785      -26.028       -0.756       66.724       32.372       29.761     4452.104     1047.961      885.709        0.774        0.319       95.404       35.025        0.135      346.153       24.196      857.323
09/18/2014  10:59:00      -66.811     -123.427       -5.229       37.396       56.246       29.273     1398.493     3163.594      856.921        1.257        0.271      140.349       19.925        0.020      345.953       23.852      857.313
09/18/2014  11:00:00      -40.444      -22.373        0.272       57.820       37.987       23.163     3343.099     1442.976      536.544        0.373        0.266       46.220       14.864        0.103      346.302       24.452      857.317
09/18/2014  11:01:00      -59.398      -53.394       12.438       69.824       54.093       43.676     4875.334     2926.006     1907.607        0.812        0.485       79.869       42.677        0.286      346.410       24.638      857.357
09/18/2014  11:02:00       42.977      -65.782       31.040       66.247      128.838       63.282     4388.701    16599.164     4004.649        1.606        1.250       78.577       75.078        0.913      347.084       25.798      857.310
09/18/2014  11:03:00      -26.220     -146.126       38.497      142.693      259.214      105.495    20361.182    67191.647    11129.235        6.108        4.934      148.459      130.874        0.777      346.547       24.870      857.300
09/18/2014  11:04:00     -125.801     -178.536       19.799      143.302      181.574      104.457    20535.392    32969.096    10911.211        5.624        3.221      218.405       95.902        0.193      346.609       24.977      857.307
09/18/2014  11:05:00      -75.890     -331.931      -33.703      133.320      197.568       86.036    17774.153    39033.184     7402.175        9.063        3.210      340.496       89.930        0.070      346.054       24.022      857.363
09/18/2014  11:06:00      -15.398     -250.405      -23.099       91.154      116.052       72.076     8309.073    13467.960     5194.924        4.522        1.349      250.878       51.735        0.043      346.052       24.020      857.329
09/18/2014  11:07:00      -80.917     -164.352      -35.969      110.320      105.797       67.554    12170.517    11192.913     4563.501        3.138        1.396      183.192       53.683        0.086      346.171       24.225      857.282
09/18/2014  11:08:00     -145.341     -158.804       17.944      178.103      120.520       76.283    31720.510    14525.163     5819.085        4.935        2.603      215.273      103.197        0.230      346.413       24.641      857.246
09/18/2014  11:09:00     -177.155     -160.007       -5.149      117.106       86.324       49.264    13713.852     7451.780     2426.961        4.030        1.180      238.717       41.144        0.030      346.282       24.414      857.235
09/18/2014  11:10:00      -97.961     -202.875      -14.184      108.881      102.564       52.668    11854.984    10519.458     2773.906        3.805        1.257      225.288       50.601        0.050      346.490       24.773      857.227
09/18/2014  11:11:00     -106.287      -94.130        4.091      136.933       96.053       60.477    18750.600     9226.193     3657.473        2.590        1.582      141.977       72.323        0.259      346.977       25.612      857.230
09/18/2014  11:12:00     -209.905      -98.900      -11.449      131.411       95.078       64.524    17268.876     9039.912     4163.330        4.222        1.524      232.037       41.719        0.032      346.736       25.194      857.241
09/18/2014  11:13:00     -181.761      -88.607       -0.636      149.050      109.724       52.136    22216.016    12039.410     2718.209        3.892        1.849      202.209       58.211        0.083      346.244       24.352      857.245
09/18/2014  11:14:00     -218.689     -314.980      -12.940      149.375      140.427       74.470    22312.830    19719.785     5545.854        9.738        2.379      383.454       69.582        0.033      345.955       23.851      857.273
09/18/2014  11:15:00     -141.206     -140.027       12.902       94.696      121.239       63.900     8967.256    14698.854     4083.251        3.373        1.387      198.863       55.472        0.078      346.258       24.374      857.276
09/18/2014  11:16:00     -175.739     -161.371       -0.073      161.886      161.972       68.090    26207.141    26234.975     4636.194        5.699        2.854      238.590       78.345        0.108      346.400       24.618      857.297
09/18/2014  11:17:00     -107.719      -51.963        6.638       86.835       95.316       64.001     7540.348     9085.167     4096.166        1.753        1.036      119.597       61.532        0.265      346.553       24.882      857.280
09/18/2014  11:18:00     -153.000     -163.397      -22.927       82.606       91.048       47.991     6823.672     8289.783     2303.169        3.402        0.871      223.847       44.329        0.039      346.192       24.260      857.286
09/18/2014  11:19:00     -257.147     -218.407       -1.320      130.204      104.702       55.449    16953.057    10962.591     3074.540        7.240        1.550      337.382       40.414        0.014      346.247       24.352      857.269
09/18/2014  11:20:00     -269.168     -105.063       -0.543      192.577      209.781       73.212    37085.789    44008.240     5360.056        8.495        4.323      288.946       70.370        0.059      346.606       24.971      857.240
09/18/2014  11:21:00     -320.783      -70.578      -23.038      163.479      142.021       69.198    26725.328    20170.073     4788.402        8.004        2.584      328.455       69.313        0.045      346.509       24.804      857.262
09/18/2014  11:22:00     -308.136     -159.689       -9.658      163.819      112.569       66.450    26836.757    12671.711     4415.649        8.222        2.196      347.056       68.436        0.039      346.252       24.364      857.250
09/18/2014  11:23:00     -288.254      -16.673       -7.441      152.188      115.654       70.966    23161.253    13375.780     5036.134        6.249        2.079      288.736       72.967        0.064      346.145       24.179      857.307
09/18/2014  11:24:00     -395.914       60.929      -36.935      151.623       79.094       58.410    22989.482     6255.813     3411.715        9.723        1.633      400.575       70.605        0.031      346.285       24.419      857.312
09/18/2014  11:25:00     -317.166      -68.833      -19.121      149.907      124.338       60.353    22472.072    15460.054     3642.544        7.363        2.079      324.549       68.608        0.045      346.173       24.227      857.321
09/18/2014  11:26:00     -152.947       32.065      -10.167      102.094       80.457       47.541    10423.117     6473.251     2260.110        2.184        0.958      156.272       38.600        0.061      346.400       24.618      857.296
09/18/2014  11:27:00     -226.908      -69.137       -5.605      118.364      109.025       65.216    14009.962    11886.354     4253.132        4.322        1.507      237.207       68.765        0.084      346.576       24.919      857.311
09/18/2014  11:28:00     -121.505     -185.945        1.160      116.150       98.495       50.200    13490.840     9701.300     2520.013        3.752        1.286      222.124       35.397        0.025      346.137       24.164      857.344
09/18/2014  11:29:00     -241.778     -156.311      -12.159      120.583      126.026       57.715    14540.171    15882.602     3331.016        5.839        1.688      287.906       36.645        0.016      346.297       24.439      857.362
09/18/2014  11:30:00     -338.336     -131.166      -10.061      123.520      119.632       52.744    15257.089    14311.730     2781.906        8.206        1.618      362.872       42.468        0.014      346.184       24.246      857.370
09/18/2014  11:31:00     -235.901      -77.167      -15.404      116.212      103.062       47.373    13505.252    10621.790     2244.178        4.410        1.319      248.201       49.126        0.039      346.052       24.019      857.377
09/18/2014  11:32:00      -18.835      -34.336       21.690      106.399       64.927       45.950    11320.799     4215.505     2111.387        0.982        0.882       39.163       43.956        1.260      346.391       24.606      857.384
09/18/2014  11:33:00     -199.278     -125.648       -1.049      117.116       68.583       39.157    13716.160     4703.661     1533.259        3.772        0.998      235.582       42.440        0.032      346.026       23.976      857.380
09/18/2014  11:34:00     -265.694      -96.666      -10.366      104.920      112.085       53.832    11008.193    12563.088     2897.888        5.325        1.323      282.733       58.252        0.042      346.066       24.043      857.367
09/18/2014  11:35:00     -285.790      -26.316      -20.037      119.572       83.013       55.894    14297.522     6891.161     3124.172        5.354        1.216      286.999       59.255        0.043      346.052       24.020      857.369
09/18/2014  11:36:00      -98.964       -1.561       -0.383      115.029       75.664       49.224    13231.749     5725.008     2423.013        1.558        1.069       98.976       41.489        0.176      346.162       24.210      857.340
09/18/2014  11:37:00     -160.329     -140.233       12.454      163.705      106.095       60.598    26799.278    11256.058     3672.125        4.362        2.086      213.003       69.791        0.107      346.149       24.186      857.354
09/18/2014  11:38:00     -149.332     -162.981       11.466      143.973      115.711       57.260    20728.143    13388.925     3278.764        4.319        1.870      221.050       54.938        0.062      346.096       24.095      857.362
09/18/2014  11:39:00      -19.134     -122.400        9.698       94.714       96.701       49.753     8970.785     9351.080     2475.405        1.812        1.040      123.887       50.131        0.164      346.257       24.374      857.343
09/18/2014  11:40:00     -220.219     -115.759        7.412      119.137      102.274       59.609    14193.686    10459.902     3553.262        4.507        1.410      248.790       70.673        0.081      346.184       24.245      857.351
09/18/2014  11:41:00     -234.429      -21.503      -11.491       75.610       68.673       31.879     5716.800     4715.936     1016.254        3.350        0.572      235.413       36.117        0.024      345.919       23.790      857.358
09/18/2014  11:42:00     -125.526      -87.748       -6.320       86.153       87.370       37.083     7422.333     7633.531     1375.180        1.996        0.822      153.155       30.352        0.039      346.201       24.277      857.331
09/18/2014  11:43:00      -74.067     -283.853       10.994       98.425      124.429       47.934     9687.575    15482.486     2297.716        5.682        1.373      293.357       47.701        0.026      346.271       24.396      857.327
09/18/2014  11:44:00     -186.514     -150.331       -4.024      128.944      101.409       60.498    16626.588    10283.763     3660.050        4.398        1.529      239.556       64.772        0.073      346.275       24.405      857.343
09/18/2014  11:45:00     -179.524      -66.834        8.830      160.732       89.615       53.349    25834.722     8030.917     2846.073        3.674        1.836      191.561       56.083        0.086      346.588       24.940      857.319
09/18/2014  11:46:00     -146.900     -127.427       -5.197       92.468       60.162       38.830     8550.322     3619.511     1507.764        2.576        0.684      194.466       35.826        0.034      346.098       24.099      857.325
09/18/2014  11:47:00      -47.347     -149.491        7.373       56.819       30.240       24.497     3228.393      914.436      600.086        1.469        0.237      156.809       21.392        0.019      345.918       23.792      857.303
09/18/2014  11:48:00     -198.506     -103.459      -27.013      108.930       62.371       29.560    11865.701     3890.153      873.784        3.373        0.831      223.849       37.964        0.029      346.133       24.158      857.271
09/18/2014  11:49:00     -138.506      -53.238      -23.577       96.721       54.568       35.447     9354.877     2977.700     1256.506        1.808        0.679      148.385       36.776        0.061      346.272       24.400      857.267
09/18/2014  11:50:00      -35.084      -13.029        3.882       72.111       48.840       42.022     5199.937     2385.385     1765.824        0.538        0.468       37.425       43.920        1.377      346.871       25.431      857.241
09/18/2014  11:51:00      -63.195      -52.195        8.364       73.139       85.303       53.578     5349.299     7276.648     2870.604        1.114        0.775       81.963       41.410        0.255      346.796       25.301      857.241
09/18/2014  11:52:00     -210.189     -136.463       -8.658      107.754      153.927       53.483    11610.887    23693.545     2860.484        5.051        1.908      250.602       46.348        0.034      346.438       24.682      857.261
09/18/2014  11:53:00      -61.482     -200.739        9.671       71.337       90.727       47.815     5088.955     8231.319     2286.280        2.988        0.780      209.943       32.831        0.024      346.417       24.646      857.245
09/18/2014  11:54:00     -103.389     -103.722       12.871       98.695       79.683       49.205     9740.676     6349.432     2421.119        2.006        0.926      146.450       58.834        0.161      346.919       25.513      857.220
09/18/2014  11:55:00     -226.917     -128.948       -1.230      162.380       94.059       66.717    26367.332     8847.188     4451.206        5.389        1.983      260.996       75.348        0.083      346.628       25.010      857.208
09/18/2014  11:56:00     -173.277      -55.603      -10.272      153.032      120.031       55.642    23418.666    14407.535     3096.008        3.706        2.046      181.979       52.258        0.082      346.412       24.640      857.215
09/18/2014  11:57:00     -128.881     -140.402        9.562      135.774      110.233       61.266    18434.691    12151.212     3753.470        3.537        1.717      190.586       70.785        0.138      346.353       24.537      857.211
09/18/2014  11:58:00     -186.017     -166.552        1.006      132.862      128.243       63.586    17652.377    16446.329     4043.178        5.023        1.907      249.683       56.449        0.051      346.364       24.554      857.212
09/18/2014  11:59:00     -213.436     -156.983      -23.929       67.768       98.597       35.461     4592.487     9721.402     1257.511        4.317        0.779      264.950       33.549        0.016      345.977       23.890      857.228
09/18/2014  12:00:00      -72.518     -180.367        8.211       65.886      132.285       40.903     4340.975    17499.298     1673.089        3.068        1.176      194.399       46.615        0.057      346.310       24.465      857.196
09/18/2014  12:01:00      -85.150      -99.489       13.758       73.316      163.549       57.329     5375.302    26748.380     3286.578        2.637        1.771      130.953       57.510        0.193      346.661       25.068      857.128
09/18/2014  12:02:00     -236.624     -269.629       15.761      185.817      224.048       84.066    34527.906    50197.643     7067.011       11.035        4.590      358.735       74.973        0.044      346.800       25.305      857.091
09/18/2014  12:03:00     -183.370     -168.810      -18.420      133.214      124.463       70.891    17746.028    15491.003     5025.571        5.035        1.913      249.242       60.496        0.059      346.440       24.686      857.163
09/18/2014  12:04:00     -204.518     -243.271        8.902      171.265      135.454       76.293    29331.623    18347.887     5820.567        7.728        2.675      317.818       82.895        0.068      346.444       24.691      857.150
09/18/2014  12:05:00     -385.083     -212.596       -7.238      189.087      134.229       89.133    35754.035    18017.355     7944.695       12.761        3.086      439.870       96.957        0.049      346.299       24.443      857.177
09/18/2014  12:06:00     -188.116      -87.356        8.263      151.511      120.923       72.225    22955.646    14622.261     5216.520        4.293        2.140      207.409       78.916        0.145      346.336       24.509      857.241
09/18/2014  12:07:00      -74.045      -67.309       31.999      106.930       91.389       68.161    11434.085     8351.870     4645.909        1.773        1.222      100.066       60.776        0.369      346.393       24.608      857.204
09/18/2014  12:08:00     -324.056       23.632      -13.353      176.045      109.742       67.756    30991.762    12043.372     4590.815        7.668        2.381      324.916       81.594        0.063      346.182       24.242      857.182
09/18/2014  12:09:00     -297.722      -29.572        5.416      130.332      131.843       85.837    16986.543    17382.528     7367.960        6.563        2.087      299.187       81.162        0.074      346.342       24.516      857.156
09/18/2014  12:10:00     -296.842      -93.482       -3.519      107.036      110.636       62.220    11456.607    12240.424     3871.315        6.221        1.378      311.214       57.859        0.035      346.236       24.334      857.192
09/18/2014  12:11:00      -95.755     -185.903       16.069       96.156      196.235       48.716     9245.975    38508.165     2373.235        4.705        2.506      209.115       40.087        0.037      346.206       24.283      857.208
09/18/2014  12:12:00     -151.648      -75.970       12.821       86.071      114.779       50.243     7408.136    13174.175     2524.332        2.602        1.155      169.613       43.202        0.065      346.293       24.436      857.183
09/18/2014  12:13:00     -135.222      -72.128        3.158       84.112       67.050       44.473     7074.866     4495.704     1977.835        1.852        0.677      153.256       46.599        0.092      346.366       24.561      857.188
09/18/2014  12:14:00     -272.139      -57.167       -1.042      132.930      112.730       69.925    17670.514    12708.078     4889.541        5.629        1.763      278.079       78.885        0.080      346.387       24.594      857.186
09/18/2014  12:15:00     -231.700      -73.932      -26.924      121.431       82.874       43.018    14745.416     6868.097     1850.589        4.167        1.173      243.209       52.865        0.047      346.182       24.242      857.165
09/18/2014  12:16:00     -165.237     -247.968       -3.248      131.017      121.104       71.898    17165.339    14666.074     5169.309        6.289        1.850      297.979       68.260        0.052      346.325       24.488      857.179
09/18/2014  12:17:00     -251.146     -150.926        0.436      146.839      114.374       68.433    21561.690    13081.441     4683.105        6.258        1.966      293.007       67.707        0.053      346.530       24.841      857.186
09/18/2014  12:18:00     -307.825     -171.583        4.147      196.531      139.162       77.528    38624.271    19366.173     6010.618        9.409        3.200      352.416       97.668        0.077      346.492       24.775      857.163
09/18/2014  12:19:00     -188.546     -203.736        0.470      142.256      125.494       69.266    20236.911    15748.672     4797.765        5.891        2.039      277.593       68.330        0.061      346.591       24.945      857.157
09/18/2014  12:20:00     -267.266     -214.792        2.347      192.481      136.784       81.072    37048.958    18709.730     6572.650        8.994        3.117      342.880       89.878        0.069      346.502       24.793      857.132
09/18/2014  12:21:00     -288.827      -40.929       -4.438      152.124      163.562       73.815    23141.761    26752.571     5448.675        7.022        2.767      291.712       67.918        0.054      346.712       25.153      857.109
09/18/2014  12:22:00     -216.159     -115.094        2.115      130.227      119.384       67.457    16959.198    14252.462     4550.499        4.786        1.788      244.890       56.554        0.053      346.811       25.324      857.129
09/18/2014  12:23:00     -183.921     -106.807        2.321      160.489      109.047       61.088    25756.597    11891.144     3731.704        4.330        2.069      212.684       68.815        0.105      346.766       25.247      857.145
09/18/2014  12:24:00     -226.289     -199.387      -14.089      151.129      124.531       61.012    22839.845    15507.906     3722.513        6.661        2.104      301.599       55.239        0.034      346.410       24.633      857.158
09/18/2014  12:25:00     -236.014     -132.439        9.975      129.331       85.264       56.492    16726.534     7269.906     3191.401        5.026        1.359      270.634       46.467        0.029      346.411       24.635      857.147
09/18/2014  12:26:00     -230.827     -180.348       -3.893      113.672      103.308       52.008    12921.419    10672.493     2704.809        5.605        1.315      292.927       52.081        0.032      346.333       24.501      857.143
09/18/2014  12:27:00     -132.902     -230.114      -13.554       75.791      127.341       37.008     5744.345    16215.659     1369.591        4.706        1.166      265.736       36.645        0.019      346.270       24.395      857.138
09/18/2014  12:28:00     -307.786     -181.453      -15.712      150.772       85.217       54.713    22732.132     7262.008     2993.542        8.044        1.649      357.291       57.710        0.026      346.365       24.557      857.112
09/18/2014  12:29:00     -129.453     -198.826       -6.000      129.897      134.700       46.535    16873.119    18144.122     2165.493        4.675        1.859      237.255       45.736        0.037      346.407       24.629      857.100
09/18/2014  12:30:00     -179.475     -152.460       -8.921      133.878       81.139       40.627    17923.442     6583.518     1650.530        4.084        1.308      235.490       44.523        0.036      346.369       24.563      857.055
09/18/2014  12:31:00     -314.838     -172.440       -2.399      136.517      124.831       70.197    18636.862    15582.856     4927.686        8.400        1.957      358.969       73.762        0.042      346.337       24.509      857.013
09/18/2014  12:32:00     -248.152     -174.726       -6.003      113.827       95.674       53.697    12956.669     9153.492     2883.325        5.856        1.250      303.494       50.405        0.028      346.250       24.359      857.022
09/18/2014  12:33:00     -168.451     -136.517        4.680      121.775       60.758       38.972    14829.203     3691.497     1518.779        3.353        1.002      216.824       42.420        0.038      346.356       24.541      856.982
09/18/2014  12:34:00      -88.236      -90.122        5.796       75.717       74.722       42.045     5733.073     5583.375     1767.779        1.451        0.654      126.126       46.827        0.138      346.623       25.001      856.963
09/18/2014  12:35:00     -108.756     -179.809        1.946       58.391       92.920       39.956     3409.485     8634.115     1596.479        2.890        0.682      210.141       32.713        0.024      346.514       24.814      856.968
09/18/2014  12:36:00     -140.774      -54.053       -2.770       92.002       74.880       52.462     8464.391     5607.061     2752.268        1.978        0.841      150.795       52.544        0.121      346.667       25.077      856.936
09/18/2014  12:37:00     -101.325     -100.089       -4.629      103.932       85.366       63.827    10801.766     7287.388     4073.852        2.123        1.108      142.424       61.551        0.187      346.796       25.299      856.905
09/18/2014  12:38:00     -133.893      -70.761       10.934       82.306       66.601       43.926     6774.303     4435.698     1929.455        1.809        0.657      151.441       43.649        0.083      346.865       25.418      856.904
09/18/2014  12:39:00     -195.093      -74.192        3.532      120.952       93.046       47.561    14629.349     8657.613     2262.092        3.456        1.277      208.724       45.106        0.047      346.851       25.394      856.909
09/18/2014  12:40:00     -284.807     -133.459      -21.102      102.677      115.126       59.579    10542.466    13254.064     3549.658        6.335        1.367      314.525       63.292        0.040      346.520       24.823      856.922
09/18/2014  12:41:00     -176.777     -131.066       -5.422      120.509       88.073       55.290    14522.347     7756.879     3056.931        3.689        1.267      220.065       62.228        0.080      346.497       24.785      856.918
09/18/2014  12:42:00      -88.781     -126.499      -10.086       60.955       88.754       30.584     3715.476     7877.253      935.367        1.825        0.626      154.545       29.460        0.036      346.116       24.129      856.912
09/18/2014  12:43:00     -121.554      -76.508        8.038       90.940       57.755       40.180     8270.051     3335.666     1614.399        1.695        0.661      143.627       41.153        0.082      346.287       24.424      856.902
09/18/2014  12:44:00     -136.276      -59.550        1.839       72.246       54.452       33.468     5219.417     2965.038     1120.103        1.571        0.465      148.719       27.048        0.033      346.458       24.719      856.903
09/18/2014  12:45:00     -150.725     -128.446        5.675      115.379       73.770       53.425    13312.335     5441.949     2854.279        3.042        1.080      198.032       58.202        0.086      346.561       24.894      856.907
09/18/2014  12:46:00     -191.796     -262.087       -1.543      146.309      122.301       83.178    21406.265    14957.436     6918.602        7.437        2.164      324.769       80.154        0.061      346.499       24.788      856.899
09/18/2014  12:47:00     -189.014     -110.466       13.453      196.753      106.409       58.498    38711.649    11322.901     3422.003        5.077        2.673      218.927       75.267        0.118      346.523       24.828      856.904
09/18/2014  12:48:00     -279.760     -226.869       -6.781      155.882      142.942       88.803    24299.073    20432.324     7886.010        9.119        2.631      360.188       83.425        0.054      346.423       24.657      856.906
09/18/2014  12:49:00     -510.598     -103.895      -33.150      252.596      148.915       83.904    63804.804    22175.775     7039.896       18.279        4.651      521.061       90.783        0.030      346.317       24.475      856.914
09/18/2014  12:50:00     -362.844     -199.589      -19.195      158.369      134.757       79.825    25080.596    18159.372     6372.022       11.073        2.481      414.115       85.819        0.043      346.204       24.280      856.929
09/18/2014  12:51:00     -338.501     -226.017       -1.914      170.224      138.962       65.692    28976.058    19310.551     4315.490       10.913        2.630      407.022       66.974        0.027      346.222       24.311      856.948
09/18/2014  12:52:00     -419.380     -202.502       -1.991      149.924      106.609       70.594    22477.238    11365.478     4983.536       12.785        1.941      465.710       73.194        0.025      346.187       24.249      856.917
09/18/2014  12:53:00     -210.355      -94.646       -3.256      165.069       88.316       52.211    27247.751     7799.709     2726.022        4.549        1.889      230.666       73.145        0.101      346.325       24.489      856.910
09/18/2014  12:54:00     -284.378      -81.374      -11.968      121.760      114.035       57.886    14825.376    13003.908     3350.740        5.940        1.559      295.792       41.253        0.019      346.255       24.368      856.905
09/18/2014  12:55:00     -190.123      -21.169        5.172      117.356       78.368       48.087    13772.370     6141.506     2312.397        2.942        1.111      191.298       54.767        0.082      346.434       24.676      856.907
09/18/2014  12:56:00     -225.555      -56.097       -7.943      138.351       81.615       47.395    19141.015     6660.946     2246.315        4.106        1.402      232.426       54.436        0.055      346.325       24.489      856.905
09/18/2014  12:57:00     -184.294      -19.419       -1.633      138.538       75.416       43.319    19192.713     5687.548     1876.534        3.054        1.338      185.314       50.594        0.075      346.370       24.567      856.879
09/18/2014  12:58:00     -167.186      -20.623       -2.116      113.157       80.169       46.245    12804.511     6427.133     2138.626        2.487        1.069      168.453       53.075        0.099      346.329       24.495      856.839
09/18/2014  12:59:00     -143.172      -27.731       -5.587       87.883       84.609       49.182     7723.491     7158.716     2418.917        1.930        0.865      145.833       42.778        0.086      346.419       24.651      856.833
09/18/2014  13:00:00     -125.782      -60.915       12.686       91.289       67.295       43.624     8333.630     4528.612     1903.023        1.723        0.738      139.756       43.510        0.097      346.422       24.656      856.812
09/18/2014  13:01:00     -387.215      -67.585      -12.317      216.149      112.922       84.408    46720.580    12751.398     7124.778       11.061        3.330      393.069      102.712        0.068      346.427       24.664      856.763
09/18/2014  13:02:00     -117.174     -125.171       17.641      154.231      144.234       56.361    23787.172    20803.320     3176.569        3.873        2.388      171.457       61.078        0.127      346.519       24.822      856.786
09/18/2014  13:03:00     -114.653     -123.791        2.305      110.176       92.749       50.465    12138.806     8602.334     2546.705        2.588        1.164      168.729       54.125        0.103      346.523       24.830      856.773
09/18/2014  13:04:00     -216.292     -129.845       14.346      168.370      105.652       76.811    28348.320    11162.260     5899.967        5.462        2.271      252.274       85.989        0.116      346.437       24.681      856.793
09/18/2014  13:05:00     -208.701     -108.389       -6.468      123.476      106.587       51.790    15246.248    11360.858     2682.171        4.231        1.464      235.169       51.042        0.047      346.431       24.669      856.838
09/18/2014  13:06:00     -329.928     -129.839       -8.594      137.285      103.522       63.422    18847.212    10716.771     4022.297        7.968        1.679      354.557       67.022        0.036      346.233       24.328      856.845
09/18/2014  13:07:00     -282.624     -245.903       19.454      233.191      179.737       98.659    54377.902    32305.320     9733.528       11.855        4.821      374.625      112.969        0.091      346.159       24.204      856.855
09/18/2014  13:08:00     -362.089      -67.013       -8.415      138.422      130.510       61.438    19160.566    17032.868     3774.583        8.781        1.998      368.238       53.146        0.021      346.181       24.240      856.901
09/18/2014  13:09:00     -125.432      -44.472       17.296      121.663       89.438       60.515    14801.857     7999.146     3662.075        2.223        1.323      133.082       58.655        0.194      346.342       24.518      856.893
09/18/2014  13:10:00     -404.349      -81.759      -21.371      201.082      125.840       73.981    40434.053    15835.749     5473.119       11.618        3.087      412.532       86.671        0.044      346.204       24.279      856.914
09/18/2014  13:11:00     -371.937     -123.956        1.923      232.782      163.000       87.930    54187.588    26568.926     7731.707       12.108        4.424      392.048      111.983        0.082      346.224       24.313      856.879
09/18/2014  13:12:00     -306.917      -80.006       -8.266      135.826      127.915       69.201    18448.642    16362.293     4788.834        7.013        1.980      317.174       69.523        0.048      346.208       24.286      856.901
09/18/2014  13:13:00     -185.801      -99.414        2.287      110.117      112.977       57.282    12125.679    12763.747     3281.284        3.628        1.409      210.725       59.052        0.079      346.221       24.309      856.901
09/18/2014  13:14:00     -250.777     -148.024        6.290      122.746       81.968       52.216    15066.557     6718.738     2726.530        5.467        1.226      291.205       56.927        0.038      346.300       24.444      856.900
09/18/2014  13:15:00     -228.763     -141.684      -12.087      148.941      123.544       70.637    22183.441    15263.180     4989.626        5.749        2.122      269.085       69.478        0.067      346.322       24.482      856.887
09/18/2014  13:16:00     -198.726      -84.548       12.994      230.026      178.568       87.195    52912.178    31886.503     7603.041        6.959        4.620      215.964      100.745        0.218      346.341       24.515      856.876
09/18/2014  13:17:00     -168.668      -70.369        6.915      142.112      111.376       71.185    20195.861    12404.549     5067.295        3.555        1.883      182.759       73.713        0.163      346.416       24.646      856.852
09/18/2014  13:18:00     -250.166      -74.324       -6.523      180.334      123.739       64.921    32520.393    15311.230     4214.714        6.009        2.602      260.973       70.443        0.073      346.532       24.844      856.848
09/18/2014  13:19:00     -517.726     -162.660      -37.781      173.509      151.235       76.343    30105.367    22871.950     5828.288       17.735        2.940      542.677       66.347        0.015      346.310       24.460      856.802
09/18/2014  13:20:00     -440.247      -89.794      -44.032      152.691      154.488       71.195    23314.400    23866.510     5068.708       12.802        2.612      449.310       56.019        0.016      346.413       24.640      856.779
09/18/2014  13:21:00     -337.980     -113.302      -11.010      119.971      110.108       57.124    14393.085    12123.698     3263.141        7.848        1.489      356.466       48.428        0.018      346.467       24.731      856.752
09/18/2014  13:22:00     -332.552      -49.279      -18.709      180.171      130.771       66.720    32461.611    17101.084     4451.511        8.368        2.701      336.183       82.111        0.060      346.664       25.069      856.755
09/18/2014  13:23:00     -268.352      -38.312      -11.381      210.260      147.969       97.497    44209.339    21894.750     9505.712        7.459        3.780      271.073      104.170        0.148      346.719       25.167      856.732
09/18/2014  13:24:00     -200.841     -173.370        8.920      245.155      169.399       92.289    60100.947    28695.880     8517.290        8.387        4.866      265.319      116.593        0.193      346.634       25.021      856.721
09/18/2014  13:25:00     -403.507      -82.520       -8.691      185.100      154.959       89.988    34261.940    24012.298     8097.777       11.802        3.319      411.859       88.401        0.046      346.554       24.882      856.717
09/18/2014  13:26:00     -327.494       13.199      -14.624      258.896      120.014       74.224    67027.175    14403.475     5509.189        9.727        4.347      327.760       93.059        0.081      346.660       25.065      856.715
09/18/2014  13:27:00     -304.162        4.290      -23.613      130.134      142.759       58.149    16934.956    20380.250     3381.270        6.689        2.035      304.192       60.286        0.039      346.710       25.150      856.715
09/18/2014  13:28:00     -225.616       51.754      -30.384      111.899       75.373       48.279    12521.392     5681.094     2330.894        3.751        1.027      231.476       41.153        0.032      346.754       25.224      856.748
09/18/2014  13:29:00     -182.464       -6.959      -13.799      121.391      102.077       35.471    14735.673    10419.655     1258.181        2.997        1.321      182.597       24.997        0.019      346.933       25.536      856.742
09/18/2014  13:30:00     -166.301       -4.120       17.039      144.520      164.214       62.617    20886.018    26966.381     3920.875        3.986        2.589      166.352       63.887        0.147      346.889       25.458      856.708
09/18/2014  13:31:00     -244.898     -150.611      -10.180      105.968      109.651       59.055    11229.239    12023.354     3487.470        5.475        1.337      287.504       57.926        0.041      346.506       24.800      856.687
09/18/2014  13:32:00     -430.508     -107.885      -32.199      185.478      155.832       75.812    34402.069    24283.550     5747.414       13.121        3.222      443.820       78.736        0.031      346.619       24.995      856.690
09/18/2014  13:33:00     -380.996     -279.444      -14.586      220.135      162.034      112.555    48459.275    26254.894    12668.639       15.540        4.369      472.490      127.487        0.073      346.424       24.658      856.697
09/18/2014  13:34:00     -177.568      -97.834        2.949      161.622      117.564       80.824    26121.674    13821.211     6532.550        4.378        2.324      202.736       87.977        0.188      346.599       24.959      856.706
09/18/2014  13:35:00     -184.364      -22.650       16.459      187.251      133.746       79.104    35062.828    17888.049     6257.447        4.698        2.960      185.750       81.374        0.192      346.582       24.931      856.703
09/18/2014  13:36:00     -567.314      -96.675      -24.325      187.370      152.649       91.850    35107.355    23301.797     8436.467       19.930        3.342      575.492      102.123        0.031      346.293       24.432      856.685
09/18/2014  13:37:00     -396.047       56.209       -7.109      203.564      155.173       85.877    41438.177    24078.748     7374.828       11.646        3.645      400.016       96.280        0.058      346.394       24.606      856.688
09/18/2014  13:38:00     -493.227       -3.960      -39.639      226.500      151.362       90.508    51302.102    22910.342     8191.610       16.362        4.120      493.243      109.167        0.049      346.450       24.702      856.727
09/18/2014  13:39:00     -564.794      -15.126      -38.734      214.845      209.903      107.364    46158.295    44059.273    11527.030       21.121        5.087      564.997      103.418        0.034      346.256       24.369      856.739
09/18/2014  13:40:00     -637.773     -170.024      -60.703      188.944      127.780       88.447    35699.776    16327.808     7822.786       24.959        2.993      660.047       76.567        0.013      346.211       24.292      856.720
09/18/2014  13:41:00     -533.501      -96.879      -32.612      207.257      144.815       93.474    42955.283    20971.333     8737.319       18.385        3.633      542.226      104.327        0.037      346.277       24.404      856.727
09/18/2014  13:42:00     -208.942      -84.149        1.041      159.527      140.869       81.013    25448.981    19843.964     6563.073        5.129        2.593      225.251       80.258        0.127      346.626       25.005      856.700
09/18/2014  13:43:00     -279.839      -57.453       -2.879      145.874      104.669       63.883    21279.257    10955.519     4081.067        5.896        1.816      285.676       69.202        0.059      346.737       25.198      856.724
09/18/2014  13:44:00     -292.267     -140.815       -0.911      134.982      140.028       72.238    18220.229    19607.881     5218.348        7.414        2.152      324.421       72.327        0.050      346.867       25.419      856.728
09/18/2014  13:45:00     -400.228     -114.540       -4.920      216.736      150.675       96.352    46974.493    22703.028     9283.689       12.613        3.948      416.295      102.044        0.060      346.705       25.140      856.737
09/18/2014  13:46:00     -244.491     -152.129       -3.201      192.363      140.402       81.291    37003.493    19712.600     6608.299        7.311        3.166      287.957       94.432        0.108      346.629       25.012      856.720
09/18/2014  13:47:00     -203.227     -126.906        4.212      179.832      116.865       80.600    32339.383    13657.450     6496.430        5.495        2.625      239.596       73.339        0.094      346.847       25.386      856.754
09/18/2014  13:48:00     -249.806     -138.279       -6.438      154.903      133.627       70.396    23994.894    17856.250     4955.563        6.418        2.340      285.524       78.107        0.075      346.634       25.020      856.721
09/18/2014  13:49:00     -237.689      -90.956       -5.355      113.275       91.029       52.544    12831.244     8286.224     2760.851        4.433        1.194      254.498       35.640        0.020      346.910       25.493      856.748
09/18/2014  13:50:00     -294.457     -142.777        7.141      229.237      148.593       88.173    52549.577    22079.989     7774.396        9.476        4.120      327.247      102.888        0.099      346.785       25.280      856.786
09/18/2014  13:51:00     -325.493     -121.511      -12.190      179.719      110.792       76.712    32298.905    12274.846     5884.676        8.565        2.523      347.435       89.570        0.066      346.440       24.686      856.785
09/18/2014  13:52:00     -363.941      -91.537       -6.595      206.575      109.107       82.258    42673.056    11904.246     6766.356       10.110        3.067      375.276       95.799        0.065      346.536       24.851      856.773
09/18/2014  13:53:00     -449.316      -97.780      -22.043      179.981      117.423       82.036    32393.082    13788.068     6729.928       13.241        2.646      459.833       94.867        0.043      346.433       24.674      856.766
09/18/2014  13:54:00     -332.599      -11.978      -20.454      152.817      107.813       74.529    23353.150    11623.647     5554.503        7.585        2.027      332.815       69.379        0.043      346.725       25.177      856.761
09/18/2014  13:55:00     -373.753     -123.996      -16.416      163.751      174.768       74.032    26814.234    30543.741     5480.758       10.907        3.142      393.785       63.782        0.026      346.614       24.984      856.756
09/18/2014  13:56:00     -365.573     -159.891      -15.046      180.011      156.329       87.586    32403.889    24438.607     7671.374       11.196        3.226      399.009       96.489        0.058      346.539       24.856      856.735
09/18/2014  13:57:00     -239.852     -162.678       11.389      230.633      142.945       86.158    53191.688    20433.163     7423.276        8.257        4.052      289.815      117.577        0.165      346.693       25.122      856.697
09/18/2014  13:58:00     -347.448     -229.498      -19.466      207.062      149.157       83.182    42874.731    22247.858     6919.283       12.289        3.602      416.401       91.778        0.049      346.570       24.909      856.722
09/18/2014  13:59:00     -279.660      -81.902       -1.614      176.968      179.906       84.115    31317.798    32366.066     7075.387        7.783        3.538      291.406      103.753        0.127      346.618       24.992      856.706
09/18/2014  14:00:00     -294.543     -249.408        6.724      219.732      193.826      104.366    48282.069    37568.555    10892.317       12.286        4.837      385.953      115.784        0.090      346.401       24.618      856.645
09/18/2014  14:01:00     -304.815     -189.950       -0.033      186.697      162.148       90.449    34855.717    26291.854     8181.000        9.915        3.466      359.156      107.003        0.089      346.493       24.777      856.644
09/18/2014  14:02:00     -361.291     -154.854       -5.470      158.989      149.361       81.480    25277.541    22308.563     6639.022       10.437        2.711      393.079       88.092        0.050      346.636       25.022      856.672
09/18/2014  14:03:00     -290.979     -144.463      -12.384      175.528      160.173       78.096    30810.167    25655.425     6098.919        8.412        3.128      324.867       87.723        0.073      346.709       25.148      856.687
09/18/2014  14:04:00     -307.421     -162.580        2.240      216.079      127.813       82.468    46690.105    16336.126     6800.918        9.537        3.491      347.764       88.014        0.064      346.486       24.765      856.674
09/18/2014  14:05:00     -309.005      -40.339       -4.643      166.558      129.534       74.496    27741.559    16779.055     5549.673        7.359        2.504      311.627       77.825        0.062      346.646       25.039      856.636
09/18/2014  14:06:00     -110.325      -60.454       20.774      174.264      133.570       76.412    30367.955    17840.908     5838.781        3.514        2.702      125.803       78.423        0.389      346.810       25.324      856.603
09/18/2014  14:07:00     -464.709      -54.073      -17.969      214.932      174.439       79.755    46195.874    30429.064     6360.860       15.108        4.149      467.845       91.879        0.039      346.587       24.938      856.615
09/18/2014  14:08:00     -465.063       28.608      -38.272      265.971      164.763       83.933    70740.793    27147.010     7044.688       16.173        5.247      465.943       99.010        0.045      346.422       24.656      856.585
09/18/2014  14:09:00     -345.602     -130.256      -23.054      163.973      175.488       92.495    26887.239    30796.138     8555.346       10.158        3.312      369.334       83.490        0.051      346.453       24.709      856.535
09/18/2014  14:10:00     -334.931     -204.730      -18.522      180.642      151.905       82.554    32631.571    23075.124     6815.187       10.847        3.126      392.547       85.945        0.048      346.371       24.567      856.528
09/18/2014  14:11:00     -448.225      -81.549      -40.685      182.612      137.454       72.377    33347.075    18893.491     5238.499       13.333        2.874      455.583       83.783        0.034      346.374       24.571      856.543
09/18/2014  14:12:00     -391.386     -127.055      -33.724      131.204      119.539       67.157    17214.422    14289.646     4510.055       10.323        1.801      411.493       59.933        0.021      346.306       24.453      856.534
09/18/2014  14:13:00     -291.582      -77.964       -8.064      131.969      119.886       63.158    17415.773    14372.602     3988.923        6.346        1.789      301.825       61.587        0.042      346.497       24.782      856.527
09/18/2014  14:14:00     -348.479     -103.881      -11.081      186.566      121.881       57.862    34807.035    14854.930     3348.065        9.267        2.651      363.633       64.928        0.032      346.474       24.745      856.518
09/18/2014  14:15:00     -433.864      -50.858      -36.257      233.518      151.281       80.815    54530.464    22885.987     6531.087       13.803        4.197      436.835      103.757        0.056      346.484       24.762      856.496
09/18/2014  14:16:00     -459.386     -134.807      -18.994      168.771      167.412       79.791    28483.618    28026.667     6366.552       14.621        3.144      478.757       83.289        0.030      346.530       24.841      856.467
09/18/2014  14:17:00     -510.693      -66.610      -36.192      167.501      139.787       80.333    28056.629    19540.344     6453.375       16.029        2.703      515.019       87.098        0.029      346.490       24.772      856.469
09/18/2014  14:18:00     -267.686      -67.874        3.397      159.485      131.190       86.504    25435.315    17210.820     7482.999        6.319        2.506      276.157       96.483        0.122      346.654       25.053      856.447
09/18/2014  14:19:00     -341.593     -161.290       -6.636      180.402      159.590       63.363    32544.834    25469.053     4014.894       10.237        3.101      377.757       62.091        0.027      346.524       24.830      856.452
09/18/2014  14:20:00     -472.335     -213.436       -8.698      196.062      130.963       91.036    38440.404    17151.257     8287.477       16.629        3.194      518.320       94.488        0.033      346.460       24.720      856.430
09/18/2014  14:21:00     -316.115     -196.852      -21.029      172.824      142.606       94.600    29868.144    20336.445     8949.206        9.913        2.958      372.396       96.168        0.067      346.506       24.798      856.395
09/18/2014  14:22:00     -255.862     -183.151        9.238      238.553      144.753       92.792    56907.601    20953.375     8610.302        9.277        4.324      314.658      108.536        0.119      346.757       25.234      856.378
09/18/2014  14:23:00     -337.468      -77.728       -3.296      137.209      106.793       65.335    18826.399    11404.685     4268.708        7.721        1.725      346.304       45.787        0.017      346.875       25.433      856.380
09/18/2014  14:24:00     -322.977      -67.175      -50.989      110.625      104.155       66.994    12237.853    10848.166     4488.248        6.949        1.379      329.888       50.468        0.023      346.660       25.063      856.363
09/18/2014  14:25:00     -443.116      -44.710      -17.070      214.287      114.062       79.195    45918.931    13010.184     6271.906       13.191        3.260      445.366       98.875        0.049      346.677       25.094      856.354
09/18/2014  14:26:00     -290.508      -13.451      -21.219      136.423      125.692       68.107    18611.320    15798.489     4638.533        6.203        1.952      290.819       67.915        0.055      346.703       25.136      856.371
09/18/2014  14:27:00     -328.781      -59.585        2.549      161.571      133.870       77.489    26105.319    17921.154     6004.527        8.083        2.502      334.137       83.242        0.062      346.619       24.994      856.342
09/18/2014  14:28:00     -326.569     -133.909      -12.890      145.167      159.010       77.260    21073.568    25284.172     5969.140        8.853        2.616      352.957       75.420        0.046      346.647       25.042      856.342
09/18/2014  14:29:00     -113.459      -61.439        9.225      137.229       89.907       64.504    18831.763     8083.320     4160.800        2.390        1.554      129.026       64.085        0.247      346.937       25.543      856.367
09/18/2014  14:30:00     -268.616      -87.485      -15.712      113.436      125.263       45.823    12867.617    15690.888     2099.749        5.535        1.533      282.504       28.758        0.010      346.652       25.051      856.343
09/18/2014  14:31:00     -237.225      -38.501        6.441      153.282      125.256       68.247    23495.282    15689.090     4657.672        5.081        2.192      240.329       66.556        0.077      346.784       25.279      856.321
09/18/2014  14:32:00     -181.240      -28.242       -6.274      100.401       97.755       49.096    10080.320     9556.103     2410.412        2.786        1.102      183.427       52.415        0.082      346.913       25.501      856.313
09/18/2014  14:33:00     -276.534     -183.592        7.880      210.212      183.366      103.518    44189.030    33623.093    10715.979        9.937        4.426      331.929      116.938        0.124      346.824       25.346      856.280
09/18/2014  14:34:00     -204.548     -201.463       13.537      192.691      157.053       98.289    37129.672    24665.576     9660.765        7.702        3.573      287.102      104.179        0.132      346.843       25.378      856.277
09/18/2014  14:35:00     -141.390     -130.664       19.270      185.858      148.765      108.950    34543.319    22130.928    11870.137        5.298        3.427      192.520      100.565        0.273      346.988       25.628      856.264
09/18/2014  14:36:00     -172.801      -25.932       -7.515      176.910       92.655       66.617    31297.095     8584.970     4437.804        3.745        2.216      174.736       80.482        0.212      346.892       25.466      856.267
09/18/2014  14:37:00     -252.305      -94.326      -10.298      155.697      178.578       77.823    24241.476    31890.107     6056.458        6.741        3.109      269.361       57.819        0.046      346.835       25.365      856.256
09/18/2014  14:38:00     -338.252       16.457       -5.548      190.019      148.217       85.771    36107.046    21968.334     7356.628        9.006        3.272      338.653       73.156        0.047      346.770       25.255      856.246
09/18/2014  14:39:00     -385.210      -50.368       -4.467      214.228      211.263       94.102    45893.733    44632.110     8855.257       12.514        4.969      388.489       99.391        0.065      346.696       25.126      856.247
09/18/2014  14:40:00     -371.287     -124.966      -12.665      203.889      183.520       99.278    41570.553    33679.586     9856.034       11.935        4.255      391.753      111.694        0.081      346.553       24.880      856.229
09/18/2014  14:41:00     -491.939     -167.842       -9.152      237.427      179.730       94.536    56371.440    32302.868     8937.046       18.392        4.881      519.783      108.261        0.043      346.575       24.918      856.199
09/18/2014  14:42:00     -354.093     -229.011       -5.210      205.825      178.930       97.758    42363.839    32015.980     9556.706       13.088        4.197      421.697       97.245        0.053      346.553       24.879      856.210
09/18/2014  14:43:00     -341.141      -21.396      -24.062      238.337      112.634       83.656    56804.357    12686.324     6998.298        9.694        3.824      341.811      102.404        0.090      346.749       25.218      856.196
09/18/2014  14:44:00     -368.624     -174.734       -8.556      173.664      171.942       81.496    30159.115    29564.188     6641.664       11.641        3.318      407.941       82.871        0.041      346.667       25.077      856.189
09/18/2014  14:45:00     -313.530     -229.077      -21.011      198.567      185.299       88.520    39428.795    34335.697     7835.717       11.639        4.080      388.300       94.948        0.060      346.750       25.218      856.171
09/18/2014  14:46:00     -252.864      -33.539        1.343      185.663      150.760       83.142    34470.924    22728.525     6912.657        6.458        3.206      255.079       82.118        0.104      346.976       25.607      856.170
09/18/2014  14:47:00     -323.742       56.247      -10.794      190.619      155.375       78.369    36335.727    24141.508     6141.689        8.734        3.331      328.591       78.546        0.057      346.910       25.494      856.171
09/18/2014  14:48:00     -213.478      -53.817       10.692      148.880      128.642       68.913    22165.239    16548.705     4749.021        4.601        2.173      220.157       79.474        0.130      346.939       25.544      856.170
09/18/2014  14:49:00     -207.817      -47.300       15.966      234.266      169.713       95.745    54880.712    28802.424     9167.141        6.925        4.643      213.131      110.810        0.270      346.969       25.597      856.157
09/18/2014  14:50:00     -418.562     -266.935      -13.665      277.032      179.492       91.809    76746.853    32217.517     8428.871       18.199        5.870      496.435      104.712        0.044      346.529       24.839      856.141
09/18/2014  14:51:00     -290.588     -243.535       11.485      237.927      173.798      114.633    56609.356    30205.908    13140.810       12.190        4.998      379.144      138.725        0.134      346.678       25.097      856.116
09/18/2014  14:52:00     -337.948     -140.014       26.951      204.895      174.650      109.173    41982.044    30502.505    11918.725       10.945        4.220      365.804      110.047        0.091      346.577       24.922      856.104
09/18/2014  14:53:00     -305.242     -141.909      -22.832      182.972      153.215       85.494    33478.831    23474.965     7309.199        8.904        3.213      336.617       99.481        0.087      346.708       25.147      856.096
09/18/2014  14:54:00     -294.621      -86.678       14.497      204.244      158.757       77.635    41715.812    25203.781     6027.134        8.372        3.647      307.107       80.580        0.069      346.765       25.246      856.098
09/18/2014  14:55:00     -475.324     -181.016       -4.209      237.690      227.258      103.088    56496.514    51646.103    10627.139       18.872        5.938      508.625      117.911        0.054      346.458       24.718      856.105
09/18/2014  14:56:00     -533.105      -86.085      -25.549      191.558      162.853       88.463    36694.593    26521.059     7825.752       18.164        3.552      540.011       92.033        0.029      346.526       24.834      856.121
09/18/2014  14:57:00     -344.298      -74.653       -6.537      192.964      118.596       76.332    37235.226    14065.087     5826.567        9.063        2.856      352.298       87.747        0.062      346.672       25.083      856.132
09/18/2014  14:58:00     -259.446       -9.963        0.506      136.681      120.632       63.128    18681.715    14552.010     3985.148        5.231        1.861      259.637       62.514        0.058      346.787       25.284      856.112
09/18/2014  14:59:00     -400.924     -157.538       -6.029      195.301      155.726       80.721    38142.619    24250.467     6515.902       12.724        3.445      430.765       84.090        0.038      346.624       25.004      856.094
09/18/2014  15:00:00     -247.688     -153.493       -6.515      201.449      111.639       79.738    40581.660    12463.188     6358.099        7.217        2.970      291.392       95.415        0.107      346.716       25.161      856.097
09/18/2014  15:01:00     -287.590     -182.074      -10.694      179.244      147.915       85.486    32128.437    21878.939     7307.841        8.863        3.066      340.381       97.093        0.081      346.693       25.121      856.119
09/18/2014  15:02:00     -318.426     -109.664       -8.055      197.509      159.655       86.428    39009.941    25489.585     7469.770        9.271        3.598      336.781       95.737        0.081      346.456       24.713      856.110
09/18/2014  15:03:00     -254.988     -124.590       -1.269      219.556      150.462       87.568    48205.011    22638.914     7668.071        7.951        3.926      283.799       89.104        0.099      346.644       25.038      856.069
09/18/2014  15:04:00     -296.681     -152.830       -5.125      213.477      179.481       87.409    45572.474    32213.509     7640.370        9.840        4.271      333.731      112.628        0.114      346.673       25.087      856.107
09/18/2014  15:05:00     -549.170      -65.319      -47.027      189.837      166.895       87.435    36037.995    27853.919     7644.858       18.979        3.577      553.041       85.695        0.024      346.427       24.662      856.099
09/18/2014  15:06:00     -421.543     -143.511      -16.526      209.477      181.898       93.352    43880.730    33086.726     8714.617       14.211        4.284      445.302      101.780        0.052      346.462       24.722      856.035
09/18/2014  15:07:00     -332.721     -122.404        4.723      196.009      169.005       99.800    38419.389    28562.690     9960.034       10.131        3.847      354.522      110.094        0.096      346.540       24.859      856.023
09/18/2014  15:08:00     -361.421     -232.576       -1.488      185.614      157.205       88.667    34452.500    24713.533     7861.901       12.586        3.351      429.787       90.548        0.044      346.464       24.726      856.008
09/18/2014  15:09:00     -423.196     -149.416       -1.505      278.965      222.867      111.394    77821.483    49669.715    12408.602       17.063        6.995      448.799      141.419        0.099      346.530       24.840      856.021
09/18/2014  15:10:00     -501.881     -220.072      -17.805      249.377      190.633       97.435    62188.744    36341.059     9493.491       20.431        5.401      548.011      116.684        0.045      346.403       24.622      856.044
09/18/2014  15:11:00     -345.336     -108.460       -5.382      186.894      147.139      103.928    34929.550    21649.762    10801.115        9.920        3.369      361.968      103.665        0.082      346.396       24.610      855.994
09/18/2014  15:12:00     -418.917     -220.005      -20.144      157.805      142.155       82.869    24902.352    20208.114     6867.225       13.813        2.599      473.174       84.178        0.032      346.401       24.617      855.980
09/18/2014  15:13:00     -362.381      -25.469      -19.205      197.031      128.344       76.612    38821.319    16472.186     5869.390        9.674        3.058      363.275       92.336        0.065      346.637       25.024      856.023
09/18/2014  15:14:00     -358.987     -119.919       -9.289      191.216      131.612       89.249    36563.605    17321.838     7965.341       10.258        3.093      378.486       96.219        0.065      346.669       25.079      855.982
09/18/2014  15:15:00     -303.448      -78.546        6.485      209.807      115.326       67.338    44019.172    13300.168     4534.376        8.006        3.093      313.449       87.959        0.079      346.765       25.246      856.010
09/18/2014  15:16:00     -444.820       20.071      -30.692      223.146      128.908       94.892    49794.006    16617.336     9004.440       13.730        3.771      445.273       98.185        0.049      346.734       25.191      856.045
09/18/2014  15:17:00     -260.977     -215.122       -0.144      178.979      174.734      108.154    32033.589    30531.971    11697.367        9.431        3.713      338.210       99.021        0.086      346.704       25.139      856.057
09/18/2014  15:18:00     -268.592     -111.170       -5.459      165.213      134.851       97.409    27295.189    18184.858     9488.439        6.974        2.748      290.690      109.744        0.143      346.564       24.900      856.054
09/18/2014  15:19:00     -222.292     -109.269        4.747      183.062      145.705       81.166    33511.748    21229.983     6587.910        6.134        3.066      247.696       87.520        0.125      346.670       25.082      856.069
09/18/2014  15:20:00     -631.430     -138.877      -36.238      248.398      167.732       99.246    61701.582    28133.894     9849.839       25.947        4.984      646.522      118.673        0.034      346.274       24.401      856.087
09/18/2014  15:21:00     -461.567     -124.763      -23.931      196.581      160.619       87.231    38643.973    25798.434     7609.296       15.060        3.603      478.132       91.673        0.037      346.238       24.338      856.065
09/18/2014  15:22:00     -367.995      -73.006       -7.840      179.012      121.399       81.207    32045.132    14737.631     6594.635        9.708        2.669      375.167       88.995        0.056      346.409       24.633      856.070
09/18/2014  15:23:00     -169.960      -28.332       -8.018      167.150      128.496       72.662    27939.198    16511.350     5279.738        3.973        2.487      172.305       55.314        0.103      346.647       25.042      856.071
09/18/2014  15:24:00     -455.946     -149.921      -17.451      219.888      155.407       92.818    48350.603    24151.293     8615.139       15.588        4.056      479.961      107.932        0.051      346.409       24.633      856.055
09/18/2014  15:25:00     -427.791      -63.827      -10.175      256.583      172.590      109.781    65834.909    29787.418    12051.806       14.741        5.384      432.527      120.214        0.077      346.399       24.615      856.018
09/18/2014  15:26:00     -599.498      -89.824      -15.933      270.820      172.112      113.951    73343.594    29622.414    12984.795       24.181        5.798      606.190      143.557        0.056      346.308       24.457      855.999
09/18/2014  15:27:00     -716.917     -205.809      -28.015      226.174      165.528      108.314    51154.465    27399.618    11731.894       32.368        4.514      745.874      108.878        0.021      346.196       24.266      856.018
09/18/2014  15:28:00     -499.949     -228.760       -3.987      242.159      206.077      119.695    58641.110    42467.718    14327.011       20.884        5.772      549.800      128.669        0.055      346.193       24.259      856.017
09/18/2014  15:29:00     -558.119     -236.656      -24.375      284.901      231.613       99.926    81168.348    53644.384     9985.212       25.642        7.240      606.220      118.490        0.038      346.200       24.273      855.997
09/18/2014  15:30:00     -397.674     -127.622      -19.121      251.633      194.196      111.266    63318.996    37712.201    12380.107       14.408        5.671      417.650      115.188        0.076      346.390       24.601      856.023
09/18/2014  15:31:00     -460.770      -60.980      -41.483      218.389      190.303       87.032    47693.565    36215.119     7574.633       15.460        4.574      464.788       96.474        0.043      346.319       24.478      856.062
09/18/2014  15:32:00     -511.725      -66.259      -32.411      274.130      165.070       95.790    75147.137    27247.951     9175.647       18.942        5.579      515.997      112.126        0.047      346.405       24.625      856.079
09/18/2014  15:33:00     -733.022     -162.421      -45.630      235.457      238.416      112.327    55440.030    56842.000    12617.442       34.532        6.245      750.801      114.624        0.023      346.237       24.336      856.059
09/18/2014  15:34:00     -297.064     -224.098       -1.041      225.964      214.974      106.179    51059.739    46213.953    11273.893       12.349        5.427      372.111      104.279        0.079      346.333       24.502      856.056
09/18/2014  15:35:00     -289.124     -129.055      -19.542      195.269      160.292       82.160    38129.866    25693.650     6750.186        8.559        3.529      316.620       85.777        0.073      346.413       24.638      856.065
09/18/2014  15:36:00     -446.407      -43.552      -22.380      241.429      157.678      105.803    58287.943    24862.471    11194.284       14.799        4.717      448.527      125.020        0.078      346.398       24.613      856.029
09/18/2014  15:37:00     -437.327      -66.487      -16.561      183.145      151.009       77.382    33542.215    22803.800     5987.966       12.913        3.117      442.352       88.509        0.040      346.406       24.626      856.064
09/18/2014  15:38:00     -551.110       44.854      -49.849      328.362      153.746       83.412   107821.856    23637.790     6957.553       22.329        6.921      552.932      136.706        0.061      346.328       24.493      856.035
09/18/2014  15:39:00     -375.164     -109.867       -9.147      197.366      126.405       73.822    38953.519    15978.164     5449.722       10.663        3.019      390.920       83.160        0.045      346.528       24.837      856.065
09/18/2014  15:40:00     -429.615      -81.502       -4.932      285.917      197.727      110.574    81748.466    39095.986    12226.674       16.213        6.654      437.277      135.251        0.096      346.371       24.567      856.066
09/18/2014  15:41:00     -355.125      -92.587      -10.505      208.398      186.311       93.756    43429.800    34711.938     8790.177       11.085        4.347      366.996       86.218        0.055      346.453       24.708      856.049
09/18/2014  15:42:00     -570.929      -83.576      -39.342      202.513      179.975       85.254    41011.333    32391.154     7268.225       20.757        4.034      577.014       89.086        0.024      346.451       24.704      856.049
09/18/2014  15:43:00     -684.945      -85.864      -35.546      281.468      173.322       83.374    79224.397    30040.533     6951.262       29.698        5.811      690.306       96.695        0.020      346.346       24.525      856.080
09/18/2014  15:44:00     -471.109      -88.607       -9.678      234.549      196.994      100.370    55013.391    38806.527    10074.155       16.687        5.195      479.369      109.244        0.052      346.283       24.416      856.044
09/18/2014  15:45:00     -528.546     -168.404       -3.063      338.950      212.724      118.774   114887.144    45251.590    14107.237       24.095        8.712      554.726      168.100        0.092      346.167       24.215      856.029
09/18/2014  15:46:00     -628.873       -6.940      -52.216      206.993      187.129       91.409    42846.296    35017.305     8355.554       24.222        4.311      628.911      100.687        0.026      346.130       24.154      856.059
09/18/2014  15:47:00     -517.621      -23.585      -35.288      234.959      186.632      101.866    55205.621    34831.458    10376.731       18.505        5.021      518.158      116.469        0.051      346.203       24.278      856.049
09/18/2014  15:48:00     -521.082     -152.188      -21.622      298.198      206.833      112.315    88922.194    42779.994    12614.702       21.971        7.216      542.851      140.025        0.067      346.155       24.195      856.003
09/18/2014  15:49:00     -520.436     -198.323       -3.384      202.906      137.184       86.707    41170.812    18819.323     7518.027       18.884        3.375      556.943       81.059        0.021      346.165       24.213      856.006
09/18/2014  15:50:00     -284.554      -34.045       -0.422      154.006      108.029       65.205    23717.968    11670.345     4251.656        6.088        1.982      286.583       74.452        0.067      346.472       24.741      856.056
09/18/2014  15:51:00     -335.960     -220.953      -15.709      268.917      190.154      105.440    72316.422    36158.575    11117.596       14.074        5.980      402.106      111.519        0.077      346.350       24.532      856.060
09/18/2014  15:52:00     -502.046     -196.655      -19.134      280.793      197.446      116.734    78844.684    38984.848    13626.844       21.125        6.573      539.188      136.779        0.064      346.204       24.278      856.005
09/18/2014  15:53:00     -493.032      -72.956      -13.143      208.556      253.761       98.234    43495.793    64394.886     9650.008       18.304        5.877      498.401       98.756        0.039      346.302       24.448      855.989
09/18/2014  15:54:00     -239.163     -186.984       17.108      183.155      134.078       85.904    33545.862    17976.966     7379.450        7.567        2.945      303.582       98.017        0.104      346.432       24.672      856.031
09/18/2014  15:55:00     -329.529     -190.895      -15.944      208.124      162.150       91.456    43315.635    26292.463     8364.191       11.161        3.899      380.828       99.152        0.068      346.385       24.591      856.018
09/18/2014  15:56:00     -488.643     -160.079      -32.999      247.354      221.463      106.941    61184.055    49045.733    11436.275       19.355        6.083      514.196      107.196        0.043      346.297       24.441      856.016
09/18/2014  15:57:00     -467.352      -91.161       -7.442      229.894      207.778      102.818    52851.454    43171.523    10571.472       16.667        5.330      476.160      104.029        0.048      346.355       24.539      856.027
09/18/2014  15:58:00     -504.774      -70.906      -31.135      267.222      191.895       86.682    71407.710    36823.643     7513.834       18.825        5.787      509.729      100.335        0.039      346.315       24.471      856.044
09/18/2014  15:59:00     -337.388      -27.246      -17.193      231.630      141.874       82.239    53652.389    20128.191     6763.297        9.769        4.027      338.486      108.282        0.102      346.347       24.527      856.041
09/18/2014  16:00:00     -453.835     -112.202      -33.466      215.719      143.935       99.476    46534.490    20717.398     9895.525       14.840        3.857      467.499      108.563        0.054      346.301       24.445      856.047
09/18/2014  16:01:00     -477.335      -63.258      -38.853      255.881      200.376       91.326    65475.157    40150.419     8340.349       17.364        5.698      481.508       94.721        0.039      346.291       24.430      856.077
09/18/2014  16:02:00     -644.325     -137.208       -8.063      256.299      206.564      107.644    65689.215    42668.511    11587.300       27.697        5.997      658.772      133.307        0.041      346.094       24.091      856.043
09/18/2014  16:03:00     -418.255      -24.703       -3.658      295.967      197.345      115.394    87596.290    38945.114    13315.680       15.768        6.993      418.984      153.333        0.134      346.220       24.306      856.031
09/18/2014  16:04:00     -503.939     -104.921      -11.676      381.571      190.126      113.372   145596.463    36147.873    12853.146       22.981        9.730      514.745      148.435        0.083      346.226       24.318      856.052
09/18/2014  16:05:00     -120.343      -20.672       29.898      126.656      107.343       74.933    16041.660    11522.429     5614.896        2.448        1.659      122.106       83.656        0.469      346.442       24.691      856.045
09/18/2014  16:06:00     -525.440      -82.981      -22.950      226.749      169.250       90.507    51415.046    28645.651     8191.595       18.586        4.413      531.952       90.619        0.029      346.275       24.403      856.045
09/18/2014  16:07:00     -642.682     -116.374      -36.489      229.392      180.591      100.797    52620.850    32612.938    10159.955       26.164        4.770      653.133      104.213        0.025      346.126       24.145      856.030
09/18/2014  16:08:00     -357.218     -164.761        5.144      281.494      228.192      104.638    79238.931    52071.471    10949.028       14.849        7.113      393.384      135.935        0.119      346.297       24.440      856.017
09/18/2014  16:09:00     -277.793      -15.034       12.469      218.211      189.703      108.808    47616.067    35987.173    11839.249        8.648        4.772      278.200      122.725        0.195      346.354       24.537      856.031
09/18/2014  16:10:00     -543.224       15.809      -43.548      255.067      168.062       84.227    65059.239    28244.778     7094.176       19.880        5.020      543.454      106.598        0.038      346.168       24.217      856.020
09/18/2014  16:11:00     -496.120     -186.630      -19.275      227.688      227.022      106.349    51841.728    51539.081    11310.168       19.799        5.735      530.063      115.011        0.047      346.105       24.110      856.027
09/18/2014  16:12:00     -514.106     -307.196       -4.292      249.877      188.397      113.282    62438.559    35493.454    12832.706       23.471        5.538      598.894      112.819        0.035      346.100       24.100      856.013
09/18/2014  16:13:00     -454.897     -199.228       -6.309      198.802      161.225       85.396    39522.294    25993.546     7292.461       15.972        3.640      496.612       95.854        0.037      346.143       24.176      856.014
09/18/2014  16:14:00     -362.471     -157.344      -16.173      187.898      184.465       77.325    35305.644    34027.312     5979.216       11.584        3.766      395.149       90.710        0.053      346.266       24.387      856.031
09/18/2014  16:15:00     -458.688      -49.989      -14.026      241.146      242.015       96.329    58151.452    58571.192     9279.200       16.952        6.300      461.404      102.267        0.049      346.203       24.278      856.018
09/18/2014  16:16:00     -494.663     -117.540       -1.498      251.592      196.428       96.890    63298.393    38584.148     9387.644       18.487        5.564      508.436      111.720        0.048      346.099       24.099      855.996
09/18/2014  16:17:00     -399.528     -175.410      -24.737      217.819      202.308       94.999    47445.246    40928.484     9024.806       14.418        4.870      436.339      104.770        0.058      346.145       24.178      855.984
09/18/2014  16:18:00     -363.388     -207.600        8.209      265.499      212.479      113.776    70489.867    45147.197    12944.954       15.187        6.429      418.507      130.659        0.097      346.119       24.135      855.981
09/18/2014  16:19:00     -494.092     -268.114      -15.985      231.654      216.363      111.743    53663.371    46813.070    12486.496       21.459        5.648      562.150      119.321        0.045      346.135       24.162      855.966
09/18/2014  16:20:00     -605.695     -328.691      -19.623      233.699      199.850      106.920    54615.267    39940.147    11431.882       29.062        5.299      689.133      117.757        0.029      346.088       24.081      855.967
09/18/2014  16:21:00     -387.012     -260.330      -11.246      274.711      241.502      106.992    75466.284    58323.303    11447.244       18.143        7.262      466.423      113.838        0.060      346.130       24.152      856.004
09/18/2014  16:22:00     -319.418     -189.928        4.045      199.372      148.489       95.562    39749.131    22048.909     9132.134       10.451        3.547      371.619      100.618        0.073      346.156       24.198      856.012
09/18/2014  16:23:00     -468.439     -141.578      -20.987      240.229      195.604      102.500    57710.113    38260.799    10506.219       17.318        5.324      489.367      107.258        0.048      346.100       24.101      856.009
09/18/2014  16:24:00     -642.370      -35.897      -23.229      301.212      206.270      118.180    90728.405    42547.158    13966.452       28.083        7.362      643.372      138.256        0.046      346.068       24.046      855.962
09/18/2014  16:25:00     -620.363     -211.539      -38.672      235.892      246.095      114.074    55645.081    60562.527    13012.773       28.013        6.461      655.438      123.106        0.035      346.092       24.087      855.997
09/18/2014  16:26:00     -436.714     -261.626       -8.404      223.416      205.869       98.575    49914.507    42381.939     9716.982       18.061        5.101      509.085      100.474        0.039      346.174       24.227      855.988
09/18/2014  16:27:00     -466.994     -185.936      -31.446      193.443      179.465       84.628    37420.108    32207.760     7161.833       16.520        3.839      502.648       93.546        0.035      346.214       24.297      855.995
09/18/2014  16:28:00     -491.280     -185.470      -27.443      294.446      240.103      109.698    86698.663    57649.350    12033.554       21.641        7.819      525.124      131.529        0.063      346.175       24.230      855.990
09/18/2014  16:29:00     -421.138     -147.567       -9.912      301.659      247.134      124.759    90998.106    61075.447    15564.902       18.340        8.382      446.243      142.966        0.103      346.173       24.227      855.990
09/18/2014  16:30:00     -520.121     -370.262      -16.701      262.758      258.898      135.266    69041.652    67028.145    18296.879       28.110        7.718      638.451      158.169        0.061      346.150       24.186      855.977
09/18/2014  16:31:00     -461.005     -357.538       -3.360      335.743      288.652      135.941   112723.048    83320.119    18479.834       27.740       10.726      583.403      164.667        0.080      346.058       24.028      855.989
09/18/2014  16:32:00     -578.514     -311.866      -13.288      302.692      239.194      132.643    91622.742    57213.934    17594.174       29.924        8.322      657.221      145.211        0.049      345.967       23.873      855.999
09/18/2014  16:33:00     -474.600     -282.410       -7.947      264.395      234.368      131.836    69904.534    54928.427    17380.793       22.361        7.111      552.269      141.678        0.066      346.017       23.959      855.983
09/18/2014  16:34:00     -480.426     -257.397       -9.878      231.579      214.996      113.344    53628.910    46223.225    12846.755       20.491        5.635      545.034      128.472        0.056      346.091       24.084      856.008
09/18/2014  16:35:00     -526.747     -195.435      -20.113      199.208      201.389      106.801    39684.001    40557.404    11406.403       20.384        4.582      561.833      104.111        0.034      346.044       24.004      856.038
09/18/2014  16:36:00     -458.495     -162.393      -12.770      251.346      137.961       88.765    63174.976    19033.319     7879.139       16.340        4.504      486.405      105.744        0.047      346.110       24.117      856.050
09/18/2014  16:37:00     -270.478     -242.755        1.854      254.764      195.720      111.315    64904.761    38306.439    12390.984       12.382        5.780      363.440      142.467        0.154      346.125       24.144      856.005
09/18/2014  16:38:00     -326.147     -231.923       14.120      181.546      157.664       88.392    32958.845    24857.832     7813.172       11.298        3.281      400.200       88.298        0.049      346.085       24.076      856.043
09/18/2014  16:39:00     -531.467     -332.300      -25.414      287.013      188.083      123.562    82376.672    35375.178    15267.549       26.325        6.651      626.802      138.564        0.049      345.948       23.839      855.999
09/18/2014  16:40:00     -366.779     -313.254       10.331      258.426      189.156      117.393    66783.881    35779.853    13781.209       17.453        5.817      482.343      137.269        0.081      346.042       24.001      856.004
09/18/2014  16:41:00     -427.233     -179.312      -19.490      251.867      200.788      102.428    63436.775    40316.005    10491.503       16.463        5.712      463.337      120.552        0.068      346.031       23.981      856.048
09/18/2014  16:42:00     -587.567     -347.411       -7.513      295.818      195.745      117.636    87508.069    38316.274    13838.130       30.280        6.983      682.590      142.548        0.044      345.931       23.811      855.997
09/18/2014  16:43:00     -476.979     -293.300        0.353      305.717      216.101      122.240    93462.655    46699.627    14942.582       23.429        7.755      559.941      146.886        0.069      345.925       23.802      856.005
09/18/2014  16:44:00     -287.690     -199.442       13.214      222.101      184.196       97.729    49328.855    33928.099     9550.951       10.774        4.640      350.061      116.791        0.111      346.017       23.960      856.023
09/18/2014  16:45:00     -407.266     -167.902        8.247      234.465      185.105      103.030    54973.699    34263.836    10615.215       14.697        4.993      440.519      126.345        0.082      346.029       23.977      856.065
09/18/2014  16:46:00     -256.412     -162.483        9.687      256.793      207.695      111.703    65942.590    43137.033    12477.581       10.688        6.078      303.559      116.487        0.147      345.991       23.914      856.073
09/18/2014  16:47:00     -482.530     -164.246       -8.161      306.957      266.911      135.050    94222.839    71241.520    18238.416       22.175        9.185      509.717      162.392        0.102      345.881       23.726      856.065
09/18/2014  16:48:00     -340.877     -112.971       -1.860      202.269      144.243       99.054    40912.593    20805.923     9811.689       10.023        3.577      359.109      105.278        0.086      345.962       23.865      856.074
09/18/2014  16:49:00     -303.653     -120.152       22.226      224.471      190.180       86.501    50387.175    36168.283     7482.415       10.057        4.702      326.560      113.952        0.122      346.006       23.940      856.101
09/18/2014  16:50:00     -277.520      -85.736        7.807      158.476      155.523       77.375    25114.625    24187.507     5986.948        6.985        2.764      290.461       79.101        0.074      346.070       24.050      856.127
09/18/2014  16:51:00     -419.400     -245.036       -8.249      301.118      254.163      135.109    90672.056    64598.783    18254.387       20.473        8.676      485.736      160.522        0.109      345.993       23.918      856.116
09/18/2014  16:52:00     -560.537     -183.011      -26.527      281.201      196.396      111.532    79074.009    38571.501    12439.490       23.922        6.504      589.656      111.110        0.036      345.886       23.734      856.117
09/18/2014  16:53:00     -491.676     -229.288      -10.130      251.318      214.662      109.104    63160.618    46079.814    11903.583       20.776        6.057      542.510      119.238        0.048      345.876       23.716      856.085
09/18/2014  16:54:00     -387.272     -196.208      -15.597      220.957      176.129       95.158    48821.868    31021.562     9054.999       13.879        4.445      434.140      105.954        0.060      345.895       23.749      856.112
09/18/2014  16:55:00     -381.755     -119.193      -19.747      241.357      153.475       83.434    58253.256    23554.598     6961.212       12.453        4.438      399.930       87.151        0.047      345.890       23.741      856.131
09/18/2014  16:56:00     -384.943      -62.921       -6.173      253.369      171.521       90.069    64195.878    29419.461     8112.432       12.693        5.086      390.051      104.441        0.072      345.884       23.730      856.144
09/18/2014  16:57:00     -298.578     -251.322       -6.869      229.919      226.160      127.352    52862.577    51148.229    16218.412       13.627        6.011      390.271      134.652        0.119      345.877       23.720      856.161
09/18/2014  16:58:00     -291.905     -303.200        7.421      245.321      201.315      133.329    60182.447    40527.860    17776.535       14.782        5.924      420.878      146.478        0.121      345.855       23.682      856.136
09/18/2014  16:59:00     -288.448     -173.409        6.894      212.009      141.055       90.748    44947.776    19896.388     8235.175        9.319        3.654      336.561      105.496        0.098      345.904       23.766      856.148
09/18/2014  17:00:00     -367.865     -270.597       -6.975      269.199      187.213      108.385    72468.168    35048.834    11747.237       16.391        5.963      456.670      105.556        0.053      345.896       23.752      856.162
09/18/2014  17:01:00     -454.855     -270.522      -20.667      224.324      197.915      114.320    50321.112    39170.486    13068.972       19.151        5.128      529.222      128.076        0.059      345.805       23.594      856.149
09/18/2014  17:02:00     -356.758     -214.944       -1.690      257.587      196.142      101.110    66351.311    38471.689    10223.310       14.424        5.752      416.506      126.554        0.092      345.875       23.716      856.165
09/18/2014  17:03:00     -290.258     -115.801       -2.156      186.289      153.547       85.988    34703.704    23576.559     7393.892        8.166        3.284      312.505       86.824        0.077      345.928       23.807      856.177
09/18/2014  17:04:00     -449.282     -189.026        1.679      239.136      225.162      105.820    57186.067    50697.847    11197.809       17.831        5.954      487.427      124.098        0.065      345.858       23.684      856.142
09/18/2014  17:05:00     -248.094     -112.001       -8.656      161.892      139.566       70.557    26209.002    19478.782     4978.352        6.241        2.533      272.204       70.189        0.066      345.950       23.844      856.179
09/18/2014  17:06:00     -581.341     -228.865      -18.347      277.265      205.912       99.117    76875.733    42399.786     9824.089       25.986        6.455      624.769      111.995        0.032      345.823       23.628      856.139
09/18/2014  17:07:00     -644.906     -201.880      -23.067      293.823      242.006      108.798    86332.232    58566.931    11837.036       30.693        7.837      675.766      111.188        0.027      345.775       23.543      856.149
09/18/2014  17:08:00     -588.422     -354.134      -42.018      267.081      177.098      117.343    71332.261    31363.722    13769.390       29.492        5.823      686.769      142.738        0.043      345.801       23.588      856.134
09/18/2014  17:09:00     -259.074      -88.220        6.416      227.882      167.111      102.306    51930.107    27925.981    10466.463        8.262        4.516      273.682      107.675        0.155      345.885       23.732      856.160
09/18/2014  17:10:00     -355.029     -119.188      -20.076      167.405      155.595       78.680    28024.427    24209.691     6190.614        9.953        2.921      374.501       87.187        0.054      345.883       23.729      856.174
09/18/2014  17:11:00     -412.779      -59.141       13.996      277.179      179.332       94.840    76828.301    32160.090     8994.708       14.601        5.899      416.994      115.034        0.076      345.878       23.722      856.187
09/18/2014  17:12:00     -445.054     -213.559      -11.391      188.309      238.884      102.311    35460.101    57065.360    10467.554       17.338        5.150      493.640       86.582        0.031      345.811       23.606      856.170
09/18/2014  17:13:00     -403.616     -185.113       11.193      233.001      222.569      108.345    54289.624    49536.962    11738.581       15.641        5.778      444.041      120.295        0.073      345.785       23.561      856.176
09/18/2014  17:14:00     -332.633     -195.056        6.969      205.537      184.809       97.964    42245.416    34154.213     9597.035       11.735        4.300      385.606       93.092        0.058      345.810       23.605      856.216
09/18/2014  17:15:00     -630.066     -286.443      -26.726      295.469      235.879      120.690    87301.757    55638.672    14566.031       31.860        7.875      692.122      135.402        0.038      345.712       23.434      856.208
09/18/2014  17:16:00     -476.221     -199.563      -24.422      284.478      249.081      117.711    80927.781    62041.518    13855.962       21.199        7.841      516.344      142.220        0.076      345.718       23.445      856.192
09/18/2014  17:17:00     -370.286     -214.500       -9.577      233.889      169.755      112.515    54704.095    28816.683    12659.675       13.968        4.809      427.928      121.203        0.080      345.797       23.580      856.228
09/18/2014  17:18:00     -397.562     -103.320       -0.028      249.248      172.197       95.211    62124.606    29651.941     9065.126       13.477        5.042      410.768      117.955        0.082      345.782       23.556      856.247
09/18/2014  17:19:00     -461.380     -187.111      -42.863      252.569      176.471      102.951    63791.215    31142.139    10598.953       17.760        5.277      497.878      113.095        0.052      345.781       23.554      856.235
09/18/2014  17:20:00     -352.681     -108.286       -6.850      200.775      233.541       89.557    40310.577    54541.616     8020.508       11.949        5.144      368.930       78.460        0.045      345.767       23.530      856.205
09/18/2014  17:21:00     -589.886     -185.123       -8.848      274.967      216.259      102.201    75607.083    46768.018    10445.073       25.754        6.641      618.252      127.498        0.043      345.675       23.372      856.182
09/18/2014  17:22:00     -492.436     -223.760       -2.290      273.567      213.559      123.003    74839.040    45607.574    15129.757       21.405        6.779      540.890      137.097        0.064      345.665       23.355      856.168
09/18/2014  17:23:00     -475.074     -279.585      -34.003      230.438      198.737      113.832    53101.644    39496.347    12957.830       20.527        5.278      551.238      127.720        0.054      345.655       23.337      856.198
09/18/2014  17:24:00     -355.391      -68.435        3.992      228.837      168.842       94.686    52366.446    28507.529     8965.432       11.040        4.492      361.920      107.119        0.088      345.712       23.436      856.197
09/18/2014  17:25:00     -542.431      -87.369      -36.485      266.937      222.633       96.385    71255.438    49565.249     9290.034       21.663        6.506      549.422      103.480        0.035      345.602       23.244      856.190
09/18/2014  17:26:00     -526.192     -173.967       -8.267      328.102      196.301      118.924   107651.224    38534.169    14142.826       23.374        8.016      554.205      163.141        0.087      345.635       23.303      856.239
09/18/2014  17:27:00     -326.090     -229.519       10.694      270.251      216.762      139.132    73035.872    46985.868    19357.665       14.923        6.969      398.765      164.086        0.169      345.634       23.299      856.255
09/18/2014  17:28:00     -492.154     -271.576      -23.703      248.911      202.954      108.932    61956.920    41190.308    11866.252       21.575        5.751      562.111      116.511        0.043      345.579       23.207      856.282
09/18/2014  17:29:00     -449.987     -157.124      -21.466      250.298      222.078      112.844    62649.066    49318.825    12733.743       17.614        6.235      476.631      115.903        0.059      345.590       23.224      856.297
09/18/2014  17:30:00     -645.512      -75.702      -26.587      298.527      244.187      105.819    89118.088    59627.313    11197.644       29.150        7.997      649.936      129.886        0.040      345.555       23.165      856.301
09/18/2014  17:31:00     -502.459     -234.757       -2.929      284.539      259.371      108.911    80962.172    67273.416    11861.531       23.381        8.005      554.596      131.515        0.056      345.575       23.200      856.349
09/18/2014  17:32:00     -499.189     -250.076      -17.232      275.503      208.985      115.394    75902.096    43674.718    13315.749       22.243        6.645      558.326      133.814        0.057      345.582       23.210      856.314
09/18/2014  17:33:00     -473.529      -88.490      -14.515      182.570      173.296       90.502    33331.959    30031.538     8190.589       15.190        3.578      481.726       92.722        0.037      345.594       23.232      856.304
09/18/2014  17:34:00     -442.348     -129.934      -10.860      261.952      154.020       88.364    68618.758    23722.046     7808.263       15.639        5.007      461.036      105.611        0.052      345.613       23.264      856.303
09/18/2014  17:35:00     -352.018     -193.194      -14.976      164.046      140.205       79.569    26911.047    19657.535     6331.264       10.717        2.645      401.548       84.879        0.045      345.635       23.302      856.302
09/18/2014  17:36:00     -354.697     -255.012      -21.049      273.914      247.127      141.796    75028.883    61071.726    20106.043       17.371        7.810      436.854      166.010        0.144      345.622       23.281      856.309
09/18/2014  17:37:00     -438.433     -295.327        8.359      288.374      252.628      129.848    83159.667    63821.117    16860.552       22.164        8.192      528.622      156.041        0.087      345.566       23.185      856.297
09/18/2014  17:38:00     -481.137     -382.719      -30.574      236.823      242.661      125.970    56085.091    58884.440    15868.460       25.484        6.542      614.790      119.965        0.038      345.505       23.081      856.334
09/18/2014  17:39:00     -654.875     -286.512      -52.181      314.073      238.787      121.058    98642.045    57019.001    14655.109       34.196        8.516      714.808      141.244        0.039      345.493       23.058      856.329
09/18/2014  17:40:00     -659.738     -167.896      -40.706      367.210      215.322      114.004   134843.356    46363.716    12996.845       32.961        9.710      680.766      165.726        0.059      345.480       23.037      856.303
09/18/2014  17:41:00     -360.288     -136.530        2.522      215.934      163.459      100.107    46627.326    26718.873    10021.491       11.589        4.168      385.289      107.467        0.078      345.560       23.174      856.336
09/18/2014  17:42:00     -473.151     -197.066        1.460      276.029      232.359       97.793    76191.962    53990.830     9563.498       20.120        6.987      512.549      122.991        0.058      345.539       23.139      856.336
09/18/2014  17:43:00     -515.545     -257.408      -19.884      274.057      241.451      117.088    75107.380    58298.545    13709.538       23.975        7.356      576.234      120.343        0.044      345.522       23.110      856.310
09/18/2014  17:44:00     -439.433     -216.331      -35.588      204.593      228.482      107.404    41858.376    52204.237    11535.682       17.336        5.280      489.796      111.808        0.052      345.557       23.169      856.336
09/18/2014  17:45:00     -486.873     -230.168      -23.332      287.606      221.305      127.310    82717.120    48975.929    16207.775       21.920        7.395      538.537      128.641        0.057      345.538       23.136      856.325
09/18/2014  17:46:00     -382.676     -205.757        7.343      270.577      234.787      119.867    73212.072    55124.932    14368.004       16.574        7.135      434.484      133.558        0.094      345.552       23.160      856.368
09/18/2014  17:47:00     -309.025     -257.717       -6.460      261.316      198.818      126.626    68286.313    39528.423    16034.145       14.288        6.192      402.386      131.702        0.107      345.547       23.152      856.383
09/18/2014  17:48:00     -320.957      -67.264       10.566      217.139      182.460       91.645    47149.166    33291.541     8398.840        9.823        4.442      327.929       98.203        0.090      345.582       23.212      856.413
09/18/2014  17:49:00     -520.805     -230.556      -10.630      310.213      295.750      112.565    96232.053    87467.816    12670.890       26.040        9.819      569.556      132.834        0.054      345.502       23.076      856.367
09/18/2014  17:50:00     -476.801     -281.560      -10.636      229.425      187.071       94.656    52635.857    34995.381     8959.831       20.164        4.830      553.728      107.156        0.037      345.526       23.116      856.402
09/18/2014  17:51:00     -403.914     -116.274       -2.104      252.836      208.975      107.228    63925.853    43670.417    11497.910       14.786        5.955      420.317      130.043        0.096      345.558       23.171      856.438
09/18/2014  17:52:00     -435.938     -134.296       -9.982      185.062      173.990       84.488    34247.973    30272.556     7138.153       13.990        3.583      456.155       86.023        0.036      345.565       23.183      856.481
09/18/2014  17:53:00     -306.354      -89.428       -3.060      226.533      158.367       77.740    51317.051    25080.167     6043.461        9.213        4.122      319.140       69.361        0.047      345.640       23.311      856.487
09/18/2014  17:54:00     -640.113     -131.043      -60.657      246.888      190.122      102.265    60953.513    36146.422    10458.100       26.906        5.378      653.389      107.507        0.027      345.514       23.094      856.429
09/18/2014  17:55:00     -431.803     -221.156      -25.864      173.768      145.181       89.329    30195.421    21077.383     7979.639       14.763        2.963      485.143       85.488        0.031      345.530       23.123      856.461
09/18/2014  17:56:00     -377.606      -83.680       16.103      225.370      171.804       95.866    50791.672    29516.606     9190.296       11.966        4.475      386.767      104.463        0.073      345.345       22.805      856.480
09/18/2014  17:57:00     -495.472      -90.298      -34.615      314.796      206.400      101.595    99096.590    42601.033    10321.447       20.340        7.601      503.633      115.420        0.053      345.107       22.398      856.529
09/18/2014  17:58:00     -454.556     -273.177      -21.112      260.662      213.243      109.661    67944.892    45472.513    12025.634       20.354        6.272      530.328      126.309        0.057      345.048       22.298      856.534
09/18/2014  17:59:00     -432.245     -178.158      -14.834      178.298      171.584       82.121    31790.284    29440.983     6743.813       14.337        3.399      467.521       91.639        0.038      344.881       22.011      856.552
09/18/2014  18:00:00     -448.225      -93.598      -20.347      216.159      165.584       91.413    46724.517    27418.135     8356.291       14.627        4.125      457.894       99.977        0.048      344.792       21.857      856.534
09/18/2014  18:01:00     -413.524      -71.437       -2.553      243.776      119.002       91.299    59426.682    14161.552     8335.481       12.900        4.096      419.649      113.030        0.073      344.724       21.744      856.492
09/18/2014  18:02:00     -559.023     -160.708      -42.060      208.896      172.809       92.619    43637.646    29863.070     8578.363       21.107        4.104      581.664       87.619        0.023      344.798       21.870      856.456
09/18/2014  18:03:00     -586.059     -107.561      -28.761      310.420      216.477      115.354    96360.605    46862.427    13306.521       25.616        7.826      595.848      128.434        0.046      344.666       21.644      856.402
09/18/2014  18:04:00     -405.327     -233.665      -25.428      207.895      164.065      103.955    43220.344    26917.194    10806.543       15.022        4.047      467.856      106.781        0.052      344.508       21.373      856.419
09/18/2014  18:05:00     -509.071     -294.823      -23.502      272.457      208.164      109.538    74232.916    43332.333    11998.615       23.807        6.478      588.281      125.473        0.045      344.447       21.268      856.431
09/18/2014  18:06:00     -468.013     -195.911      -27.859      282.362      190.682      117.842    79728.071    36359.585    13886.634       19.406        6.499      507.363      128.981        0.065      344.349       21.101      856.475
09/18/2014  18:07:00     -350.025     -118.314       -8.144      200.444      197.265       96.906    40177.900    38913.650     9390.786       11.251        4.424      369.480       91.037        0.061      344.301       21.020      856.495
09/18/2014  18:08:00     -524.368     -120.826      -26.843      248.219      147.851      101.889    61612.595    21859.969    10381.421       19.205        4.693      538.108      118.931        0.049      344.430       21.239      856.512
09/18/2014  18:09:00     -506.656      -95.538      -18.011      199.900      183.207       79.824    39959.875    33564.751     6371.932       17.301        3.995      515.585       86.791        0.028      344.538       21.425      856.529
09/18/2014  18:10:00     -376.432     -139.409      -14.151      191.010      162.752       76.617    36484.773    26488.202     5870.093       11.508        3.442      401.418       71.337        0.032      344.496       21.353      856.580
09/18/2014  18:11:00     -269.813     -199.142      -11.534      133.183      159.784       77.994    17737.796    25530.829     6083.033        8.096        2.468      335.345       68.480        0.042      344.510       21.379      856.624
09/18/2014  18:12:00     -388.221     -126.831        3.689      182.567      167.416       89.538    33330.872    28028.061     8017.047       11.808        3.469      408.413       94.869        0.054      344.543       21.432      856.650
09/18/2014  18:13:00     -269.747      -34.664       -6.618      164.518      121.648       66.945    27066.018    14798.308     4481.615        6.017        2.317      271.965       74.544        0.075      344.561       21.463      856.683
09/18/2014  18:14:00     -255.647     -105.940        4.337      174.030      192.511       85.333    30286.498    37060.596     7281.684        7.560        3.731      276.728       82.929        0.090      344.640       21.599      856.692
09/18/2014  18:15:00     -242.250      -64.053       -3.486      185.247      111.837       77.111    34316.401    12507.451     5946.159        5.777        2.639      250.575       75.955        0.092      344.676       21.660      856.729
09/18/2014  18:16:00     -401.745     -163.583      -11.239      235.951      195.801       86.985    55672.787    38338.221     7566.396       14.491        5.079      433.772      116.109        0.072      344.776       21.833      856.740
09/18/2014  18:17:00     -296.859     -175.197       -8.293      200.121      171.809       86.565    40048.524    29518.213     7493.488        9.796        3.853      344.702       90.531        0.069      344.860       21.975      856.723
09/18/2014  18:18:00     -303.853      -59.608        9.676      189.812      145.895       89.221    36028.783    21285.284     7960.304        8.061        3.264      309.645      101.418        0.107      344.843       21.945      856.723
09/18/2014  18:19:00     -436.232     -121.755      -19.647      189.736      157.161       90.590    35999.758    24699.647     8206.624       13.719        3.445      452.905      100.156        0.049      344.835       21.932      856.751
09/18/2014  18:20:00     -443.908     -262.358      -23.783      218.570      180.484      109.231    47773.015    32574.385    11931.418       17.935        4.614      515.642       94.024        0.033      344.895       22.036      856.760
09/18/2014  18:21:00     -346.726     -155.095      -15.777      179.219      160.262       85.973    32119.565    25683.843     7391.365       10.485        3.260      379.834       93.329        0.060      344.963       22.153      856.811
09/18/2014  18:22:00     -192.881     -107.956        2.721      115.470       99.494       68.793    13333.243     9899.080     4732.524        3.841        1.398      221.037       58.055        0.069      344.938       22.108      856.834
09/18/2014  18:23:00     -435.063      -97.945      -16.975      256.682      153.558      101.135    65885.728    23579.973    10228.238       14.941        4.985      445.952      122.766        0.076      344.945       22.121      856.842
09/18/2014  18:24:00     -599.653     -205.847      -40.954      236.744      245.807       92.915    56047.749    60420.858     8633.172       26.434        6.255      634.001      106.157        0.028      344.948       22.126      856.849
09/18/2014  18:25:00     -308.683     -122.977       -3.924      209.782      165.547      102.815    44008.671    27405.834    10570.871        9.619        4.099      332.278      102.824        0.096      344.937       22.108      856.859
09/18/2014  18:26:00     -385.752     -102.720       -0.933      261.145      171.206      102.315    68196.731    29311.595    10468.316       13.364        5.399      399.194      120.207        0.091      344.881       22.011      856.864
09/18/2014  18:27:00     -394.138     -103.778      -22.380      188.021      167.840       88.303    35351.862    28170.348     7797.441       11.895        3.566      407.571       80.812        0.039      344.804       21.878      856.888
09/18/2014  18:28:00     -238.463     -136.020       19.601      212.438      180.737      120.831    45129.706    32665.773    14600.246        8.405        4.620      274.529      130.983        0.228      344.775       21.830      856.906
09/18/2014  18:29:00     -352.567     -250.499      -12.715      194.471      159.029       86.006    37818.921    25290.204     7396.963       12.885        3.525      432.497      101.038        0.055      344.689       21.681      856.961
09/18/2014  18:30:00     -196.401     -112.805       25.227      199.059      143.390       91.840    39624.595    20560.641     8434.530        6.026        3.431      226.491      105.667        0.218      344.604       21.538      857.013
09/18/2014  18:31:00     -390.454     -158.344      -18.087      189.969      142.571       85.288    36088.409    20326.352     7273.977       12.076        3.184      421.340       84.388        0.040      344.603       21.537      857.039
09/18/2014  18:32:00     -281.187     -164.435      -12.654      137.309      136.648       65.461    18853.889    18672.758     4285.126        7.403        2.091      325.738       50.292        0.024      344.567       21.473      857.079
09/18/2014  18:33:00     -252.050     -105.202        0.397      148.412      126.675       66.809    22025.999    16046.630     4463.382        5.856        2.127      273.124       65.443        0.057      344.546       21.438      857.062
09/18/2014  18:34:00     -232.423      -87.127       14.669      210.875      170.469       88.960    44468.351    29059.630     7913.932        7.162        4.072      248.217      108.651        0.192      344.558       21.459      857.068
09/18/2014  18:35:00     -349.954      -38.115      -16.285      153.596      153.977       74.481    23591.656    23708.930     5547.424        8.851        2.642      352.023       75.753        0.046      344.556       21.456      857.081
09/18/2014  18:36:00     -330.372      -75.403       -0.799      140.983      135.395       69.023    19876.282    18331.764     4764.117        7.889        2.149      338.868       59.586        0.031      344.506       21.369      857.117
09/18/2014  18:37:00     -358.972      -82.903        0.554      219.268      162.832       78.898    48078.243    26514.311     6224.857       10.826        4.041      368.421       97.034        0.069      344.630       21.582      857.178
09/18/2014  18:38:00     -355.112     -154.765      -16.767      190.054      129.177       73.485    36120.420    16686.742     5400.071       10.426        2.910      387.372       79.291        0.042      344.675       21.660      857.183
09/18/2014  18:39:00     -320.815      -44.837      -11.625      155.991      132.983       69.904    24333.227    17684.600     4886.561        7.598        2.345      323.933       80.511        0.062      344.647       21.610      857.187
09/18/2014  18:40:00     -321.850     -138.691       -8.071      196.777      133.955       67.773    38721.088    17944.048     4593.206        9.206        3.063      350.460       84.201        0.058      344.641       21.601      857.203
09/18/2014  18:41:00     -352.231     -196.540      -25.681      169.645      136.069       66.754    28779.292    18514.899     4456.068       10.754        2.588      403.354       62.532        0.024      344.730       21.753      857.191
09/18/2014  18:42:00     -308.738      -24.618       -5.173      174.159       99.119       65.843    30331.336     9824.545     4335.315        7.021        2.225      309.717       78.143        0.064      344.675       21.658      857.208
09/18/2014  18:43:00     -494.785     -179.353      -20.479      262.874      178.903       98.047    69102.775    32006.435     9613.276       19.404        5.536      526.288      112.605        0.046      344.791       21.856      857.211
09/18/2014  18:44:00     -528.395      -86.809      -46.139      198.819      125.804       80.657    39529.028    15826.543     6505.576       17.535        3.093      535.479       88.361        0.027      344.787       21.849      857.201
09/18/2014  18:45:00     -296.712      -35.225       -9.336      198.835      156.162       75.987    39535.472    24386.560     5773.981        7.952        3.485      298.795       82.123        0.076      344.751       21.788      857.197
09/18/2014  18:46:00     -287.217     -130.341       18.691      244.635      122.979      117.555    59846.380    15123.948    13819.077        9.429        4.439      315.408      140.976        0.200      344.789       21.852      857.186
09/18/2014  18:47:00     -295.478     -168.607      -18.307      233.493      151.187       94.593    54519.165    22857.462     8947.809       10.118        4.316      340.199      110.481        0.105      344.831       21.926      857.171
09/18/2014  18:48:00     -311.628      -57.107       -1.533      170.417      143.988       79.028    29041.798    20732.541     6245.463        7.819        2.801      316.817       86.251        0.074      344.793       21.861      857.171
09/18/2014  18:49:00     -271.035      -14.884       -0.784      130.932       92.697       68.914    17143.254     8592.764     4749.076        5.208        1.524      271.443       72.228        0.071      344.749       21.786      857.195
09/18/2014  18:50:00     -430.593      -46.979      -23.486      285.369      120.120       90.322    81435.635    14428.810     8158.140       14.607        5.201      433.148      123.469        0.081      344.761       21.804      857.178
09/18/2014  18:51:00     -423.002      -53.652      -33.944      212.819      139.352       73.300    45291.951    19418.944     5372.846       12.651        3.504      426.391       55.327        0.017      344.785       21.846      857.190
09/18/2014  18:52:00     -326.320      -12.280      -13.749      167.100      143.203       77.778    27922.558    20507.207     6049.356        8.064        2.724      326.551       75.665        0.054      344.777       21.832      857.173
09/18/2014  18:53:00     -491.427     -220.101      -37.868      223.781      162.750       89.495    50077.811    26487.714     8009.408       18.796        4.229      538.466       97.528        0.033      344.798       21.867      857.186
09/18/2014  18:54:00      -83.624      -16.219       33.965      141.611      120.489       87.835    20053.783    14517.598     7715.062        2.534        2.114       85.182       91.537        1.155      344.758       21.801      857.158
09/18/2014  18:55:00     -419.005      -58.830      -11.302      233.953      157.185       86.115    54734.102    24707.054     7415.724       13.299        4.343      423.115      112.805        0.071      344.742       21.773      857.200
09/18/2014  18:56:00     -397.016     -117.362      -10.213      237.802      146.769       82.991    56549.615    21541.006     6887.566       12.822        4.249      413.999       92.987        0.050      344.764       21.809      857.223
09/18/2014  18:57:00     -400.481        5.975       -7.072      166.430      119.664       77.914    27698.940    14319.542     6070.650       10.427        2.404      400.526       71.050        0.031      344.752       21.791      857.263
09/18/2014  18:58:00     -416.177      -89.971      -18.613      190.723      138.025       81.503    36375.152    19050.891     6642.771       12.184        3.103      425.791       93.427        0.048      344.747       21.781      857.280
09/18/2014  18:59:00     -461.851     -152.001      -38.223      149.682      132.566       72.538    22404.733    17573.766     5261.744       14.155        2.262      486.220       64.778        0.018      344.758       21.800      857.299
09/18/2014  19:00:00     -396.916     -131.620      -25.599      179.963      114.643       74.091    32386.539    13143.051     5489.520       11.326        2.551      418.170       85.636        0.042      344.760       21.805      857.312
09/18/2014  19:01:00     -359.253      -59.856      -16.923      173.703      100.227       66.759    30172.801    10045.466     4456.791        8.879        2.234      364.205       74.949        0.042      344.744       21.777      857.311
09/18/2014  19:02:00     -355.222      -56.255       -7.570      182.840      110.962       58.725    33430.554    12312.515     3448.626        8.929        2.460      359.649       79.737        0.049      344.719       21.735      857.327
09/18/2014  19:03:00     -229.801      -73.958       -0.633      116.216       94.215       57.105    13506.250     8876.425     3261.022        4.196        1.282      241.409       52.035        0.046      344.678       21.664      857.355
09/18/2014  19:04:00     -158.994     -107.549        8.376      141.100      141.710       79.687    19909.147    20081.748     6350.011        4.162        2.317      191.953       83.673        0.190      344.721       21.739      857.360
09/18/2014  19:05:00     -337.669      -67.196      -13.044      148.627      122.376       61.370    22090.069    14975.796     3766.260        7.976        2.042      344.290       73.951        0.046      344.753       21.791      857.350
09/18/2014  19:06:00     -386.335     -127.528       -1.136      241.781      160.510       92.097    58458.283    25763.417     8481.899       12.909        4.635      406.839      105.863        0.068      344.708       21.714      857.336
09/18/2014  19:07:00     -277.727      -49.064      -11.786      137.368      139.892       73.573    18870.054    19569.670     5412.973        6.176        2.193      282.028       69.990        0.062      344.685       21.675      857.369
09/18/2014  19:08:00     -345.123     -172.285       -8.575      166.128      125.352       68.449    27598.355    15713.047     4685.270        9.842        2.400      385.736       68.626        0.032      344.720       21.734      857.373
09/18/2014  19:09:00     -275.615     -133.918       12.379      168.544      129.636       65.781    28407.025    16805.527     4327.074        7.179        2.477      306.428       80.347        0.069      344.678       21.664      857.398
09/18/2014  19:10:00     -354.795      -88.498      -18.920      142.820      135.266       66.345    20397.598    18296.810     4401.660        8.857        2.155      365.665       65.521        0.032      344.693       21.688      857.419
09/18/2014  19:11:00     -319.814      -35.172       -4.965      172.029      117.568       87.959    29594.034    13822.341     7736.842        7.734        2.558      321.742       88.571        0.076      344.698       21.698      857.411
09/18/2014  19:12:00     -420.582      -37.509      -23.547      217.289      157.927       88.582    47214.325    24941.025     7846.721       12.941        4.000      422.251      102.977        0.059      344.687       21.678      857.409
09/18/2014  19:13:00     -435.675     -127.591      -14.489      197.457      151.509       78.743    38989.177    22955.084     6200.384       13.721        3.407      453.974       84.132        0.034      344.670       21.649      857.379
09/18/2014  19:14:00     -382.479      -53.470      -17.531      194.055      161.190       93.417    37657.187    25982.337     8726.767       11.090        3.618      386.199       94.398        0.060      344.682       21.671      857.428
09/18/2014  19:15:00     -283.577      -97.649        3.608      227.969      134.181       84.472    51969.822    18004.441     7135.506        8.352        3.855      299.918       94.729        0.100      344.690       21.683      857.436
09/18/2014  19:16:00     -217.430     -100.788        1.529      171.998      169.280       80.128    29583.198    28655.805     6420.500        6.103        3.233      239.654       86.975        0.132      344.679       21.667      857.422
09/18/2014  19:17:00     -167.606      -70.212        5.851      132.260      142.275       67.579    17492.582    20242.291     4566.939        3.767        2.115      181.718       54.750        0.091      344.626       21.576      857.461
09/18/2014  19:18:00     -330.890        3.783      -39.191      150.922      125.837       62.166    22777.420    15835.033     3864.558        7.675        2.124      330.912       69.825        0.045      344.624       21.572      857.480
09/18/2014  19:19:00     -331.659      -83.183      -26.554      117.198      121.482       64.246    13735.358    14757.812     4127.552        7.512        1.631      341.932       64.293        0.035      344.628       21.579      857.467
09/18/2014  19:20:00     -275.233      -45.679      -22.311      146.222      117.963       66.068    21380.841    13915.302     4364.968        5.899        1.983      278.998       69.589        0.062      344.593       21.519      857.476
09/18/2014  19:21:00      -64.810      -20.727        8.310      107.781       68.570       47.169    11616.803     4701.878     2224.886        1.162        0.927       68.044       40.040        0.346      344.562       21.470      857.472
09/18/2014  19:22:00     -403.812     -140.267      -19.338      129.082      108.848       61.897    16662.104    11847.886     3831.250       10.772        1.617      427.480       64.900        0.023      344.594       21.521      857.488
09/18/2014  19:23:00     -331.007        2.937      -20.654      212.115      140.230       71.804    44992.787    19664.560     5155.765        8.989        3.491      331.020       91.148        0.076      344.577       21.493      857.508
09/18/2014  19:24:00     -302.624      -19.720      -16.122      132.446      127.520       60.548    17541.822    16261.375     3666.017        6.484        1.873      303.266       62.555        0.043      344.568       21.476      857.540
09/18/2014  19:25:00     -263.353      -60.594       -9.346      140.784      110.262       61.553    19820.170    12157.775     3788.825        5.443        1.788      270.234       65.568        0.059      344.545       21.436      857.558
09/18/2014  19:26:00     -294.553      -15.310      -17.768      208.093      138.614       71.675    43302.689    19213.810     5137.364        7.747        3.383      294.950       80.847        0.075      344.562       21.464      857.590
09/18/2014  19:27:00     -180.075       98.800      -16.756       91.084      124.754       59.304     8296.282    15563.593     3516.961        3.492        1.369      205.398       51.285        0.062      344.566       21.474      857.637
09/18/2014  19:28:00     -156.215      129.340      -28.051       49.057       83.631       41.324     2406.636     6994.139     1707.661        2.651        0.555      202.810       25.671        0.016      344.527       21.407      857.671
09/18/2014  19:29:00     -148.766      151.922      -38.022      105.166       86.769       37.984    11059.949     7528.861     1442.765        3.334        1.002      212.630       37.121        0.030      344.540       21.430      857.713
09/18/2014  19:30:00     -236.490      134.428      -14.239      140.593      166.506       69.151    19766.278    27724.161     4781.909        6.323        2.614      272.026       83.526        0.094      344.499       21.357      857.737
09/18/2014  19:31:00     -155.731      162.875      -31.724       85.349       95.941       50.229     7284.401     9204.731     2522.930        3.540        0.951      225.345       50.675        0.051      344.506       21.369      857.772
09/18/2014  19:32:00     -208.272       92.964      -29.913      117.829       84.923       60.381    13883.676     7211.858     3645.908        3.882        1.237      228.078       56.959        0.062      344.564       21.469      857.790
09/18/2014  19:33:00     -164.928      204.499      -19.507       79.721      104.744       57.154     6355.483    10971.249     3266.589        4.499        1.030      262.719       48.780        0.034      344.555       21.453      857.800
09/18/2014  19:34:00     -131.883      209.557      -26.804       59.170       84.445       47.106     3501.066     7131.007     2218.948        3.744        0.643      247.603       31.024        0.016      344.570       21.478      857.818
09/18/2014  19:35:00     -175.449      140.052      -35.818      104.814       86.135       48.759    10986.077     7419.226     2377.430        3.623        1.039      224.492       51.236        0.052      344.591       21.515      857.842
09/18/2014  19:36:00     -276.125      105.423      -52.937      139.265       73.486       53.531    19394.679     5400.179     2865.541        5.891        1.383      295.566       47.795        0.026      344.685       21.676      857.889
09/18/2014  19:37:00     -139.806      144.708      -22.082       87.675       60.158       42.292     7686.960     3619.007     1788.617        2.703        0.655      201.212       48.221        0.057      344.660       21.633      857.905
09/18/2014  19:38:00     -103.806       98.823       -9.006       78.321       70.787       41.639     6134.217     5010.746     1733.767        1.675        0.644      143.324       30.183        0.044      344.628       21.581      857.944
09/18/2014  19:39:00     -133.719       65.353      -18.446       58.965       55.320       35.789     3476.825     3060.275     1280.836        1.515        0.391      148.835       35.393        0.057      344.626       21.577      858.000
09/18/2014  19:40:00     -132.855        4.018       -6.561      124.004       80.258       46.855    15376.961     6441.305     2195.354        2.086        1.201      132.916       51.704        0.151      344.568       21.477      858.064
09/18/2014  19:41:00     -130.403       -6.395      -12.808       78.164       81.488       36.470     6109.589     6640.220     1330.041        1.564        0.704      130.560       32.748        0.063      344.536       21.424      858.084
09/18/2014  19:42:00     -127.449       36.423      -15.290       60.104       69.151       37.897     3612.500     4781.829     1436.173        1.382        0.492      132.552       19.832        0.022      344.537       21.425      858.109
09/18/2014  19:43:00      -68.749       62.767       -8.117       72.484       48.499       35.459     5253.990     2352.117     1257.305        0.880        0.443       93.092       32.418        0.121      344.543       21.436      858.141
09/18/2014  19:44:00      -72.124      193.744       -3.444       68.504       90.187       46.285     4692.792     8133.769     2142.255        2.886        0.748      206.733       48.341        0.055      344.579       21.494      858.158
09/18/2014  19:45:00     -133.490       25.077       -9.217       68.870       51.607       28.415     4743.029     2663.241      807.435        1.337        0.411      135.825       29.238        0.046      344.545       21.440      858.161
09/18/2014  19:46:00     -111.706       60.799      -11.416       70.368       63.441       45.208     4951.721     4024.774     2043.758        1.366        0.551      127.180       37.703        0.088      344.549       21.446      858.157
09/18/2014  19:47:00     -125.891       79.300      -22.235       50.049       82.117       37.438     2504.875     6743.160     1401.572        1.664        0.532      148.786       23.342        0.025      344.544       21.437      858.162
09/18/2014  19:48:00      -92.763      156.725      -13.031       47.020       53.735       39.808     2210.898     2887.452     1584.663        2.001        0.334      182.120       27.025        0.022      344.565       21.473      858.164
09/18/2014  19:49:00     -102.318      117.111      -22.489       56.017       62.801       33.165     3137.958     3944.014     1099.932        1.643        0.409      155.512       27.502        0.031      344.584       21.504      858.167
09/18/2014  19:50:00     -121.739      124.373      -15.128       78.851       74.272       43.935     6217.499     5516.399     1930.253        2.209        0.683      174.037       42.267        0.059      344.588       21.511      858.170
09/18/2014  19:51:00     -127.068      127.996      -24.193       64.143       93.488       38.375     4114.360     8739.932     1472.648        2.372        0.716      180.359       35.847        0.040      344.537       21.426      858.180
09/18/2014  19:52:00     -135.099      189.657      -18.628      124.654       94.536       64.568    15538.730     8937.038     4169.021        4.160        1.432      232.855       72.038        0.096      344.469       21.307      858.176
09/18/2014  19:53:00     -141.727      157.558      -30.969       66.585       68.954       48.409     4433.510     4754.651     2343.436        2.870        0.577      211.922       42.672        0.041      344.435       21.250      858.155
09/18/2014  19:54:00      -86.102      131.948       -6.899       83.554      100.807       54.328     6981.305    10162.067     2951.579        2.248        1.005      157.556       44.112        0.078      344.368       21.135      858.148
09/18/2014  19:55:00     -124.546      129.393      -19.858       49.680       59.188       41.051     2468.144     3503.231     1685.211        2.015        0.383      179.595       31.343        0.030      344.316       21.045      858.157
09/18/2014  19:56:00     -116.532      211.931      -26.705       80.594       95.189       43.842     6495.445     9060.891     1922.120        3.834        0.874      241.856       34.719        0.021      344.383       21.159      858.164
09/18/2014  19:57:00     -185.678        4.497      -12.208      118.629       95.704       49.201    14072.921     9159.333     2420.729        3.014        1.283      185.733       51.454        0.077      344.376       21.148      858.172
09/18/2014  19:58:00     -238.412      114.348      -33.758      114.707       87.542       57.763    13157.644     7663.605     3336.576        4.760        1.208      264.416       45.475        0.030      344.366       21.130      858.201
09/18/2014  19:59:00     -171.767       38.326      -13.755      100.411       73.582       42.775    10082.434     5414.265     1829.732        2.424        0.866      175.991       48.725        0.077      344.334       21.078      858.225
09/18/2014  20:00:00     -148.264      103.039      -29.992       80.800       68.780       41.688     6528.584     4730.726     1737.902        2.325        0.650      180.553       30.720        0.029      344.308       21.034      858.246
09/18/2014  20:01:00     -147.604       30.720      -18.703       77.590      102.380       52.469     6020.149    10481.603     2753.034        2.116        0.963      150.767       42.022        0.078      344.278       20.983      858.270
09/18/2014  20:02:00     -273.523       63.498      -44.881      115.686      108.746       62.380    13383.348    11825.704     3891.284        5.497        1.455      280.797       59.109        0.044      344.280       20.984      858.282
09/18/2014  20:03:00     -128.151       86.256      -10.284      126.337       70.676       58.048    15960.938     4995.106     3369.516        2.414        1.216      154.476       74.735        0.234      344.247       20.928      858.294
09/18/2014  20:04:00     -144.741       37.523       -4.462       79.768       96.855       64.725     6362.975     9380.853     4189.287        2.115        0.997      149.525       57.353        0.147      344.257       20.946      858.319
09/18/2014  20:05:00     -136.337      176.518      -18.350       97.339      136.666       67.091     9474.836    18677.603     4501.179        4.136        1.633      223.039       73.975        0.110      344.299       21.019      858.357
09/18/2014  20:06:00     -172.163      223.685      -26.333       95.091      107.507       57.881     9042.248    11557.831     3350.186        5.215        1.198      282.267       51.417        0.033      344.357       21.115      858.362
09/18/2014  20:07:00     -165.261      214.797      -27.535      108.060      116.351       65.064    11676.869    13537.654     4233.318        5.182        1.472      271.014       53.209        0.039      344.366       21.130      858.370
09/18/2014  20:08:00     -259.766      283.627      -67.571      110.189       98.373       69.981    12141.558     9677.206     4897.376        8.960        1.336      384.607       60.367        0.025      344.418       21.218      858.388
09/18/2014  20:09:00     -179.472      139.627      -25.180       99.150      124.697       60.291     9830.714    15549.441     3635.008        4.067        1.451      227.389       49.127        0.047      344.394       21.178      858.406
09/18/2014  20:10:00     -161.440       32.025      -12.000       95.568       82.250       49.646     9133.204     6764.999     2464.738        2.279        0.918      164.586       38.427        0.055      344.369       21.137      858.425
09/18/2014  20:11:00     -233.255       98.036      -43.230      150.370      158.288       72.020    22611.127    25055.203     5186.873        5.936        2.643      253.019       65.939        0.068      344.389       21.167      858.462
09/18/2014  20:12:00     -200.903      141.670      -36.254       93.372      133.702       74.954     8718.376    17876.227     5618.109        4.697        1.611      245.830       65.020        0.070      344.360       21.121      858.491
09/18/2014  20:13:00     -284.405       79.940      -51.265      136.650       90.267       59.852    18673.309     8148.161     3582.308        6.015        1.520      295.427       68.437        0.054      344.367       21.132      858.526
09/18/2014  20:14:00     -128.456        7.032      -22.577       72.528       67.735       46.142     5260.356     4588.083     2129.051        1.452        0.599      128.648       35.634        0.077      344.295       21.011      858.545
09/18/2014  20:15:00     -220.645      110.728      -49.679      142.435      126.540       57.575    20287.686    16012.475     3314.888        5.151        1.981      246.870       67.898        0.076      344.295       21.010      858.590
09/18/2014  20:16:00     -190.786      121.684      -11.320       80.288      104.004       49.828     6446.143    10816.826     2482.854        3.554        0.987      226.288       40.754        0.032      344.232       20.903      858.615
09/18/2014  20:17:00     -189.885       82.498      -21.875      111.312      109.618       46.529    12390.447    12016.161     2164.904        3.495        1.329      207.032       41.689        0.041      344.223       20.887      858.640
09/18/2014  20:18:00     -174.269      168.504      -27.687      106.435       93.414       55.377    11328.426     8726.162     3066.628        4.132        1.156      242.412       51.194        0.045      344.222       20.886      858.662
09/18/2014  20:19:00     -182.606       35.564      -28.853      136.478      132.638       73.806    18626.129    17592.884     5447.396        3.855        2.083      186.037       71.357        0.147      344.250       20.933      858.679
09/18/2014  20:20:00     -255.240       83.369      -44.171      150.435       95.373       49.520    22630.584     9095.931     2452.248        5.411        1.709      268.510       42.319        0.025      344.227       20.895      858.705
09/18/2014  20:21:00     -180.724       59.057      -25.660       89.290       81.280       51.934     7972.639     6606.411     2697.140        2.704        0.864      190.129       44.213        0.054      344.204       20.855      858.716
09/18/2014  20:22:00     -124.069       57.558       -3.324       81.278       79.394       49.537     6606.035     6303.456     2453.910        1.704        0.768      136.771       41.735        0.093      344.173       20.802      858.746
09/18/2014  20:23:00      -62.022       39.137       10.770       70.179       64.891       46.323     4925.149     4210.825     2145.801        0.839        0.564       73.338       26.532        0.131      344.140       20.748      858.763
09/18/2014  20:24:00     -114.590      124.618       -4.721      100.891      121.614       59.131    10179.028    14790.046     3496.530        2.857        1.423      169.294       57.874        0.117      344.204       20.856      858.800
09/18/2014  20:25:00      -83.739      137.196      -20.694       90.098       71.638       45.633     8117.586     5131.992     2082.400        2.079        0.767      160.732       41.023        0.065      344.222       20.887      858.792
09/18/2014  20:26:00     -181.087      174.231      -44.736       84.971       84.552       55.210     7220.026     7148.969     3048.092        4.128        0.871      251.294       49.332        0.039      344.258       20.945      858.832
09/18/2014  20:27:00      -76.728      139.655       -1.538       78.043       84.212       51.805     6090.683     7091.609     2683.741        2.063        0.793      159.344       49.797        0.098      344.204       20.856      858.854
09/18/2014  20:28:00     -204.017      249.627      -39.787      107.909      110.993       67.959    11644.310    12319.450     4618.474        6.705        1.429      322.393       63.845        0.039      344.239       20.913      858.887
09/18/2014  20:29:00     -132.022      231.258      -15.205       89.650      130.134       63.889     8037.144    16934.946     4081.824        5.009        1.453      266.290       64.920        0.059      344.225       20.891      858.924
09/18/2014  20:30:00     -124.378      292.123      -33.487       87.828      112.536       50.429     7713.845    12664.281     2543.063        6.242        1.146      317.499       53.994        0.029      344.212       20.867      858.943
09/18/2014  20:31:00     -110.895      308.356      -27.841      101.536      154.115       67.356    10309.545    23751.529     4536.873        7.337        1.930      327.690       76.710        0.055      344.161       20.781      858.967
09/18/2014  20:32:00     -174.046      334.287      -38.797       97.225      141.666       68.201     9452.764    20069.382     4651.394        8.885        1.709      376.881       60.578        0.026      344.140       20.744      858.986
09/18/2014  20:33:00     -145.890      293.246      -47.034       84.466      114.941       51.873     7134.446    13211.358     2690.847        6.626        1.152      327.532       53.293        0.026      344.093       20.662      859.008
09/18/2014  20:34:00      -65.309      423.696      -41.451       83.362      143.091       50.206     6949.297    20474.968     2520.631       10.772        1.497      428.700       58.253        0.018      343.929       20.383      859.020
09/18/2014  20:35:00     -131.204      330.188      -33.993       78.673      117.722       49.916     6189.393    13858.442     2491.603        7.496        1.127      355.301       59.708        0.028      343.863       20.270      859.028
09/18/2014  20:36:00     -114.565      309.187      -38.526       87.417       92.492       56.542     7641.774     8554.796     3197.044        6.480        0.970      329.730       51.476        0.024      343.826       20.209      859.048
09/18/2014  20:37:00     -126.648      267.475      -32.906       98.180      147.026       64.756     9639.232    21616.525     4193.400        6.205        1.772      295.944       59.967        0.041      343.824       20.205      859.061
09/18/2014  20:38:00     -131.514      166.787      -22.599       88.256      113.237       49.525     7789.117    12822.638     2452.746        3.434        1.153      212.401       56.300        0.070      343.805       20.172      859.080
09/18/2014  20:39:00     -154.267      206.133      -32.594       90.885      105.664       45.242     8260.064    11164.966     2046.847        4.441        1.074      257.467       47.299        0.034      343.786       20.141      859.088
09/18/2014  20:40:00      -90.325       72.112      -17.502       65.149       66.808       39.090     4244.422     4463.250     1528.016        1.195        0.512      115.580       30.994        0.072      343.775       20.125      859.102
09/18/2014  20:41:00     -224.165      294.059      -56.622      116.283      127.833       62.826    13521.840    16341.163     3947.128        8.686        1.691      369.758       58.910        0.025      343.795       20.156      859.118
09/18/2014  20:42:00     -152.831      198.215      -13.158      102.705      108.310       64.806    10548.289    11731.087     4199.810        4.464        1.324      250.294       62.730        0.063      343.787       20.141      859.113
09/18/2014  20:43:00     -217.484      127.428      -17.904      143.131       68.595       60.101    20486.422     4705.251     3612.079        4.632        1.440      252.066       59.128        0.055      343.784       20.136      859.095
09/18/2014  20:44:00     -109.273      102.943      -23.222       79.445       68.416       40.160     6311.556     4680.753     1612.861        1.784        0.630      150.126       52.364        0.122      343.749       20.078      859.079
09/18/2014  20:45:00     -200.545      393.325      -49.763      118.674      129.272       69.255    14083.526    16711.122     4796.272       11.649        1.780      441.501       71.954        0.027      343.742       20.064      859.109
09/18/2014  20:46:00     -166.166      283.571      -37.835      126.139      143.986       71.124    15911.167    20732.012     5058.693        7.557        2.085      328.670       70.203        0.046      343.801       20.165      859.127
09/18/2014  20:47:00     -196.446      299.471      -45.714      116.502      154.911       74.481    13572.773    23997.299     5547.457        8.673        2.156      358.153       72.756        0.041      343.805       20.172      859.127
09/18/2014  20:48:00     -223.033      261.622      -53.968      101.343      100.713       60.180    10270.364    10143.061     3621.644        7.256        1.202      343.787       63.807        0.034      343.831       20.216      859.155
09/18/2014  20:49:00     -143.526      238.641      -35.754      105.528      121.908       59.603    11136.256    14861.667     3552.472        5.418        1.478      278.476       71.038        0.065      343.791       20.150      859.106
09/18/2014  20:50:00     -215.090      276.568      -40.910      114.513      125.234       71.818    13113.293    15683.617     5157.799        7.918        1.698      350.362       63.514        0.033      343.761       20.097      859.153
09/18/2014  20:51:00     -136.386      250.324      -23.468      105.032      131.232       66.931    11031.818    17221.811     4479.705        5.727        1.637      285.067       64.719        0.052      343.778       20.125      859.157
09/18/2014  20:52:00     -146.599      224.689      -35.963      122.036      110.027       70.099    14892.700    12105.903     4913.811        5.258        1.596      268.284       67.190        0.063      343.789       20.144      859.163
09/18/2014  20:53:00     -151.743      291.568      -31.768       91.779      172.888       59.648     8423.463    29890.111     3557.932        7.545        2.094      328.691       46.832        0.020      343.766       20.104      859.178
09/18/2014  20:54:00     -172.393      114.330      -20.761      122.688      100.757       61.760    15052.447    10152.052     3814.300        3.611        1.451      206.860       41.630        0.041      343.729       20.045      859.186
09/18/2014  20:55:00     -243.020        5.495      -41.970      103.443      128.003       64.355    10700.436    16384.673     4141.623        4.603        1.561      243.082       51.781        0.045      343.806       20.174      859.216
09/18/2014  20:56:00     -167.671       72.303      -21.934       73.373      102.490       46.284     5383.631    10504.150     2142.166        2.592        0.901      182.596       31.620        0.030      343.798       20.160      859.215
09/18/2014  20:57:00     -119.390      -37.941       -7.051       77.768       58.680       34.182     6047.858     3443.329     1168.408        1.320        0.533      125.273       27.731        0.049      343.735       20.055      859.190
09/18/2014  20:58:00     -144.976      -28.758      -18.263       84.857       74.914       42.296     7200.779     5612.097     1788.916        1.839        0.730      147.800       38.144        0.067      343.723       20.034      859.172
09/18/2014  20:59:00     -146.282        8.628      -26.748      127.143       75.064       45.681    16165.375     5634.646     2086.730        2.303        1.194      146.537       55.652        0.144      343.708       20.007      859.197
09/18/2014  21:00:00     -114.007       90.278      -11.682       55.362       68.907       37.221     3065.006     4748.164     1385.417        1.524        0.460      145.423       30.105        0.043      343.680       19.962      859.191
09/18/2014  21:01:00     -225.299      223.680      -36.872      107.597      126.060       58.883    11577.150    15891.198     3467.204        6.654        1.547      317.478       54.090        0.029      343.675       19.950      859.203
09/18/2014  21:02:00     -148.551      131.702      -19.948       83.464      106.393       46.729     6966.185    11319.463     2183.634        3.014        1.023      198.526       43.217        0.047      343.658       19.921      859.215
09/18/2014  21:03:00      -86.863       95.639      -14.844       51.672       74.987       26.181     2669.962     5623.053      685.442        1.294        0.449      129.198       23.258        0.032      343.635       19.886      859.202
09/18/2014  21:04:00     -132.705       17.399      -11.840       49.452       96.833       35.618     2445.456     9376.701     1268.637        1.557        0.655      133.841       26.071        0.038      343.643       19.897      859.198
09/18/2014  21:05:00      -92.768      -18.373        3.740       92.958       94.270       42.313     8641.224     8886.857     1790.406        1.413        0.966       94.570       36.305        0.147      343.579       19.788      859.182
09/18/2014  21:06:00     -123.448       37.934      -22.669       79.883      104.058       46.150     6381.344    10828.065     2129.828        1.826        0.967      129.145       50.723        0.154      343.653       19.915      859.174
09/18/2014  21:07:00     -139.882      114.381      -19.769       93.358       99.496       55.229     8715.670     9899.452     3050.250        2.735        1.083      180.693       52.721        0.085      343.662       19.929      859.167
09/18/2014  21:08:00     -164.887      140.905      -36.798      123.798      133.753       68.599    15325.843    17889.913     4705.815        4.315        1.896      216.891       83.203        0.147      343.735       20.053      859.172
09/18/2014  21:09:00     -163.496      129.000      -24.969      112.069       65.635       52.787    12559.446     4307.903     2786.459        3.182        0.983      208.259       46.797        0.050      343.790       20.148      859.182
09/18/2014  21:10:00      -97.479        1.040       -9.096       71.630      100.490       43.606     5130.817    10098.161     1901.503        1.335        0.857       97.484       41.910        0.185      343.848       20.249      859.156
09/18/2014  21:11:00     -159.731       53.576      -21.700       91.819       95.204       38.612     8430.652     9063.723     1490.918        2.392        0.949      168.476       29.425        0.031      343.873       20.290      859.171
09/18/2014  21:12:00     -389.474       15.234      -45.677      171.545      189.671       85.580    29427.613    35975.052     7323.940       11.335        3.636      389.772       87.707        0.051      343.919       20.366      859.161
09/18/2014  21:13:00     -356.449      -19.059      -31.088      143.709      117.783       70.624    20652.378    13872.885     4987.809        8.394        1.976      356.958       74.318        0.043      343.814       20.187      859.166
09/18/2014  21:14:00     -254.443       -7.512      -26.032      104.681      101.253       50.849    10958.076    10252.199     2585.576        4.463        1.190      254.553       51.108        0.040      343.797       20.158      859.173
09/18/2014  21:15:00     -164.112      -15.789       -1.103      109.164       88.280       49.989    11916.702     7793.388     2498.940        2.469        1.110      164.870       45.798        0.077      343.724       20.034      859.205
09/18/2014  21:16:00     -120.610       32.652      -14.783       75.785       78.463       39.773     5743.378     6156.466     1581.863        1.465        0.674      124.951       27.347        0.048      343.708       20.008      859.243
09/18/2014  21:17:00     -107.140       80.661      -25.284       95.432       94.238       47.212     9107.182     8880.817     2228.999        1.942        1.011      134.109       36.636        0.075      343.762       20.101      859.270
09/18/2014  21:18:00      -97.514      215.305      -13.628      102.750      158.426       70.370    10557.572    25098.651     4951.998        4.832        2.030      236.359       71.436        0.091      343.811       20.184      859.310
09/18/2014  21:19:00     -203.342      256.107      -45.179      120.416      117.199       59.435    14499.926    13735.539     3532.540        7.037        1.588      327.015       62.845        0.037      343.912       20.356      859.354
09/18/2014  21:20:00     -164.889      197.462      -22.488      105.012      109.882       52.938    11027.520    12074.123     2802.414        4.629        1.295      257.254       36.892        0.021      343.929       20.385      859.407
09/18/2014  21:21:00     -190.399      153.888      -37.304       59.992      115.511       45.698     3599.089    13342.814     2088.302        4.017        0.952      244.813       34.860        0.020      343.914       20.356      859.436
09/18/2014  21:22:00     -184.174      197.167      -48.342       99.848       88.464       46.875     9969.573     7825.839     2197.290        4.756        1.000      269.806       55.670        0.043      343.922       20.372      859.456
09/18/2014  21:23:00     -138.513      192.884      -28.157       76.293       74.773       50.953     5820.686     5590.987     2596.173        3.559        0.700      237.466       39.015        0.027      343.870       20.282      859.474
09/18/2014  21:24:00     -141.492      196.411      -25.038       95.285       96.195       59.620     9079.153     9253.454     3554.594        4.055        1.094      242.069       59.591        0.061      343.818       20.194      859.485
09/18/2014  21:25:00      -86.482      302.872      -13.041       90.359      133.654       68.934     8164.674    17863.352     4751.895        6.507        1.539      314.978       65.033        0.043      343.815       20.188      859.513
09/18/2014  21:26:00     -106.652      157.732      -14.443       82.010       81.580       53.704     6725.597     6655.338     2884.143        2.636        0.813      190.405       37.432        0.039      343.820       20.199      859.519
09/18/2014  21:27:00     -117.200      187.707      -28.225       73.596       91.730       41.017     5416.312     8414.451     1682.384        3.264        0.776      221.291       30.157        0.019      343.792       20.148      859.543
09/18/2014  21:28:00     -146.718      166.997      -26.555       96.124       92.583       52.912     9239.797     8571.699     2799.703        3.536        1.031      222.293       58.278        0.069      343.775       20.122      859.559
09/18/2014  21:29:00     -104.292      239.381      -34.748       62.553       80.653       44.880     3912.848     6504.976     2014.219        4.091        0.622      261.113       25.813        0.010      343.706       20.004      859.556
09/18/2014  21:30:00      -63.147      198.276      -28.063       57.804      116.571       41.611     3341.341    13588.705     1731.455        3.137        0.933      208.089       40.553        0.038      343.694       19.983      859.549
09/18/2014  21:31:00      -81.763      259.569      -23.152      103.841       82.590       54.490    10783.054     6821.098     2969.168        4.758        1.029      272.142       44.396        0.027      343.629       19.872      859.545
09/18/2014  21:32:00     -144.785      260.312      -30.255       79.185       91.733       55.683     6270.313     8415.021     3100.543        5.371        0.889      297.867       46.957        0.025      343.680       19.957      859.548
09/18/2014  21:33:00     -162.633      121.344      -36.106       57.246       79.068       34.785     3277.121     6251.735     1209.994        2.661        0.537      202.913       25.817        0.016      343.671       19.943      859.573
09/18/2014  21:34:00     -110.254      154.511      -24.268       76.051       99.089       40.571     5783.682     9818.684     1646.009        2.693        0.862      189.815       47.535        0.063      343.657       19.919      859.573
09/18/2014  21:35:00     -109.525      270.902      -31.242      112.978       97.533       48.686    12763.930     9512.737     2370.292        5.550        1.232      292.205       42.596        0.021      343.675       19.949      859.571
09/18/2014  21:36:00      -80.454      219.516       -2.304       68.523      138.560       56.480     4695.398    19198.806     3189.982        4.087        1.354      233.795       59.404        0.065      343.625       19.866      859.584
09/18/2014  21:37:00     -132.328      222.055      -28.930       76.144       80.810       50.957     5797.921     6530.286     2596.587        4.129        0.746      258.495       44.576        0.030      343.619       19.853      859.613
09/18/2014  21:38:00      -44.609      221.972       -6.671       57.110      118.979       59.024     3261.563    14156.002     3483.856        3.610        1.045      226.410       55.524        0.060      343.544       19.728      859.625
09/18/2014  21:39:00      -22.075      231.856      -27.103       39.640       79.659       25.012     1571.353     6345.527      625.599        3.176        0.427      232.905       21.763        0.009      343.480       19.616      859.663
09/18/2014  21:40:00      -55.189      236.350      -24.500       65.247       67.496       35.730     4257.149     4555.721     1276.604        3.480        0.504      242.708       28.676        0.014      343.384       19.453      859.679
09/18/2014  21:41:00       -5.755      248.171      -23.776       43.658       94.469       37.473     1906.033     8924.328     1404.203        3.721        0.612      248.238       44.470        0.032      343.259       19.241      859.707
09/18/2014  21:42:00       42.440      157.569       -8.440       49.016       64.509       43.072     2402.535     4161.464     1855.182        1.756        0.421      163.184       37.530        0.053      343.190       19.126      859.729
09/18/2014  21:43:00       37.223      184.648       -6.261       55.489       95.014       55.640     3079.052     9027.630     3095.857        2.536        0.760      188.362       57.084        0.092      343.073       18.925      859.743
09/18/2014  21:44:00       -8.115      156.889      -19.624       56.979       60.319       36.553     3246.589     3638.409     1336.092        1.664        0.411      157.099       31.696        0.041      343.020       18.836      859.758
09/18/2014  21:45:00      -51.900      264.249      -29.810       56.808       53.387       34.883     3227.201     2850.162     1216.824        4.035        0.365      269.298       28.978        0.012      343.049       18.882      859.784
09/18/2014  21:46:00      -36.662      268.464      -28.926       54.793       58.465       30.112     3002.251     3418.180      906.710        4.079        0.366      270.956       25.683        0.009      343.067       18.913      859.809
09/18/2014  21:47:00      -28.101      159.463      -18.218       60.803       69.747       31.659     3697.041     4864.666     1002.262        1.806        0.478      161.920       33.883        0.044      343.004       18.809      859.809
09/18/2014  21:48:00      -69.293      249.038      -36.025       61.753       89.778       32.848     3813.442     8060.052     1078.995        4.053        0.648      258.498       32.190        0.016      343.157       19.069      859.806
09/18/2014  21:49:00     -114.815      173.401      -21.539       90.969       62.758       35.919     8275.305     3938.562     1290.202        2.861        0.675      207.967       29.868        0.021      343.170       19.091      859.802
09/18/2014  21:50:00      -49.490      154.186       -7.930       42.940       77.509       32.515     1843.828     6007.685     1057.223        1.760        0.445      161.934       35.690        0.049      343.119       19.006      859.805
09/18/2014  21:51:00      -42.433      102.405       -4.880       46.764       53.283       30.645     2186.918     2839.026      939.111        0.914        0.298      110.848       28.406        0.066      343.096       18.968      859.808
09/18/2014  21:52:00      -65.106       40.381      -10.591       59.728       73.792       35.191     3567.493     5445.285     1238.392        0.811        0.513       76.612       28.490        0.138      343.159       19.073      859.809
09/18/2014  21:53:00     -105.901      165.881      -19.878       70.415       77.292       44.891     4958.320     5974.078     2015.181        2.603        0.647      196.803       52.256        0.071      343.143       19.044      859.791
09/18/2014  21:54:00      -99.781      193.740      -31.766       60.050       65.564       40.874     3606.044     4298.603     1670.707        2.904        0.479      217.926       30.559        0.020      343.193       19.129      859.790
09/18/2014  21:55:00     -127.857      121.632      -22.259       76.452       65.920       47.456     5844.892     4345.506     2252.042        2.204        0.622      176.470       38.066        0.047      343.252       19.231      859.787
09/18/2014  21:56:00     -117.341      229.953      -35.005       64.338       84.372       40.025     4139.421     7118.664     1602.025        4.036        0.643      258.161       35.171        0.019      343.283       19.282      859.791
09/18/2014  21:57:00     -119.643      197.181      -28.526       81.095       83.354       51.074     6576.398     6947.954     2608.515        3.507        0.807      230.640       49.609        0.046      343.280       19.278      859.809
09/18/2014  21:58:00     -111.137      152.147      -25.671       63.019       73.341       41.431     3971.437     5378.912     1716.564        2.361        0.553      188.415       42.422        0.051      343.265       19.253      859.818
09/18/2014  21:59:00     -118.744      207.153      -19.659       57.231       69.031       39.807     3275.418     4765.243     1584.604        3.351        0.481      238.772       30.267        0.016      343.254       19.233      859.838
09/18/2014  22:00:00     -134.261      183.158      -27.823       78.936       81.655       48.709     6230.815     6667.493     2372.596        3.381        0.764      227.096       52.693        0.054      343.258       19.240      859.863
09/18/2014  22:01:00     -169.811      208.481      -38.019       83.380      117.268       47.258     6952.299    13751.708     2233.363        4.834        1.147      268.887       49.476        0.034      343.340       19.379      859.878
09/18/2014  22:02:00     -143.589      146.073      -28.103       64.748       71.898       48.725     4192.263     5169.292     2374.134        2.724        0.587      204.829       40.774        0.040      343.294       19.301      859.888
09/18/2014  22:03:00     -177.363      146.943      -33.640       75.880       72.106       43.389     5757.848     5199.311     1882.596        3.351        0.642      230.326       45.955        0.040      343.355       19.405      859.891
09/18/2014  22:04:00     -139.177      130.784      -10.529      101.951       87.586       50.990    10394.085     7671.344     2599.937        2.862        1.033      190.984       58.874        0.095      343.326       19.356      859.901
09/18/2014  22:05:00     -129.658      187.480      -14.476       52.854       88.333       33.006     2793.588     7802.682     1089.379        3.193        0.584      227.947       25.033        0.012      343.323       19.349      859.902
09/18/2014  22:06:00     -104.875      129.419      -16.489       48.643       97.356       36.258     2366.098     9478.148     1314.652        2.059        0.658      166.577       34.650        0.043      343.297       19.308      859.894
09/18/2014  22:07:00      -97.646       20.098        3.514       81.507       69.261       43.990     6643.375     4797.050     1935.110        1.166        0.669       99.693       43.989        0.195      343.352       19.402      859.873
09/18/2014  22:08:00      -52.349       29.606        1.986       54.507       40.560       29.481     2971.009     1645.105      869.111        0.455        0.274       60.141       28.658        0.227      343.237       19.206      859.852
09/18/2014  22:09:00     -135.718      -27.300      -21.169       58.892       65.226       38.770     3468.258     4254.458     1503.113        1.442        0.461      138.436       30.939        0.050      343.360       19.415      859.824
09/18/2014  22:10:00      -91.590       22.352       -2.004       73.089       82.040       43.462     5341.953     6730.585     1888.976        1.142        0.698       94.278       23.215        0.061      343.271       19.264      859.804
09/18/2014  22:11:00      -98.958       33.005       -6.385       73.106       90.377       48.494     5344.485     8168.001     2351.677        1.339        0.793      104.317       46.608        0.200      343.266       19.256      859.780
09/18/2014  22:12:00     -142.990       20.557       -8.745       86.234       96.961       58.359     7436.265     9401.487     3405.821        2.059        1.012      144.460       40.901        0.080      343.250       19.227      859.766
09/18/2014  22:13:00     -144.977      -19.637      -13.326       92.725       83.468       48.833     8597.890     6966.879     2384.618        1.976        0.897      146.301       33.015        0.051      343.198       19.138      859.755
09/18/2014  22:14:00     -167.997      -29.325        1.279       89.858      101.262       47.320     8074.515    10254.078     2239.183        2.482        1.028      170.537       36.342        0.045      343.189       19.126      859.742
09/18/2014  22:15:00     -141.965      106.432      -29.468       92.357      127.332       53.935     8529.877    16213.341     2908.969        3.000        1.383      177.431       49.529        0.078      343.185       19.116      859.744
09/18/2014  22:16:00     -110.514       87.466      -16.439       75.289       95.713       52.205     5668.498     9161.028     2725.315        1.884        0.878      140.938       39.650        0.079      343.234       19.201      859.762
09/18/2014  22:17:00     -123.803       71.619       -8.315      102.113       93.267       61.832    10426.994     8698.820     3823.195        2.173        1.147      143.027       46.776        0.107      343.328       19.361      859.779
09/18/2014  22:18:00     -212.028      100.649      -34.404      124.922      108.776       54.821    15605.468    11832.169     3005.321        4.335        1.522      234.704       57.007        0.059      343.420       19.516      859.788
09/18/2014  22:19:00     -195.304       48.744       -6.607      144.142      103.879       66.984    20776.949    10790.812     4486.857        3.830        1.803      201.295       71.213        0.125      343.397       19.478      859.794
09/18/2014  22:20:00     -125.337      124.165      -29.043       73.011       86.185       43.123     5330.563     7427.915     1859.630        2.329        0.731      176.427       41.820        0.056      343.386       19.458      859.812
09/18/2014  22:21:00     -134.306       55.500      -16.005       79.705       86.518       52.437     6352.904     7485.394     2749.668        1.898        0.829      145.321       35.422        0.059      343.398       19.480      859.830
09/18/2014  22:22:00     -120.002       97.074      -19.502       64.913       94.659       51.829     4213.702     8960.356     2686.212        2.003        0.793      154.350       45.464        0.087      343.372       19.436      859.848
09/18/2014  22:23:00     -112.600      143.838      -23.885       53.658       81.216       38.721     2879.198     6595.987     1499.325        2.245        0.549      182.669       33.829        0.034      343.364       19.422      859.872
09/18/2014  22:24:00     -117.431      113.616      -30.089       73.585       55.244       39.063     5414.758     3051.935     1525.911        1.880        0.500      163.397       31.124        0.036      343.362       19.419      859.885
09/18/2014  22:25:00      -58.499       30.796       -4.915       46.677       85.370       31.990     2178.706     7287.993     1023.367        0.744        0.525       66.110       26.344        0.159      343.321       19.349      859.890
09/18/2014  22:26:00      -54.413       42.980       -5.443       43.775       31.057       27.320     1916.292      964.566      746.373        0.423        0.181       69.340       26.649        0.148      343.298       19.312      859.893
09/18/2014  22:27:00      -59.854       25.534        3.108       46.473       61.772       30.803     2159.766     3815.783      948.836        0.558        0.346       65.073       20.255        0.097      343.302       19.316      859.890
09/18/2014  22:28:00     -111.519        9.962      -10.572       56.133       70.068       34.850     3150.905     4909.569     1214.526        1.096        0.464      111.963       29.401        0.069      343.352       19.404      859.885
09/18/2014  22:29:00     -128.732       -5.653      -17.817       63.368       50.286       28.952     4015.564     2528.673      838.220        1.215        0.369      128.856       17.372        0.018      343.365       19.424      859.883
09/18/2014  22:30:00     -153.706        9.395      -15.480       88.689       53.662       37.510     7865.686     2879.600     1406.977        1.805        0.608      153.992       37.806        0.060      343.332       19.366      859.892
09/18/2014  22:31:00      -73.750       22.778      -20.507       48.347       45.055       29.773     2337.402     2029.969      886.421        0.582        0.263       77.187       21.200        0.075      343.266       19.256      859.935
09/18/2014  22:32:00     -114.663      -11.388      -13.357       89.633       69.277       43.647     8034.042     4799.266     1905.032        1.409        0.737      115.227       24.707        0.046      343.282       19.283      859.950
09/18/2014  22:33:00     -148.988       16.533      -12.035       77.431       96.465       43.289     5995.503     9305.498     1873.958        1.989        0.859      149.903       37.527        0.063      343.279       19.276      859.955
09/18/2014  22:34:00      -85.854       17.737       -1.671       61.871       91.139       39.895     3828.037     8306.277     1591.640        1.070        0.686       87.667       37.952        0.187      343.316       19.340      859.958
09/18/2014  22:35:00      -95.921       -0.052        6.299       78.885       61.625       36.976     6222.776     3797.671     1367.213        1.031        0.569       95.921       40.660        0.180      343.338       19.379      859.964
09/18/2014  22:36:00      -42.875      -25.163       14.073       72.996       38.582       32.770     5328.367     1488.606     1073.843        0.528        0.395       49.714        8.959        0.032      343.280       19.279      859.975
09/18/2014  22:37:00      -91.386        8.790       -3.506       46.511       46.403       27.002     2163.228     2153.226      729.117        0.674        0.252       91.808       22.211        0.059      343.313       19.336      859.992
09/18/2014  22:38:00      -61.007      -33.188        3.522       43.215       27.015       20.177     1867.544      729.822      407.106        0.392        0.150       69.450       22.598        0.106      343.300       19.312      859.994
09/18/2014  22:39:00      -66.502      -66.068       -0.667       51.974       39.945       28.143     2701.322     1595.583      792.017        0.694        0.254       93.742       23.894        0.065      343.285       19.290      860.003
09/18/2014  22:40:00      -70.661      -53.950        6.423       51.860       31.877       23.356     2689.504     1016.139      545.488        0.610        0.213       88.902       19.409        0.048      343.248       19.224      860.006
09/18/2014  22:41:00     -101.612      -51.809       -0.632       86.138       41.444       28.817     7419.740     1717.626      830.393        1.149        0.498      114.058       38.781        0.116      343.267       19.257      860.002
09/18/2014  22:42:00     -107.711      -37.638        0.035       46.400       55.230       24.098     2152.976     3050.334      580.701        0.940        0.289      114.098       27.043        0.056      343.310       19.332      860.004
09/18/2014  22:43:00      -67.668      -27.490       -3.167       42.774       31.399       20.606     1829.643      985.879      424.628        0.429        0.162       73.038       20.505        0.079      343.244       19.220      860.001
09/18/2014  22:44:00     -106.214      -61.806       -4.190       46.902       44.448       27.126     2199.810     1975.604      735.800        1.001        0.246      122.888       24.106        0.038      343.289       19.295      859.997
09/18/2014  22:45:00     -109.504      -66.078        5.517       34.342       43.987       26.349     1179.353     1934.818      694.277        1.010        0.190      127.896       24.419        0.036      343.312       19.336      859.996
09/18/2014  22:46:00     -180.444      -36.864       -3.847       53.880       60.366       30.652     2903.076     3644.054      939.562        2.071        0.374      184.171       24.187        0.017      343.357       19.410      859.998
09/18/2014  22:47:00      -92.675      -18.795       -7.995       25.165       25.009       14.530      633.257      625.461      211.130        0.524        0.073       94.562        9.541        0.010      343.359       19.415      860.008
09/18/2014  22:48:00      -57.783      -34.100       -1.935       50.664       22.850       21.623     2566.797      522.101      467.556        0.403        0.178       67.094       24.614        0.135      343.385       19.459      860.013
09/18/2014  22:49:00      -66.102        2.590        4.073       64.420       41.840       23.934     4149.902     1750.621      572.853        0.543        0.324       66.153       31.523        0.227      343.385       19.459      860.027
09/18/2014  22:50:00      -79.561      -14.818      -11.703       24.528       24.748       15.087      601.628      612.445      227.619        0.406        0.072       80.930       10.013        0.015      343.383       19.454      860.048
09/18/2014  22:51:00      -88.469      -32.368        3.698       42.183       60.427       27.399     1779.428     3651.481      750.701        0.753        0.309       94.204       26.877        0.081      343.418       19.517      860.060
09/18/2014  22:52:00     -105.797      -33.399      -13.475       38.710       43.282       18.803     1498.444     1873.292      353.534        0.811        0.186      110.944       16.816        0.023      343.471       19.606      860.067
09/18/2014  22:53:00      -58.719      -45.881       -5.619       36.696       25.222       18.476     1346.576      636.126      341.360        0.395        0.116       74.518       10.643        0.020      343.427       19.530      860.077
09/18/2014  22:54:00      -54.312      -25.694        3.512       58.026       26.581       18.458     3367.020      706.527      340.714        0.402        0.221       60.084       21.900        0.133      343.362       19.419      860.081
09/18/2014  22:55:00      -37.367      -38.680       10.649       43.872       29.057       21.555     1924.772      844.319      464.627        0.312        0.162       53.781       23.178        0.186      343.409       19.500      860.096
09/18/2014  22:56:00      -48.304      -49.649        6.692       50.726       32.666       22.441     2573.107     1067.059      503.607        0.449        0.207       69.270       24.355        0.124      343.423       19.524      860.100
09/18/2014  22:57:00      -24.103      -32.111       11.690       24.234       21.989       16.215      587.304      483.535      262.914        0.154        0.067       40.151       16.368        0.166      343.391       19.468      860.111
09/18/2014  22:58:00      -74.289      -50.499       -1.261       53.925       40.042       18.898     2907.910     1603.349      357.138        0.647        0.243       89.828       23.033        0.066      343.403       19.490      860.118
09/18/2014  22:59:00      -40.892      -84.061        2.728       37.144       29.131       22.062     1379.711      848.643      486.738        0.573        0.136       93.480       16.073        0.030      343.462       19.592      860.109
09/18/2014  23:00:00      -21.608      -87.661       -0.221       15.802       16.595       11.648      249.693      275.409      135.668        0.441        0.033       90.284        9.532        0.011      343.493       19.643      860.092
09/18/2014  23:01:00     -154.579       -1.695      -16.242       58.600       59.603       21.164     3433.943     3552.497      447.925        1.580        0.372      154.589       15.423        0.010      343.461       19.589      860.079
09/18/2014  23:02:00      -64.426      -35.256        4.818       63.655       29.916       27.769     4051.991      894.948      771.126        0.557        0.286       73.442       31.431        0.183      343.345       19.392      860.083
09/18/2014  23:03:00      -38.414      -46.595       14.799       41.533       35.416       21.719     1724.964     1254.259      471.726        0.366        0.173       60.388       16.814        0.078      343.371       19.436      860.067
09/18/2014  23:04:00      -75.374      -60.010       -7.835       54.750       37.597       18.878     2997.573     1413.505      356.393        0.705        0.238       96.345       17.575        0.033      343.356       19.411      860.075
09/18/2014  23:05:00      -84.052      -41.763        1.126       45.031       36.600       25.659     2027.822     1339.589      658.407        0.642        0.201       93.856       28.183        0.090      343.320       19.347      860.083
09/18/2014  23:06:00     -131.674      -37.361       -6.816       41.333       37.375       16.818     1708.414     1396.902      282.845        1.108        0.169      136.872       18.416        0.018      343.328       19.363      860.095
09/18/2014  23:07:00     -129.070      -53.065        0.643       46.275       35.257       24.569     2141.330     1243.050      603.612        1.173        0.199      139.553       24.529        0.031      343.307       19.326      860.107
09/18/2014  23:08:00     -114.553      -47.962        5.857       76.570       41.582       27.928     5862.903     1729.051      780.000        1.191        0.419      124.188       31.905        0.066      343.310       19.332      860.108
09/18/2014  23:09:00     -213.962      -69.141      -10.003       62.076       50.717       32.035     3853.462     2572.220     1026.233        2.905        0.373      224.856       28.931        0.017      343.283       19.281      860.127
09/18/2014  23:10:00     -159.213      -40.532       -2.936       69.003       49.693       36.164     4761.348     2469.433     1307.826        1.777        0.427      164.292       37.889        0.053      343.223       19.184      860.150
09/18/2014  23:11:00     -169.640      -78.240       -7.053       62.608       47.192       33.403     3919.769     2227.099     1115.762        2.110        0.363      186.813       28.717        0.024      343.241       19.212      860.158
09/18/2014  23:12:00     -147.109      -72.343       -0.274       64.925       41.880       30.010     4215.259     1753.926      900.606        1.687        0.343      163.935       29.602        0.033      343.219       19.177      860.165
09/18/2014  23:13:00     -166.973     -117.554       -0.775       91.397       53.344       38.753     8353.372     2845.604     1501.811        2.720        0.635      204.203       38.170        0.035      343.188       19.120      860.162
09/18/2014  23:14:00     -147.859      -88.912       -4.760       94.603       64.426       40.094     8949.808     4150.677     1607.549        2.225        0.735      172.533       45.550        0.070      343.205       19.150      860.157
09/18/2014  23:15:00     -144.297      -90.263        7.073       80.780       68.418       41.856     6525.363     4680.976     1751.889        2.099        0.648      170.203       33.758        0.039      343.228       19.189      860.167
09/18/2014  23:16:00      -61.141      -58.453       13.252       96.549       59.928       44.074     9321.662     3591.323     1942.482        1.109        0.743       84.588       48.556        0.330      343.233       19.201      860.163
09/18/2014  23:17:00     -176.751      -46.335       -8.395       66.720       86.044       42.575     4451.574     7403.641     1812.642        2.356        0.683      182.724       37.503        0.042      343.229       19.191      860.157
09/18/2014  23:18:00     -116.380      -52.124        5.959       79.986       72.752       40.628     6397.807     5292.821     1650.607        1.482        0.667      127.519       38.388        0.091      343.229       19.192      860.148
09/18/2014  23:19:00     -175.642      -66.456        0.724      130.252       82.485       52.560    16965.689     6803.740     2762.580        3.089        1.327      187.794       54.177        0.083      343.293       19.299      860.135
09/18/2014  23:20:00     -234.828      -22.625       -5.455       91.795       63.907       49.032     8426.328     4084.047     2404.146        3.530        0.746      235.915       55.167        0.055      343.276       19.270      860.129
09/18/2014  23:21:00     -218.861     -101.730       -0.235       94.575       78.844       44.865     8944.493     6216.423     2012.885        3.771        0.859      241.349       46.177        0.037      343.252       19.231      860.111
09/18/2014  23:22:00     -179.521     -102.975        7.547       99.226       76.117       51.827     9845.879     5793.828     2686.062        3.060        0.916      206.958       50.903        0.060      343.257       19.238      860.103
09/18/2014  23:23:00     -190.848      -90.909       -6.844      116.163       93.698       49.989    13493.784     8779.356     2498.861        3.475        1.239      211.394       61.772        0.085      343.264       19.248      860.096
09/18/2014  23:24:00     -205.043      -80.927      -13.810       97.433       71.214       41.984     9493.114     5071.372     1762.638        3.255        0.816      220.435       46.472        0.044      343.234       19.199      860.114
09/18/2014  23:25:00     -223.364      -35.700       -5.547       74.808       82.019       42.095     5596.214     6727.136     1772.022        3.264        0.705      226.199       41.351        0.033      343.208       19.153      860.133
09/18/2014  23:26:00     -198.104      -21.961        3.496       90.427       52.749       43.711     8177.000     2782.409     1910.625        2.630        0.644      199.318       47.345        0.056      343.158       19.070      860.150
09/18/2014  23:27:00     -118.128      -71.751        0.362       83.614       63.341       40.610     6991.255     4012.077     1649.145        1.587        0.633      138.211       47.805        0.120      343.176       19.102      860.151
09/18/2014  23:28:00     -199.106     -129.170       -5.869      104.613       88.296       44.638    10943.933     7796.220     1992.518        3.854        1.037      237.335       51.221        0.047      343.260       19.240      860.150
09/18/2014  23:29:00     -185.500     -101.196       -7.971       58.237       48.850       32.087     3391.510     2386.283     1029.553        2.576        0.340      211.307       26.829        0.016      343.234       19.200      860.156
09/18/2014  23:30:00     -192.040      -75.384        7.517       80.937       72.771       52.884     6550.812     5295.586     2796.746        2.863        0.732      206.306       48.136        0.054      343.189       19.120      860.147
09/18/2014  23:31:00     -162.603      -90.095        0.475       99.836       81.354       51.057     9967.319     6618.452     2606.830        2.687        0.960      185.894       52.761        0.081      343.171       19.091      860.138
09/18/2014  23:32:00     -169.380     -117.430       -0.816      141.820       90.674       56.666    20112.968     8221.723     3211.077        3.701        1.577      206.106       57.639        0.078      343.187       19.118      860.115
09/18/2014  23:33:00     -271.911     -138.182       -7.531      125.480       92.519       50.439    15745.288     8559.840     2544.056        5.996        1.342      305.008       59.893        0.039      343.173       19.093      860.104
09/18/2014  23:34:00     -227.450     -115.062       -3.589      104.579      100.585       49.521    10936.811    10117.400     2452.331        4.424        1.175      254.898       46.469        0.033      343.171       19.089      860.100
09/18/2014  23:35:00     -284.087     -150.373      -15.228      128.874       95.554       54.410    16608.577     9130.530     2960.429        6.612        1.435      321.431       50.835        0.025      343.176       19.098      860.084
09/18/2014  23:36:00     -265.263     -143.173      -16.548       96.697       94.760       54.448     9350.342     8979.530     2964.535        5.621        1.065      301.434       42.741        0.020      343.182       19.107      860.086
09/18/2014  23:37:00     -202.819     -133.349        4.597      119.272       80.908       52.032    14225.920     6546.162     2707.345        4.120        1.174      242.729       53.156        0.048      343.187       19.117      860.102
09/18/2014  23:38:00     -197.469     -127.607        0.247      109.833       86.779       52.529    12063.380     7530.576     2759.273        3.881        1.118      235.112       52.724        0.050      343.163       19.075      860.109
09/18/2014  23:39:00     -226.441     -154.511      -10.131      118.339       84.399       52.603    14004.068     7123.109     2767.027        4.957        1.195      274.133       50.374        0.034      343.148       19.051      860.116
09/18/2014  23:40:00     -253.050     -129.018      -10.768      142.168       88.238       56.753    20211.761     7786.009     3220.927        5.600        1.561      284.042       57.904        0.042      343.108       18.984      860.128
09/18/2014  23:41:00     -210.061       11.687        0.269       91.899       67.665       41.197     8445.512     4578.592     1697.202        2.949        0.736      210.386       38.787        0.034      343.088       18.951      860.141
09/18/2014  23:42:00     -172.939     -111.440       -4.471       99.695       82.834       38.045     9939.027     6861.441     1447.415        3.029        0.912      205.735       40.029        0.038      343.077       18.930      860.133
09/18/2014  23:43:00     -184.661      -80.813      -20.239       72.941       53.938       38.472     5320.361     2909.273     1480.067        2.537        0.485      201.570       35.409        0.031      343.078       18.934      860.116
09/18/2014  23:44:00     -194.080      -70.914       -3.748       72.524       54.070       38.849     5259.714     2923.545     1509.250        2.620        0.485      206.629       39.134        0.036      343.073       18.924      860.131
09/18/2014  23:45:00     -195.771     -129.486       -4.694       98.601       70.286       48.193     9722.169     4940.157     2322.610        3.605        0.849      234.719       49.456        0.044      343.059       18.900      860.135
09/18/2014  23:46:00     -218.575      -73.054      -11.283       84.717       69.702       41.457     7176.965     4858.408     1718.659        3.349        0.688      230.460       41.095        0.032      343.051       18.888      860.136
09/18/2014  23:47:00     -291.754      -25.381      -14.752      134.696       83.078       48.098    18142.939     6901.914     2313.411        5.666        1.368      292.856       60.254        0.042      343.026       18.845      860.130
09/18/2014  23:48:00     -233.913      -27.431       -5.804       83.582       65.320       45.003     6985.958     4266.765     2025.265        3.439        0.664      235.515       40.713        0.030      342.993       18.789      860.134
09/18/2014  23:49:00     -240.460      -21.876      -15.902      109.377       90.960       47.407    11963.415     8273.785     2247.448        4.051        1.124      241.453       36.461        0.023      342.989       18.781      860.123
09/18/2014  23:50:00     -200.853      -42.049       -5.181      100.826       72.756       44.108    10165.918     5293.444     1945.511        2.977        0.870      205.207       50.090        0.060      342.995       18.792      860.108
09/18/2014  23:51:00     -178.937      -57.570        0.683       97.226       60.538       43.410     9452.825     3664.823     1884.458        2.516        0.750      187.970       49.202        0.069      342.999       18.800      860.108
09/18/2014  23:52:00     -149.256      -66.481        6.712      127.250       74.706       51.532    16192.638     5580.931     2655.514        2.558        1.221      163.392       62.533        0.146      343.003       18.807      860.110
09/18/2014  23:53:00     -125.727      -13.782       -7.561       69.951       41.818       37.101     4893.129     1748.721     1376.509        1.203        0.401      126.480       38.095        0.091      342.994       18.794      860.117
09/18/2014  23:54:00     -112.141      -14.686       -8.224       45.123       43.755       26.125     2036.069     1914.511      682.505        0.875        0.232      113.099       20.709        0.034      342.985       18.781      860.141
09/18/2014  23:55:00     -173.430       -7.369      -10.389       67.025       71.624       41.176     4492.316     5130.046     1695.431        2.078        0.566      173.587       38.948        0.050      342.967       18.746      860.165
09/18/2014  23:56:00     -159.386      -33.659      -10.648       77.891       62.252       29.588     6067.059     3875.347      875.445        1.873        0.541      162.901       35.929        0.049      343.005       18.810      860.181
09/18/2014  23:57:00      -50.102       -7.826       12.829       29.518       43.731       21.227      871.336     1912.444      450.597        0.298        0.162       50.710       16.844        0.110      342.987       18.782      860.195
09/18/2014  23:58:00      -34.418      -34.854      -10.708       31.987       24.941       21.817     1023.141      622.033      475.961        0.232        0.106       48.984       17.146        0.123      343.013       18.827      860.202
09/18/2014  23:59:00       -9.317        7.950       33.430       20.552       24.371       18.014      422.402      593.921      324.505        0.130        0.067       12.248       17.808        2.114      343.038       18.868      860.210
